[[{"header":{"parameterUnit":"m.s-1","parameterCategory":1,"la1":31.0,"la2":29.5877,"lo1":-88.7671,"lo2":-86.6584,"dy":0.0162,"dx":0.0185,"nx":115,"ny":88,"refTime":"2023-03-14T06:00:00:Z","depth":0,"parameterNumber":2,"parameterNumberName":"U-component_of_WINDS"},"data":[0.0,0.0,0.0,0.0,0.0,0.0,0.0,0.0,0.0,0.0,0.0,0.0,0.0,0.0,0.0,0.0,0.0,0.0,0.0,0.0,0.0,0.0,0.0,0.0,0.0,0.0,0.0,0.0,0.0,0.0,0.0,0.0,0.0,0.0,0.0,0.0,0.0,0.0,0.0,0.0,0.0,0.0,0.0,0.0,0.0,0.0,0.0,0.0,0.0,0.0,0.0,0.0,0.0,0.0,0.0,0.0,0.0,0.0,0.0,0.0,0.0,0.0,0.0,0.0,0.0,0.0,0.0,0.0,0.0,0.0,0.0,0.0,0.0,0.0,0.0,0.0,0.0,0.0,0.0,0.0,0.0,0.0,0.0,0.0,0.0,0.0,0.0,0.0,0.0,0.0,0.0,0.0,0.0,0.0,0.0,0.0,0.0,0.0,0.0,0.0,0.0,0.0,0.0,0.0,0.0,0.0,0.0,0.0,0.0,0.0,0.0,0.0,0.0,0.0,0.0,0.0,0.0,0.0,0.0,0.0,0.0,0.0,0.0,0.0,0.0,0.0,0.0,0.0,0.0,0.0,0.0,0.0,0.0,0.0,0.0,0.0,0.0,0.0,0.0,0.0,0.0,0.0,0.0,0.0,0.0,0.0,0.0,0.0,0.0,0.0,0.0,0.0,0.0,0.0,0.0,0.0,0.0,0.0,0.0,0.0,0.0,0.0,0.0,0.0,0.0,0.0,0.0,0.0,0.0,0.0,0.0,0.0,0.0,0.0,0.0,0.0,0.0,0.0,0.0,0.0,0.0,0.0,0.0,0.0,0.0,0.0,0.0,0.0,0.0,0.0,0.0,0.0,0.0,0.0,0.0,0.0,0.0,0.0,0.0,0.0,0.0,0.0,0.0,0.0,0.0,0.0,0.0,0.0,0.0,0.0,0.0,0.0,0.0,0.0,0.0,0.0,0.0,0.0,0.0,0.0,0.0,0.0,0.0,0.0,0.0,0.0,0.0,0.0,0.0,0.0,0.0,0.0,0.0,0.0,0.0,0.0,0.0,0.0,0.0,0.0,0.0,0.0,0.0,0.0,0.0,0.0,0.0,0.0,0.0,0.0,0.0,0.0,0.0,0.0,0.0,0.0,0.0,0.0,0.0,0.0,0.0,0.0,0.0,0.0,0.0,0.0,0.0,0.0,0.0,0.0,0.0,0.0,0.0,0.0,0.0,0.0,0.0,0.0,0.0,0.0,0.0,0.0,0.0,0.0,0.0,0.0,0.0,0.0,0.0,0.0,0.0,0.0,0.0,0.0,0.0,0.0,0.0,0.0,0.0,0.0,0.0,0.0,0.0,0.0,0.0,0.0,0.0,0.0,0.0,0.0,0.0,0.0,0.0,0.0,0.0,0.0,0.0,0.0,0.0,0.0,0.0,0.0,0.0,0.0,0.0,0.0,0.0,0.0,0.0,0.0,0.0,0.0,0.0,0.0,0.0,0.0,0.0,0.0,0.0,0.0,0.0,0.0,0.0,0.0,0.0,0.0,0.0,0.0,0.0,0.0,0.0,0.0,0.0,0.0,0.0,0.0,0.0,0.0,0.0,0.0,0.0,0.0,0.0,0.0,0.0,0.0,0.0,0.0,0.0,0.0,0.0,0.0,0.0,0.0,0.0,0.0,0.0,0.0,0.0,0.0,0.0,0.0,0.0,0.0,0.0,0.0,0.0,0.0,0.0,0.0,0.0,0.0,0.0,0.0,0.0,0.0,0.0,0.0,0.0,0.0,0.0,0.0,0.0,0.0,0.0,0.0,0.0,0.0,0.0,0.0,0.0,0.0,0.0,0.0,0.0,0.0,0.0,0.0,0.0,0.0,0.0,0.0,0.0,0.0,0.0,0.0,0.0,0.0,0.0,0.0,0.0,0.0,0.0,0.0,0.0,0.0,0.0,0.0,0.0,0.0,0.0,0.0,0.0,0.0,0.0,0.0,0.0,0.0,0.0,0.0,0.0,0.0,0.0,0.0,0.0,0.0,0.0,0.0,0.0,0.0,0.0,0.0,0.0,0.0,0.0,0.0,0.0,0.0,0.0,0.0,0.0,0.0,0.0,0.0,0.0,0.0,0.0,0.0,0.0,0.0,0.0,0.0,0.0,0.0,0.0,0.0,0.0,0.0,0.0,0.0,0.0,0.0,0.0,0.0,0.0,0.0,0.0,0.0,0.0,0.0,0.0,0.0,0.0,0.0,0.0,0.0,0.0,0.0,0.0,0.0,0.0,0.0,0.0,0.0,0.0,0.0,0.0,0.0,0.0,0.0,0.0,0.0,0.0,0.0,0.0,0.0,0.0,0.0,0.0,0.0,0.0,0.0,0.0,0.0,0.0,0.0,0.0,0.0,0.0,0.0,0.0,0.0,0.0,0.0,0.0,0.0,0.0,0.0,0.0,0.0,0.0,0.0,0.0,0.0,0.0,0.0,0.0,0.0,0.0,0.0,0.0,0.0,0.0,0.0,0.0,0.0,0.0,0.0,0.0,0.0,0.0,0.0,0.0,0.0,0.0,0.0,0.0,0.0,0.0,0.0,0.0,0.0,0.0,0.0,0.0,0.0,0.0,0.0,0.0,0.0,0.0,0.0,0.0,0.0,0.0,0.0,0.0,0.0,0.0,0.0,0.0,0.0,0.0,0.0,0.0,0.0,0.0,0.0,0.0,0.0,0.0,0.0,0.0,0.0,0.0,0.0,0.0,0.0,0.0,0.0,0.0,0.0,0.0,0.0,0.0,0.0,0.0,0.0,0.0,0.0,0.0,0.0,0.0,0.0,0.0,0.0,0.0,0.0,0.0,0.0,0.0,0.0,0.0,0.0,0.0,0.0,0.0,0.0,0.0,0.0,0.0,0.0,0.0,0.0,0.0,0.0,0.0,0.0,0.0,0.0,0.0,0.0,0.0,0.0,0.0,0.0,0.0,0.0,0.0,0.0,0.0,0.0,0.0,0.0,0.0,0.0,0.0,0.0,0.0,0.0,0.0,0.0,0.0,0.0,0.0,0.0,0.0,0.0,0.0,0.0,0.0,0.0,0.0,0.0,0.0,0.0,0.0,0.0,0.0,0.0,0.0,0.0,0.0,0.0,0.0,0.0,0.0,0.0,0.0,0.0,0.0,0.0,0.0,0.0,0.0,0.0,0.0,0.0,0.0,0.0,0.0,0.0,0.0,0.0,0.0,0.0,0.0,0.0,0.0,0.0,0.0,0.0,0.0,0.0,0.0,0.0,0.0,0.0,0.0,0.0,0.0,0.0,0.0,0.0,0.0,0.0,0.0,0.0,0.0,0.0,0.0,0.0,0.0,0.0,0.0,0.0,0.0,0.0,0.0,0.0,0.0,0.0,0.0,0.0,0.0,0.0,0.0,0.0,0.0,0.0,0.0,0.0,0.0,0.0,0.0,0.0,0.0,0.0,0.0,0.0,0.0,0.0,0.0,0.0,0.0,0.0,0.0,0.0,0.0,0.0,0.0,0.0,0.0,0.0,0.0,0.0,0.0,0.0,0.0,0.0,0.0,0.0,0.0,0.0,0.0,0.0,0.0,0.0,0.0,0.0,0.0,0.0,0.0,0.0,0.0,0.0,0.0,0.0,0.0,0.0,0.0,0.0,0.0,0.0,0.0,0.0,0.0,0.0,0.0,0.0,0.0,0.0,0.0,0.0,0.0,0.0,0.0,0.0,0.0,0.0,0.0,0.0,0.0,0.0,0.0,0.0,0.0,0.0,0.0,0.0,0.0,0.0,0.0,0.0,0.0,0.0,0.0,0.0,0.0,0.0,0.0,0.0,0.0,0.0,0.0,0.0,0.0,0.0,0.0,0.0,0.0,0.0,0.0,0.0,0.0,0.0,0.0,0.0,0.0,0.0,0.0,0.0,0.0,0.0,0.0,0.0,0.0,0.0,0.0,0.0,0.0,0.0,0.0,0.0,0.0,0.0,0.0,0.0,0.0,0.0,0.0,0.0,0.0,0.0,0.0,0.0,0.0,0.0,0.0,0.0,0.0,0.0,0.0,0.0,0.0,0.0,0.0,0.0,0.0,0.0,0.0,0.0,0.0,0.0,0.0,0.0,0.0,0.0,0.0,0.0,0.0,0.0,0.0,0.0,0.0,0.0,0.0,0.0,0.0,0.0,0.0,0.0,0.0,0.0,0.0,0.0,0.0,0.0,0.0,0.0,0.0,0.0,0.0,0.0,0.0,0.0,0.0,0.0,0.0,0.0,0.0,0.0,0.0,0.0,0.0,0.0,-5.1492,0.0,0.0,0.0,0.0,0.0,0.0,0.0,0.0,0.0,0.0,0.0,0.0,0.0,0.0,0.0,0.0,0.0,0.0,0.0,0.0,0.0,0.0,0.0,0.0,0.0,0.0,0.0,0.0,0.0,0.0,0.0,0.0,0.0,0.0,0.0,0.0,0.0,0.0,0.0,0.0,0.0,0.0,0.0,0.0,0.0,0.0,0.0,0.0,0.0,0.0,0.0,0.0,0.0,0.0,0.0,0.0,0.0,0.0,0.0,0.0,0.0,0.0,0.0,0.0,0.0,0.0,0.0,0.0,0.0,0.0,0.0,0.0,0.0,0.0,0.0,0.0,0.0,0.0,0.0,0.0,0.0,0.0,0.0,0.0,0.0,0.0,0.0,0.0,0.0,0.0,0.0,0.0,0.0,0.0,0.0,0.0,0.0,0.0,0.0,0.0,0.0,0.0,0.0,0.0,0.0,0.0,0.0,0.0,0.0,0.0,-5.5279,-5.4029,-5.3522,-5.2702,-5.1453,0.0,0.0,0.0,0.0,0.0,0.0,0.0,0.0,0.0,0.0,0.0,0.0,0.0,0.0,0.0,0.0,0.0,0.0,0.0,0.0,0.0,0.0,0.0,0.0,0.0,0.0,0.0,0.0,0.0,0.0,0.0,0.0,0.0,0.0,0.0,0.0,0.0,0.0,0.0,0.0,0.0,0.0,0.0,0.0,0.0,0.0,0.0,0.0,0.0,0.0,0.0,0.0,0.0,0.0,0.0,0.0,0.0,0.0,0.0,0.0,0.0,0.0,0.0,0.0,0.0,0.0,0.0,0.0,0.0,0.0,0.0,0.0,0.0,0.0,0.0,0.0,0.0,0.0,0.0,0.0,0.0,0.0,0.0,0.0,0.0,0.0,0.0,0.0,0.0,0.0,0.0,0.0,0.0,0.0,0.0,0.0,0.0,0.0,0.0,0.0,0.0,0.0,0.0,0.0,0.0,0.0,0.0,0.0,0.0,0.0,0.0,0.0,-5.3171,-5.2273,-5.1453,0.0,0.0,0.0,0.0,0.0,0.0,0.0,0.0,0.0,0.0,0.0,0.0,0.0,0.0,0.0,0.0,0.0,0.0,0.0,0.0,0.0,0.0,0.0,0.0,0.0,0.0,0.0,0.0,0.0,0.0,0.0,0.0,0.0,0.0,0.0,0.0,0.0,0.0,0.0,0.0,0.0,0.0,0.0,0.0,0.0,0.0,0.0,0.0,0.0,0.0,0.0,0.0,0.0,0.0,0.0,0.0,0.0,0.0,0.0,0.0,0.0,0.0,0.0,0.0,0.0,0.0,0.0,0.0,0.0,0.0,0.0,0.0,0.0,0.0,0.0,0.0,0.0,0.0,0.0,0.0,0.0,0.0,0.0,0.0,0.0,0.0,0.0,0.0,0.0,0.0,0.0,0.0,0.0,0.0,0.0,0.0,0.0,0.0,0.0,0.0,0.0,0.0,0.0,0.0,0.0,0.0,0.0,0.0,0.0,0.0,-5.4799,-5.4029,-5.3132,0.0,-5.1453,0.0,0.0,0.0,0.0,0.0,0.0,0.0,0.0,0.0,0.0,0.0,0.0,0.0,0.0,0.0,0.0,0.0,0.0,0.0,0.0,0.0,0.0,0.0,0.0,0.0,0.0,0.0,0.0,0.0,0.0,0.0,0.0,0.0,0.0,0.0,0.0,0.0,0.0,0.0,0.0,0.0,0.0,0.0,0.0,0.0,0.0,0.0,0.0,0.0,0.0,0.0,0.0,0.0,0.0,0.0,0.0,0.0,0.0,0.0,0.0,0.0,0.0,0.0,0.0,0.0,0.0,0.0,0.0,0.0,0.0,0.0,0.0,0.0,0.0,0.0,0.0,0.0,0.0,0.0,0.0,0.0,0.0,0.0,0.0,0.0,0.0,0.0,0.0,0.0,0.0,0.0,0.0,0.0,0.0,0.0,0.0,0.0,0.0,0.0,0.0,0.0,0.0,0.0,0.0,0.0,0.0,0.0,0.0,0.0,0.0,-5.4279,-5.3979,-5.2659,-5.1765,0.0,0.0,0.0,0.0,0.0,0.0,0.0,0.0,0.0,0.0,0.0,0.0,0.0,0.0,0.0,0.0,0.0,0.0,0.0,0.0,0.0,0.0,0.0,0.0,0.0,0.0,0.0,0.0,0.0,0.0,0.0,0.0,0.0,0.0,0.0,0.0,0.0,0.0,0.0,0.0,0.0,0.0,0.0,0.0,0.0,0.0,0.0,0.0,0.0,0.0,0.0,0.0,0.0,0.0,0.0,0.0,0.0,0.0,0.0,0.0,0.0,0.0,0.0,0.0,0.0,0.0,0.0,0.0,0.0,0.0,0.0,0.0,0.0,0.0,0.0,0.0,0.0,0.0,0.0,0.0,0.0,0.0,0.0,0.0,0.0,0.0,0.0,0.0,0.0,0.0,0.0,0.0,0.0,0.0,0.0,0.0,0.0,0.0,0.0,0.0,0.0,0.0,0.0,0.0,0.0,0.0,0.0,0.0,0.0,0.0,-5.478,-5.3712,-5.3269,-5.2071,-5.1375,-5.1375,0.0,0.0,0.0,0.0,0.0,0.0,0.0,0.0,0.0,0.0,0.0,0.0,0.0,0.0,0.0,0.0,0.0,0.0,0.0,0.0,0.0,0.0,0.0,0.0,0.0,0.0,0.0,0.0,0.0,0.0,0.0,0.0,0.0,0.0,0.0,0.0,0.0,0.0,0.0,0.0,0.0,0.0,0.0,0.0,0.0,0.0,0.0,0.0,0.0,0.0,0.0,0.0,0.0,0.0,0.0,0.0,0.0,0.0,0.0,0.0,0.0,0.0,0.0,0.0,0.0,0.0,0.0,0.0,0.0,0.0,0.0,0.0,0.0,0.0,0.0,0.0,0.0,0.0,0.0,0.0,0.0,0.0,0.0,0.0,0.0,0.0,0.0,0.0,0.0,0.0,0.0,0.0,0.0,0.0,0.0,0.0,0.0,0.0,0.0,0.0,0.0,0.0,0.0,0.0,0.0,0.0,0.0,0.0,-5.6347,-5.4749,-5.3143,-5.163,-5.1447,-5.1375,0.0,0.0,0.0,0.0,0.0,0.0,0.0,0.0,0.0,0.0,0.0,0.0,0.0,0.0,0.0,0.0,0.0,0.0,0.0,0.0,0.0,0.0,0.0,0.0,0.0,0.0,0.0,0.0,0.0,0.0,0.0,0.0,0.0,0.0,0.0,0.0,0.0,0.0,0.0,0.0,0.0,0.0,0.0,0.0,0.0,0.0,0.0,0.0,0.0,0.0,0.0,0.0,0.0,0.0,0.0,0.0,0.0,0.0,0.0,0.0,0.0,0.0,0.0,0.0,0.0,0.0,0.0,0.0,0.0,0.0,0.0,0.0,0.0,0.0,0.0,0.0,0.0,0.0,0.0,0.0,0.0,0.0,0.0,0.0,0.0,0.0,0.0,0.0,0.0,0.0,0.0,0.0,0.0,0.0,0.0,0.0,0.0,0.0,0.0,0.0,0.0,0.0,0.0,0.0,0.0,0.0,0.0,0.0,0.0,-5.6339,-5.4749,-5.3341,-5.22,-5.1669,-5.1408,0.0,0.0,0.0,0.0,0.0,0.0,0.0,0.0,0.0,0.0,0.0,0.0,0.0,0.0,0.0,0.0,0.0,0.0,0.0,0.0,0.0,0.0,0.0,0.0,0.0,0.0,0.0,0.0,0.0,0.0,0.0,0.0,0.0,0.0,0.0,0.0,0.0,0.0,0.0,0.0,0.0,0.0,0.0,0.0,0.0,0.0,0.0,0.0,0.0,0.0,0.0,0.0,0.0,0.0,0.0,0.0,0.0,0.0,0.0,0.0,0.0,0.0,0.0,0.0,0.0,0.0,0.0,0.0,0.0,0.0,0.0,0.0,0.0,0.0,0.0,0.0,0.0,0.0,0.0,0.0,0.0,0.0,0.0,0.0,0.0,0.0,0.0,0.0,0.0,0.0,0.0,0.0,0.0,0.0,0.0,0.0,0.0,0.0,0.0,0.0,0.0,0.0,0.0,0.0,0.0,0.0,0.0,0.0,0.0,-5.5963,0.0,-5.3724,-5.2653,-5.2088,-5.1713,0.0,0.0,0.0,0.0,0.0,0.0,0.0,0.0,0.0,0.0,0.0,0.0,0.0,0.0,0.0,0.0,0.0,0.0,0.0,0.0,0.0,0.0,0.0,0.0,0.0,0.0,0.0,0.0,0.0,0.0,0.0,0.0,0.0,0.0,0.0,0.0,0.0,0.0,0.0,0.0,0.0,0.0,0.0,0.0,0.0,0.0,0.0,0.0,0.0,0.0,0.0,0.0,0.0,0.0,0.0,0.0,0.0,0.0,0.0,0.0,0.0,0.0,0.0,0.0,0.0,0.0,0.0,0.0,0.0,0.0,0.0,0.0,0.0,0.0,0.0,0.0,0.0,0.0,0.0,0.0,0.0,0.0,0.0,0.0,0.0,0.0,0.0,0.0,0.0,0.0,0.0,0.0,0.0,0.0,0.0,0.0,0.0,0.0,0.0,0.0,0.0,0.0,0.0,0.0,0.0,0.0,0.0,0.0,-5.594,-5.518,-5.5112,-5.429,-5.2714,-5.2629,-5.2255,0.0,0.0,0.0,0.0,0.0,0.0,0.0,0.0,0.0,0.0,0.0,0.0,0.0,0.0,0.0,0.0,0.0,0.0,0.0,0.0,0.0,0.0,0.0,0.0,0.0,0.0,0.0,0.0,0.0,0.0,0.0,0.0,0.0,0.0,0.0,0.0,0.0,0.0,0.0,0.0,0.0,0.0,0.0,0.0,0.0,0.0,0.0,0.0,0.0,0.0,0.0,0.0,0.0,0.0,0.0,0.0,0.0,0.0,0.0,0.0,0.0,0.0,0.0,0.0,0.0,0.0,0.0,0.0,0.0,0.0,0.0,0.0,0.0,0.0,0.0,0.0,0.0,0.0,0.0,0.0,0.0,0.0,0.0,0.0,0.0,0.0,0.0,0.0,0.0,0.0,0.0,0.0,0.0,0.0,0.0,0.0,0.0,0.0,0.0,0.0,0.0,0.0,0.0,0.0,0.0,0.0,0.0,0.0,0.0,-5.593,-5.54,-5.458,-5.3549,-5.2912,-5.2236,0.0,0.0,0.0,0.0,0.0,0.0,0.0,0.0,0.0,0.0,0.0,0.0,0.0,0.0,0.0,0.0,0.0,0.0,0.0,0.0,0.0,0.0,0.0,0.0,0.0,0.0,0.0,0.0,0.0,0.0,0.0,0.0,0.0,0.0,0.0,0.0,0.0,0.0,0.0,0.0,0.0,0.0,0.0,0.0,0.0,0.0,0.0,0.0,0.0,0.0,0.0,0.0,0.0,0.0,0.0,0.0,0.0,0.0,0.0,0.0,0.0,0.0,0.0,0.0,0.0,0.0,0.0,0.0,0.0,0.0,0.0,0.0,0.0,0.0,0.0,0.0,0.0,0.0,0.0,0.0,0.0,0.0,0.0,0.0,0.0,0.0,0.0,0.0,0.0,0.0,0.0,0.0,0.0,0.0,0.0,0.0,0.0,0.0,0.0,0.0,0.0,0.0,0.0,0.0,0.0,0.0,0.0,0.0,0.0,-5.7625,-5.6936,-5.6173,-5.5385,-5.4511,-5.3358,-5.1896,0.0,0.0,0.0,0.0,0.0,0.0,0.0,0.0,0.0,0.0,0.0,0.0,0.0,0.0,0.0,0.0,0.0,0.0,0.0,0.0,0.0,0.0,0.0,0.0,0.0,0.0,0.0,0.0,0.0,0.0,0.0,0.0,0.0,0.0,0.0,0.0,0.0,0.0,0.0,0.0,0.0,0.0,0.0,0.0,0.0,0.0,0.0,0.0,0.0,0.0,0.0,0.0,0.0,0.0,0.0,0.0,0.0,0.0,0.0,0.0,0.0,0.0,0.0,0.0,0.0,0.0,0.0,0.0,0.0,0.0,0.0,0.0,0.0,0.0,0.0,0.0,0.0,0.0,0.0,0.0,0.0,0.0,0.0,0.0,0.0,0.0,0.0,0.0,0.0,0.0,0.0,0.0,0.0,0.0,0.0,0.0,0.0,0.0,0.0,0.0,0.0,0.0,0.0,0.0,0.0,0.0,0.0,0.0,-6.0126,-5.961,-5.8948,-5.8009,-5.7099,-5.5393,0.0,0.0,0.0,0.0,0.0,0.0,0.0,0.0,0.0,0.0,0.0,0.0,0.0,0.0,0.0,0.0,0.0,0.0,0.0,0.0,0.0,0.0,0.0,0.0,0.0,0.0,0.0,0.0,0.0,0.0,0.0,0.0,0.0,0.0,0.0,0.0,0.0,0.0,0.0,0.0,0.0,0.0,0.0,0.0,0.0,0.0,0.0,0.0,0.0,0.0,0.0,0.0,0.0,0.0,0.0,0.0,0.0,0.0,0.0,0.0,0.0,0.0,0.0,0.0,0.0,0.0,0.0,0.0,0.0,0.0,0.0,0.0,0.0,0.0,0.0,0.0,0.0,0.0,0.0,0.0,0.0,0.0,0.0,0.0,0.0,0.0,0.0,0.0,0.0,0.0,0.0,0.0,0.0,0.0,0.0,0.0,0.0,0.0,0.0,0.0,0.0,0.0,0.0,0.0,0.0,0.0,0.0,0.0,0.0,-6.1996,-6.3081,-6.2619,-6.0539,-5.9088,-5.7138,0.0,0.0,0.0,0.0,0.0,0.0,0.0,0.0,0.0,0.0,0.0,0.0,0.0,0.0,0.0,0.0,0.0,0.0,0.0,0.0,0.0,0.0,0.0,0.0,0.0,0.0,0.0,0.0,0.0,0.0,0.0,0.0,0.0,0.0,0.0,0.0,0.0,0.0,0.0,0.0,0.0,0.0,0.0,0.0,0.0,0.0,0.0,0.0,0.0,0.0,0.0,0.0,0.0,0.0,0.0,0.0,0.0,0.0,0.0,0.0,0.0,0.0,0.0,0.0,0.0,0.0,0.0,0.0,0.0,0.0,0.0,0.0,0.0,0.0,0.0,0.0,0.0,0.0,0.0,0.0,0.0,0.0,0.0,0.0,0.0,0.0,0.0,0.0,0.0,0.0,0.0,0.0,0.0,0.0,0.0,0.0,0.0,0.0,0.0,0.0,0.0,0.0,0.0,0.0,0.0,0.0,0.0,0.0,-6.1391,-6.3708,-6.6107,-6.6478,-6.4701,-6.1694,-5.8897,0.0,0.0,0.0,0.0,0.0,0.0,0.0,0.0,0.0,0.0,0.0,0.0,0.0,0.0,0.0,0.0,0.0,0.0,0.0,0.0,0.0,0.0,0.0,0.0,0.0,0.0,0.0,0.0,0.0,0.0,0.0,0.0,0.0,0.0,0.0,0.0,0.0,0.0,0.0,0.0,0.0,0.0,0.0,0.0,0.0,0.0,0.0,0.0,0.0,0.0,0.0,0.0,0.0,0.0,0.0,0.0,0.0,0.0,0.0,0.0,0.0,0.0,0.0,0.0,0.0,0.0,0.0,0.0,0.0,0.0,0.0,0.0,0.0,0.0,0.0,0.0,0.0,0.0,0.0,0.0,0.0,0.0,0.0,0.0,0.0,0.0,0.0,0.0,0.0,0.0,0.0,0.0,0.0,0.0,0.0,0.0,0.0,0.0,0.0,0.0,0.0,0.0,0.0,0.0,0.0,0.0,0.0,0.0,-6.3119,-6.4888,-6.8187,-6.9686,-6.902,-6.4384,-6.0616,0.0,0.0,0.0,0.0,0.0,0.0,0.0,0.0,0.0,0.0,0.0,0.0,0.0,0.0,0.0,0.0,0.0,0.0,0.0,0.0,0.0,0.0,0.0,0.0,0.0,0.0,0.0,0.0,0.0,0.0,0.0,0.0,0.0,0.0,0.0,0.0,0.0,0.0,0.0,0.0,0.0,0.0,0.0,0.0,0.0,0.0,0.0,0.0,0.0,0.0,0.0,0.0,0.0,0.0,0.0,0.0,0.0,0.0,0.0,0.0,0.0,0.0,0.0,0.0,0.0,0.0,0.0,0.0,0.0,0.0,0.0,0.0,0.0,0.0,0.0,0.0,0.0,0.0,0.0,0.0,0.0,0.0,0.0,0.0,0.0,0.0,0.0,0.0,0.0,0.0,0.0,0.0,0.0,0.0,0.0,0.0,0.0,0.0,0.0,0.0,0.0,0.0,0.0,0.0,0.0,0.0,0.0,0.0,-6.2227,-6.4061,-6.6794,-6.8498,-6.9078,-6.5444,-6.1982,0.0,0.0,0.0,0.0,0.0,0.0,0.0,0.0,0.0,0.0,0.0,0.0,0.0,0.0,0.0,0.0,0.0,0.0,0.0,0.0,0.0,0.0,0.0,0.0,0.0,0.0,0.0,0.0,0.0,0.0,0.0,0.0,0.0,0.0,0.0,0.0,0.0,0.0,0.0,0.0,0.0,0.0,0.0,0.0,0.0,0.0,0.0,0.0,-5.2331,0.0,0.0,0.0,0.0,0.0,0.0,0.0,0.0,0.0,0.0,0.0,0.0,0.0,0.0,0.0,0.0,0.0,0.0,0.0,0.0,0.0,0.0,0.0,0.0,0.0,0.0,0.0,0.0,0.0,0.0,0.0,0.0,0.0,0.0,0.0,0.0,0.0,0.0,0.0,0.0,0.0,0.0,0.0,0.0,0.0,0.0,0.0,0.0,0.0,0.0,0.0,0.0,0.0,0.0,0.0,0.0,0.0,0.0,0.0,-6.2916,-6.5497,-6.7279,-6.8282,-6.8334,-6.546,-6.2517,0.0,0.0,0.0,0.0,0.0,0.0,0.0,0.0,0.0,0.0,0.0,0.0,0.0,0.0,0.0,0.0,0.0,0.0,0.0,0.0,0.0,0.0,0.0,0.0,0.0,0.0,0.0,0.0,0.0,0.0,0.0,0.0,0.0,0.0,0.0,0.0,0.0,0.0,0.0,0.0,0.0,0.0,0.0,0.0,0.0,0.0,0.0,0.0,0.0,0.0,0.0,0.0,0.0,0.0,0.0,0.0,0.0,0.0,0.0,0.0,0.0,0.0,0.0,0.0,0.0,0.0,0.0,0.0,0.0,0.0,0.0,0.0,0.0,0.0,0.0,0.0,0.0,0.0,0.0,0.0,0.0,0.0,0.0,0.0,0.0,0.0,0.0,0.0,0.0,0.0,0.0,0.0,0.0,0.0,0.0,0.0,0.0,0.0,0.0,0.0,0.0,0.0,0.0,0.0,0.0,0.0,0.0,-6.1677,-6.3737,-6.6998,-6.7965,-6.8103,-6.7459,-6.4906,-6.2477,-6.0242,0.0,0.0,0.0,0.0,0.0,0.0,0.0,0.0,0.0,0.0,0.0,0.0,0.0,0.0,0.0,0.0,0.0,0.0,0.0,0.0,0.0,0.0,0.0,0.0,0.0,0.0,0.0,0.0,0.0,0.0,0.0,0.0,0.0,0.0,0.0,0.0,0.0,0.0,-4.8548,-4.9086,0.0,0.0,0.0,0.0,0.0,0.0,0.0,0.0,-4.9783,0.0,0.0,0.0,0.0,0.0,0.0,0.0,0.0,0.0,0.0,0.0,0.0,0.0,0.0,0.0,0.0,0.0,0.0,0.0,0.0,0.0,0.0,0.0,0.0,0.0,0.0,0.0,0.0,0.0,0.0,0.0,0.0,0.0,0.0,0.0,0.0,0.0,0.0,0.0,0.0,0.0,0.0,0.0,0.0,0.0,0.0,0.0,0.0,0.0,0.0,0.0,0.0,0.0,0.0,0.0,0.0,-5.985,-6.0828,-6.2616,-6.5334,-6.6224,-6.6582,-6.638,-6.3999,-6.1875,-6.0042,0.0,0.0,0.0,0.0,0.0,0.0,0.0,0.0,0.0,0.0,0.0,0.0,0.0,0.0,0.0,0.0,0.0,0.0,0.0,0.0,0.0,0.0,0.0,0.0,0.0,0.0,0.0,0.0,0.0,0.0,0.0,0.0,0.0,0.0,0.0,0.0,0.0,0.0,0.0,-5.0202,-5.0356,0.0,0.0,0.0,0.0,0.0,0.0,0.0,0.0,-5.1001,0.0,0.0,0.0,0.0,0.0,0.0,0.0,0.0,0.0,0.0,0.0,0.0,0.0,0.0,0.0,0.0,0.0,0.0,0.0,0.0,0.0,0.0,0.0,0.0,0.0,0.0,0.0,0.0,0.0,0.0,0.0,0.0,0.0,0.0,0.0,0.0,0.0,0.0,0.0,0.0,0.0,0.0,0.0,0.0,0.0,0.0,0.0,0.0,0.0,0.0,0.0,0.0,0.0,0.0,0.0,-6.0159,-6.1232,-6.3166,-6.6147,-6.6224,-6.6185,-6.6147,-6.3768,-6.1628,0.0,0.0,0.0,0.0,0.0,0.0,0.0,0.0,0.0,0.0,0.0,0.0,0.0,0.0,0.0,0.0,0.0,0.0,0.0,0.0,0.0,0.0,0.0,0.0,0.0,0.0,0.0,0.0,0.0,0.0,0.0,0.0,0.0,0.0,0.0,0.0,0.0,0.0,0.0,0.0,-5.1202,-5.1779,-5.478,0.0,0.0,0.0,0.0,0.0,0.0,-5.2664,-5.1741,0.0,0.0,0.0,0.0,0.0,0.0,0.0,0.0,0.0,0.0,0.0,0.0,0.0,0.0,0.0,0.0,0.0,0.0,0.0,0.0,0.0,0.0,0.0,0.0,0.0,0.0,0.0,0.0,0.0,0.0,0.0,0.0,0.0,0.0,0.0,0.0,0.0,0.0,0.0,0.0,0.0,0.0,0.0,0.0,0.0,0.0,0.0,0.0,0.0,0.0,0.0,0.0,0.0,0.0,0.0,-6.0573,-6.1702,-6.3829,-6.7016,-6.6562,-6.6185,-6.6147,-6.341,-6.1262,0.0,0.0,0.0,0.0,0.0,0.0,0.0,0.0,0.0,0.0,0.0,0.0,0.0,0.0,0.0,0.0,0.0,0.0,0.0,0.0,0.0,0.0,0.0,0.0,0.0,0.0,0.0,0.0,0.0,0.0,0.0,0.0,0.0,0.0,0.0,0.0,0.0,0.0,0.0,0.0,0.0,-5.3587,-5.6791,-5.5972,0.0,0.0,0.0,0.0,-5.401,-5.3972,0.0,0.0,0.0,0.0,0.0,0.0,0.0,0.0,0.0,0.0,0.0,0.0,0.0,0.0,0.0,0.0,0.0,0.0,0.0,0.0,0.0,0.0,0.0,0.0,0.0,0.0,0.0,0.0,0.0,0.0,0.0,0.0,0.0,0.0,0.0,0.0,0.0,0.0,0.0,0.0,0.0,0.0,0.0,0.0,0.0,0.0,0.0,0.0,0.0,0.0,0.0,0.0,0.0,0.0,0.0,0.0,-5.9661,-6.1362,-6.3538,-6.6112,-6.6193,-6.6185,-6.6147,-6.2307,-6.0089,0.0,0.0,0.0,0.0,0.0,0.0,0.0,0.0,0.0,0.0,0.0,0.0,0.0,0.0,0.0,0.0,0.0,0.0,0.0,0.0,0.0,0.0,0.0,0.0,0.0,0.0,0.0,0.0,0.0,0.0,0.0,0.0,0.0,0.0,0.0,0.0,0.0,0.0,0.0,0.0,0.0,-5.5164,-5.778,-5.7319,-5.6434,0.0,0.0,-5.7434,-5.6676,-5.9023,0.0,0.0,0.0,0.0,0.0,0.0,0.0,0.0,0.0,0.0,0.0,0.0,0.0,0.0,0.0,0.0,0.0,0.0,0.0,0.0,0.0,0.0,0.0,0.0,0.0,0.0,0.0,0.0,0.0,0.0,0.0,0.0,0.0,0.0,0.0,0.0,0.0,0.0,0.0,0.0,0.0,0.0,0.0,0.0,0.0,0.0,0.0,0.0,0.0,0.0,0.0,0.0,0.0,0.0,0.0,-5.5689,-5.8186,-6.0892,-6.3299,-6.5329,-6.5923,-6.5992,-6.5528,-6.2297,-5.9907,0.0,0.0,0.0,0.0,0.0,0.0,0.0,0.0,0.0,0.0,0.0,0.0,0.0,0.0,0.0,0.0,0.0,0.0,0.0,0.0,0.0,0.0,0.0,0.0,0.0,0.0,0.0,0.0,0.0,0.0,0.0,0.0,0.0,0.0,0.0,0.0,0.0,0.0,0.0,0.0,0.0,0.0,-5.7434,-5.805,0.0,0.0,0.0,-5.8204,-5.5945,0.0,0.0,0.0,0.0,0.0,0.0,0.0,0.0,0.0,0.0,0.0,0.0,0.0,0.0,0.0,0.0,0.0,0.0,0.0,0.0,0.0,0.0,0.0,0.0,0.0,0.0,0.0,0.0,0.0,0.0,0.0,0.0,0.0,0.0,0.0,0.0,0.0,0.0,0.0,0.0,0.0,0.0,0.0,0.0,0.0,0.0,0.0,0.0,0.0,0.0,0.0,0.0,0.0,0.0,0.0,0.0,0.0,-5.7394,-6.0622,-6.3212,-6.5093,-6.5803,-6.5768,-6.4966,-6.2453,0.0,0.0,0.0,0.0,0.0,0.0,0.0,0.0,0.0,0.0,0.0,0.0,0.0,0.0,0.0,0.0,0.0,0.0,0.0,0.0,0.0,0.0,0.0,0.0,0.0,0.0,0.0,-4.0354,0.0,0.0,0.0,0.0,0.0,0.0,0.0,0.0,0.0,0.0,0.0,0.0,0.0,0.0,-5.755,-5.7357,-5.8781,-5.9511,0.0,0.0,-5.905,-5.6742,-5.9935,-6.105,0.0,0.0,0.0,0.0,0.0,0.0,0.0,0.0,0.0,0.0,0.0,0.0,0.0,0.0,0.0,0.0,0.0,0.0,0.0,0.0,0.0,0.0,0.0,0.0,0.0,0.0,0.0,0.0,0.0,0.0,0.0,0.0,0.0,0.0,0.0,0.0,0.0,0.0,0.0,0.0,0.0,0.0,0.0,0.0,0.0,0.0,0.0,0.0,0.0,0.0,0.0,0.0,0.0,0.0,-5.5728,-5.8215,-6.0828,-6.3406,-6.5789,-6.599,-6.5661,-6.4865,-6.2393,-5.9862,0.0,0.0,0.0,0.0,0.0,0.0,0.0,0.0,0.0,0.0,0.0,0.0,0.0,0.0,0.0,0.0,0.0,0.0,0.0,0.0,0.0,0.0,0.0,0.0,0.0,0.0,0.0,0.0,0.0,0.0,0.0,0.0,0.0,0.0,0.0,0.0,0.0,0.0,0.0,0.0,0.0,-5.905,-5.8319,-5.9665,-6.1204,0.0,-6.1627,-6.0896,-6.1485,-6.5051,-6.5628,-5.9088,0.0,0.0,0.0,0.0,0.0,0.0,0.0,0.0,0.0,0.0,0.0,0.0,0.0,0.0,0.0,0.0,0.0,0.0,0.0,0.0,0.0,0.0,0.0,0.0,0.0,0.0,0.0,0.0,0.0,0.0,0.0,0.0,0.0,0.0,0.0,0.0,0.0,0.0,0.0,0.0,0.0,0.0,0.0,0.0,0.0,0.0,0.0,0.0,0.0,0.0,0.0,0.0,0.0,-5.5026,-5.7484,-6.0117,-6.2695,-6.5083,-6.5747,-6.5638,-6.485,-6.2341,-6.0064,0.0,0.0,0.0,0.0,0.0,0.0,0.0,0.0,0.0,0.0,0.0,0.0,0.0,0.0,0.0,0.0,0.0,0.0,0.0,0.0,0.0,0.0,0.0,0.0,0.0,0.0,0.0,0.0,-4.4248,-4.4239,-4.3201,0.0,0.0,0.0,0.0,0.0,0.0,0.0,0.0,0.0,0.0,-5.9204,-6.0435,-6.1627,0.0,0.0,-6.2897,-6.2358,-6.0089,-6.2858,-6.332,-5.7627,-5.7203,0.0,0.0,0.0,0.0,0.0,0.0,0.0,0.0,0.0,0.0,0.0,0.0,0.0,0.0,0.0,0.0,0.0,0.0,0.0,0.0,0.0,0.0,0.0,0.0,0.0,0.0,0.0,0.0,0.0,0.0,0.0,0.0,0.0,0.0,0.0,0.0,0.0,0.0,0.0,0.0,0.0,0.0,0.0,0.0,0.0,0.0,0.0,0.0,0.0,0.0,0.0,0.0,-5.5036,-5.7753,-6.0106,-6.2519,-6.5009,-6.5661,-6.5569,-6.4744,-6.2546,-6.0436,0.0,0.0,0.0,0.0,0.0,0.0,0.0,0.0,0.0,0.0,0.0,0.0,0.0,0.0,0.0,0.0,0.0,0.0,0.0,0.0,0.0,0.0,0.0,0.0,0.0,0.0,0.0,0.0,-4.4556,-4.4479,-4.3547,0.0,0.0,0.0,0.0,0.0,0.0,0.0,0.0,0.0,0.0,-5.9281,-6.1089,-6.182,-6.2166,-6.2101,-6.2666,-6.2281,-6.0127,-6.1589,-6.1666,-5.7857,0.0,0.0,0.0,0.0,0.0,0.0,0.0,0.0,0.0,0.0,0.0,0.0,0.0,0.0,0.0,0.0,0.0,0.0,0.0,0.0,0.0,0.0,0.0,0.0,0.0,0.0,0.0,-5.3004,0.0,0.0,-5.3014,0.0,0.0,0.0,0.0,0.0,0.0,0.0,0.0,0.0,0.0,0.0,0.0,0.0,0.0,0.0,0.0,0.0,0.0,0.0,0.0,0.0,0.0,-5.6102,-5.9396,-6.1147,-6.3303,-6.5756,-6.591,-6.555,-6.4713,-6.3018,-6.0944,-5.851,0.0,0.0,0.0,0.0,0.0,0.0,0.0,0.0,0.0,0.0,0.0,0.0,0.0,0.0,0.0,0.0,0.0,0.0,0.0,0.0,0.0,0.0,0.0,0.0,0.0,0.0,-4.0977,-4.2162,-4.3508,0.0,0.0,0.0,0.0,0.0,0.0,0.0,0.0,0.0,-5.4203,-5.7357,-5.9473,-5.9588,-5.9627,-6.0319,-6.1908,-6.0742,-6.0473,-6.2704,-6.2551,-6.1793,0.0,0.0,0.0,0.0,0.0,0.0,0.0,0.0,0.0,0.0,0.0,0.0,0.0,0.0,0.0,0.0,0.0,0.0,0.0,0.0,0.0,0.0,0.0,0.0,0.0,0.0,0.0,-5.5094,-5.4765,0.0,0.0,0.0,0.0,0.0,0.0,0.0,0.0,0.0,0.0,0.0,-5.4934,-5.6049,0.0,0.0,0.0,0.0,0.0,0.0,0.0,0.0,0.0,0.0,0.0,0.0,-5.6718,-5.9435,-6.1212,-6.333,-6.5782,-6.5897,-6.5487,-6.4653,-6.2998,-6.0388,-5.6839,0.0,0.0,0.0,0.0,0.0,0.0,0.0,0.0,0.0,0.0,0.0,0.0,0.0,0.0,0.0,0.0,0.0,0.0,0.0,0.0,0.0,0.0,0.0,0.0,0.0,-4.3085,0.0,0.0,0.0,0.0,0.0,0.0,0.0,0.0,0.0,0.0,-4.9971,-5.2058,-5.5675,-5.6626,-5.778,-6.005,-6.0858,-6.1627,0.0,0.0,0.0,0.0,0.0,0.0,0.0,0.0,0.0,0.0,0.0,0.0,0.0,0.0,-5.8704,-5.478,-5.4934,-5.5703,-5.5742,0.0,0.0,0.0,0.0,0.0,0.0,0.0,0.0,0.0,0.0,0.0,0.0,0.0,0.0,-5.6434,-5.6126,-5.5895,0.0,0.0,0.0,0.0,0.0,0.0,0.0,0.0,-5.6703,-5.7473,-5.7511,-5.8627,-5.8704,-5.7885,-5.7588,-5.5588,0.0,0.0,0.0,0.0,0.0,0.0,0.0,0.0,-5.7439,-5.9896,-6.1624,-6.3626,-6.5782,-6.5897,-6.5628,-6.5013,-6.3113,-6.0673,-5.7674,-5.6172,-5.413,0.0,0.0,0.0,0.0,0.0,0.0,0.0,0.0,0.0,0.0,0.0,0.0,0.0,0.0,0.0,0.0,0.0,0.0,0.0,0.0,0.0,0.0,0.0,-4.397,0.0,0.0,0.0,0.0,0.0,0.0,0.0,0.0,0.0,-4.974,-5.1135,-5.3356,-5.6973,-5.7203,-5.7742,-5.9665,0.0,0.0,0.0,0.0,0.0,0.0,0.0,-6.0331,-5.8984,-5.9242,-6.0089,-6.1435,-6.2589,-6.3308,-6.3308,0.0,0.0,-5.8396,-5.8215,-5.8858,-5.9165,-5.8742,-5.8588,-5.9435,-5.9627,-5.9627,0.0,0.0,0.0,0.0,-5.9627,0.0,0.0,0.0,-5.855,-5.8011,0.0,-5.8011,0.0,0.0,0.0,0.0,-5.5895,-5.7511,0.0,0.0,-6.0012,-6.0858,-6.0858,-6.0935,-6.0512,-5.9627,-5.8934,-5.8038,-5.7,-5.5511,0.0,0.0,0.0,0.0,0.0,0.0,-5.8292,-6.0781,-6.2474,-6.4128,-6.582,-6.5897,-6.5859,-6.5705,-6.3407,-6.1708,-6.0795,-5.8434,-5.6326,-5.4515,-5.2127,0.0,0.0,0.0,0.0,0.0,0.0,0.0,0.0,0.0,0.0,0.0,0.0,0.0,0.0,0.0,0.0,0.0,0.0,0.0,0.0,-4.3932,0.0,0.0,0.0,0.0,0.0,0.0,0.0,0.0,0.0,-4.9817,-5.0789,-5.2895,-5.5357,-5.7819,0.0,0.0,0.0,0.0,-6.0204,-5.8704,-5.9819,-6.0935,-6.0973,-6.0935,-6.1166,-6.1985,0.0,0.0,-6.3243,-6.3435,-6.3551,-6.35,-6.4936,-6.5436,-6.3705,-6.2704,-6.2474,-6.3166,-6.2127,-6.1396,-6.205,-6.2332,-6.2293,-6.7051,0.0,0.0,0.0,0.0,-6.2243,-6.2589,-6.3628,-6.2397,-6.1396,-6.0639,-6.0242,0.0,0.0,0.0,0.0,0.0,0.0,-5.9165,-5.9281,-6.1512,-6.2589,-6.2627,-6.3858,-6.3974,-6.3128,-6.2897,-6.1743,-5.9781,-5.9858,-5.7934,-5.4203,0.0,0.0,0.0,0.0,-5.9165,-6.1639,-6.2781,-6.4166,-6.5859,-6.5897,-6.5282,-6.4089,-6.2793,-6.1443,-6.0025,-5.9254,-5.752,-5.4631,-5.3234,0.0,0.0,0.0,0.0,0.0,0.0,0.0,0.0,0.0,0.0,0.0,0.0,0.0,0.0,0.0,0.0,0.0,0.0,0.0,-4.397,-4.5851,-4.6515,0.0,0.0,0.0,0.0,0.0,0.0,0.0,0.0,0.0,-5.3213,-5.3472,-5.4087,0.0,0.0,-5.6049,-5.6395,-5.8396,-5.9935,-6.005,-6.1512,0.0,-6.3397,-6.2974,-6.2666,-6.2935,-6.3974,-6.4897,-6.5128,-6.6128,-6.6923,-6.6936,-6.7359,-6.7513,-6.7051,-6.6244,-6.5743,-6.5897,-6.559,-6.5371,-6.559,-6.5679,-6.5436,-7.0321,-6.7013,-6.6013,-6.5397,-6.5051,-6.4551,-6.4936,-6.582,-6.4782,-6.3666,-6.2589,-6.2397,-6.0704,-5.8011,-5.855,0.0,0.0,0.0,-6.0704,-6.1077,-6.2935,-6.4012,-6.4397,-6.5397,-6.5436,-6.4589,-6.4243,-6.3128,-6.1331,-6.1127,-5.955,-5.6588,0.0,-5.6703,-5.7203,-5.8242,-5.9858,-6.2024,-6.2589,-6.3512,-6.482,-6.4859,-6.4359,-6.3358,-6.2512,-6.1612,-6.0646,-6.0261,-5.8952,-5.6603,-5.5063,-5.3012,0.0,0.0,0.0,0.0,0.0,0.0,0.0,0.0,0.0,0.0,0.0,-4.2893,-4.2393,0.0,0.0,0.0,-4.5124,-4.5479,-4.5813,-4.7246,0.0,0.0,0.0,0.0,0.0,0.0,0.0,-4.9586,-5.0991,-5.2579,-5.429,-5.4339,-5.4801,-5.628,-5.6472,-5.6549,-5.6703,0.0,-6.0589,-6.0781,-6.2243,-6.3358,-6.3589,-6.3435,-6.3308,-6.3283,-6.4706,-6.5833,-6.591,-6.7256,-6.8359,-6.8398,-6.8398,-6.8398,-6.8398,-6.7936,-6.7628,-6.759,-6.7051,-6.6744,-6.7013,-6.709,-6.6936,-7.3322,-7.0975,-6.8629,-6.7051,-6.6205,-6.6167,-6.6244,-6.6282,-6.6244,-6.5243,-6.3692,-6.4397,-6.2897,-5.9819,-5.9742,0.0,-5.9858,-6.1512,-6.2666,-6.3435,-6.432,-6.5128,-6.5897,-6.5897,-6.5474,-6.4705,-6.3897,-6.3051,-6.2178,-6.0704,-5.9819,-5.9627,-5.9665,-5.9665,-5.9511,-5.9511,-6.0396,-6.2139,-6.2216,-6.2589,-6.3385,-6.3397,-6.3358,-6.3205,-6.2551,-6.2139,-6.1985,-6.1243,-6.0358,-5.9396,-5.7088,-5.5011,-5.3203,0.0,0.0,0.0,0.0,0.0,0.0,0.0,0.0,0.0,0.0,0.0,0.0,0.0,0.0,0.0,-4.6624,0.0,-4.8428,-4.8422,0.0,0.0,0.0,-4.9865,-5.0712,-5.0875,-5.1212,-5.201,0.0,0.0,-5.4587,-5.5448,-5.6806,-5.9292,-5.9473,-5.9127,-5.8396,-6.0319,-6.1716,-6.0896,-6.2243,-6.3012,-6.2551,-6.2935,-6.3257,-6.3233,-6.4539,-6.5423,-6.5538,-6.6678,-6.7795,-6.7756,-6.791,-6.7871,-6.791,-6.7679,-6.7948,-6.7756,-6.6885,-6.6205,-6.6654,-6.6833,-6.6782,-7.4361,-7.3707,-7.2476,-7.0744,-6.8783,-6.8783,-6.9167,-6.9629,-6.9052,-6.7821,-6.6167,-6.5743,-6.4397,-6.2358,-6.1743,-6.182,-6.2474,-6.3512,-6.4089,-6.4359,-6.5166,-6.5705,-6.5897,-6.5897,-6.5782,-6.559,-6.5397,-6.4512,-6.3089,-6.3281,-6.2397,-6.0627,-6.1127,-6.0819,-5.955,-5.9511,-6.0666,-6.3012,-6.3012,-6.3435,-6.4243,-6.4282,-6.3666,-6.2397,-6.2781,-6.2397,-6.1166,-6.0935,-6.0127,-5.8665,-5.7357,-5.5637,-5.3318,-5.0433,0.0,0.0,0.0,0.0,0.0,0.0,0.0,0.0,0.0,-4.4739,-4.4085,0.0,-4.6355,0.0,-4.8548,-5.0135,-5.0943,-5.101,0.0,0.0,-5.0394,-5.0702,-5.1538,-5.2242,-5.2993,-5.379,-5.3927,-5.4833,-5.7137,-5.6983,-5.7649,-6.0089,-5.9364,-5.849,-5.8357,-5.9896,-6.105,-6.1012,-6.2243,-6.3243,-6.3038,-6.3166,-6.3206,-6.3194,-6.3566,-6.3783,-6.3782,-6.4051,-6.4371,-6.4371,-6.4371,-6.4371,-6.4448,-6.4371,-6.441,-6.4486,-6.555,-6.6345,-6.5344,-6.5523,-6.5586,-7.5053,-7.4668,-7.4207,-7.3014,-7.136,-7.0975,-7.0821,-7.086,-7.0437,-6.9283,-6.7552,-6.6013,-6.4782,-6.3897,-6.3397,-6.3435,-6.3935,-6.4782,-6.5205,-6.5205,-6.5667,-6.5897,-6.5897,-6.5897,-6.5705,-6.532,-6.532,-6.4436,-6.2897,-6.3628,-6.3128,-6.1408,-6.2204,-6.2166,-6.1243,-6.1204,-6.2281,-6.4397,-6.3705,-6.3743,-6.4551,-6.4205,-6.3397,-6.2178,-6.2166,-6.155,-6.0281,-5.9896,-5.9088,-5.778,-5.6896,-5.5434,-5.3318,-5.1164,-4.9394,0.0,0.0,0.0,0.0,0.0,0.0,0.0,0.0,0.0,0.0,0.0,-4.8202,-4.8586,-5.0202,-5.1279,-5.1356,-5.1692,-5.1895,-5.1818,-5.2164,-5.2702,-5.351,-5.4023,-5.4544,-5.4983,-5.5063,-5.5738,-5.7445,-5.7659,-5.8198,-6.0023,-5.976,-5.9425,-5.9523,-6.055,-6.1358,-6.1447,-6.2474,-6.3154,-6.2783,-6.2362,-6.2094,-6.203,-6.2323,-6.254,-6.2552,-6.2834,-6.3129,-6.3129,-6.3129,-6.3129,-6.3129,-6.3129,-6.3115,-6.3203,-6.3882,-6.4356,-6.3934,-6.4203,-6.4112,-7.5553,-7.4861,-7.4861,-7.4399,-7.3591,-7.2706,-7.186,-7.1052,-7.0937,-6.9975,-6.8231,-6.5936,-6.4859,-6.4782,-6.4743,-6.4782,-6.482,-6.5551,-6.5897,-6.5897,-6.5897,-6.5897,-6.5897,-6.5897,-6.5513,-6.4782,-6.4743,-6.3935,-6.2486,-6.3128,-6.3051,-6.232,-6.2974,-6.3397,-6.3628,-6.3628,-6.432,-6.5705,-6.4243,-6.3858,-6.4589,-6.3666,-6.282,-6.2101,-6.1254,-6.0396,-5.9511,-5.8742,-5.7896,-5.7022,-5.6165,-5.5049,-5.3587,-5.1818,-5.0558,0.0,-4.8317,0.0,0.0,0.0,0.0,0.0,0.0,0.0,0.0,-4.9125,-4.9971,-5.0933,-5.1664,-5.1856,-5.1366,-5.1972,-5.2702,-5.3433,-5.4203,-5.4934,-5.5588,-5.5714,-5.5752,-5.5857,-5.5752,-5.606,-5.7099,-5.7758,-5.8424,-5.9254,-6.0057,-6.0415,-6.0639,-6.1243,-6.1793,-6.1947,-6.2512,-6.2565,-6.1939,-6.1185,-6.07,-6.0673,-6.1157,-6.1642,-6.1628,-6.218,-6.2719,-6.2719,-6.2629,-6.2667,-6.2757,-6.2719,-6.2692,-6.2547,-6.2164,-6.2076,-6.273,-6.3088,-6.2998,-7.5899,-7.5745,-7.5745,-7.5245,-7.4399,-7.363,-7.2745,-7.1898,-7.1206,-6.9975,-6.8359,-6.7128,-6.6282,-6.5667,-6.5667,-6.5628,-6.5667,-6.582,-6.5897,-6.5897,-6.5897,-6.5897,-6.5897,-6.5897,-6.582,-6.5667,-6.5667,-6.5128,-6.4128,-6.4282,-6.3897,-6.3089,-6.3243,-6.4012,-6.532,0.0,0.0,0.0,-6.4512,-6.4436,-6.4512,-6.3089,-6.2255,-6.2101,-6.1243,0.0,-5.955,-5.8704,-5.7896,-5.7022,-5.6165,0.0,0.0,0.0,0.0,0.0,0.0,0.0,0.0,0.0,0.0,0.0,-5.001,-4.9865,-5.0164,-5.0366,-5.1087,-5.2549,-5.2856,-5.3433,-5.4626,-5.4895,-5.5049,-5.5203,-5.5357,-5.5549,-5.5665,-5.5745,-5.6025,-5.6676,-5.6169,-5.6333,-5.7676,-5.7599,-5.761,-5.8434,-5.9254,-5.9715,-5.9742,-6.0512,-6.105,-6.1089,-6.1281,-6.1281,-6.1077,-6.0825,-6.0635,-6.0661,-6.0634,-6.0734,-6.0756,-6.0832,-6.0922,-6.0961,-6.0922,-6.0922,-6.0961,-6.0922,-6.0999,-6.0933,-6.078,-6.0895,-6.1712,-6.2476,-6.2744,-7.5976,-7.5976,-7.5976,-7.5745,0.0,-7.4053,-7.3245,-7.2783,-7.1437,-6.9937,-6.8308,-6.7051,-6.6282,-6.5897,-6.5897,-6.5897,-6.5897,-6.5897,-6.5897,-6.5897,-6.5897,-6.5897,-6.5897,-6.5897,-6.5897,-6.5897,-6.5897,-6.5436,-6.4666,-6.5051,-6.4782,-6.3935,-6.4359,-6.5013,-6.5859,-6.6282,-6.6474,-6.6474,-6.5667,-6.5436,-6.5743,-6.4205,-6.332,-6.3281,-6.1666,0.0,0.0,0.0,0.0,0.0,0.0,0.0,0.0,-5.3895,0.0,-5.378,-5.2626,-5.2125,-5.251,-5.2164,-5.2279,-5.3087,-5.3174,-5.2818,-5.201,-5.2664,-5.351,-5.4318,-5.4434,-5.478,-5.5588,-5.5703,-5.5703,-5.5703,-5.5703,-5.5703,-5.5714,-5.5735,-5.5938,-5.6214,-5.6004,-5.612,-5.6907,-5.7088,-5.7176,-5.7627,-5.8357,-5.8896,-5.9011,-6.0012,-6.0781,-6.0781,-6.0781,-6.0808,-6.0746,-6.0685,-6.0623,-6.0546,-6.048,-6.0425,-6.0422,-6.0384,-6.0384,-6.0384,-6.0064,-5.9873,-6.0307,-6.0064,-5.9988,-6.0676,-6.0332,-6.0446,-6.1784,-6.228,-6.2013,-7.5976,-7.5976,-7.5976,-7.5899,-7.5668,-7.413,-7.3308,-7.2923,-7.1514,0.0,0.0,-6.7013,-6.6244,-6.609,-6.5974,-6.5897,-6.5897,-6.5897,-6.5897,-6.5897,-6.5897,-6.5897,-6.5897,-6.5897,-6.5897,-6.5897,-6.5897,-6.5551,-6.4859,-6.5551,-6.5551,-6.4936,-6.5551,-6.5897,-6.5936,-6.6551,-6.7244,-6.7859,-6.659,-6.6205,-6.6821,-6.5089,-6.4205,-6.4359,-6.1897,-6.0627,-6.0781,-5.905,-5.7473,-5.6242,-5.5742,-5.5241,-5.4741,-5.4587,-5.4549,-5.4664,-5.4049,-5.3972,-5.4626,-5.4049,-5.4241,-5.5626,-5.5703,-5.5164,-5.3933,-5.5011,-5.5703,-5.5703,-5.5703,-5.5703,-5.5703,-5.5703,-5.5703,-5.5703,-5.5703,-5.5703,-5.5703,-5.5703,-5.5714,-5.5703,-5.5703,-5.5703,-5.578,-5.6329,-5.6791,-5.6868,-5.7511,-5.8165,-5.8434,-5.9588,-6.0473,-6.0473,-6.0627,-6.0769,-6.0722,-6.066,-6.0623,-6.0584,-6.0466,-6.0398,-6.0398,-6.0384,-6.0384,-6.0384,-5.9682,-5.9491,-5.995,-5.9606,-5.9592,-6.0905,-6.0255,-5.9873,-6.1593,-6.1898,-6.1554,-7.6015,-7.5976,-7.5976,-7.5553,-7.4822,-7.3899,-7.2668,-7.1283,-7.1014,-7.036,-6.9475,-6.8475,-6.7628,-6.6898,-6.6205,-6.5897,-6.5897,-6.5897,-6.5897,-6.5897,-6.5897,-6.5897,-6.5897,-6.5897,-6.5897,-6.5897,-6.5897,-6.582,-6.5743,-6.582,-6.582,-6.5743,-6.5859,-6.5897,-6.5897,-6.6013,-6.6128,-6.6244,-6.6013,-6.5936,-6.6013,-6.3717,-6.2781,-6.3346,-6.105,-6.005,-6.0704,-5.8484,-5.7434,-5.7857,-5.5857,-5.4895,-5.5472,-5.4895,-5.4818,-5.5434,-5.5395,-5.5395,-5.5511,-5.5395,-5.5434,-5.5665,-5.5703,-5.5895,-5.6406,-5.5972,-5.5703,-5.5703,-5.5703,-5.5703,-5.5703,-5.5703,-5.5703,-5.5703,-5.5703,-5.5703,-5.5703,-5.5703,-5.5703,-5.5703,-5.5703,-5.5703,-5.5703,-5.5868,-5.5972,-5.6011,-5.6676,-5.7445,-5.8165,-5.9088,-5.9627,-5.9781,-6.0319,-6.0742,-6.0757,-6.0722,-6.0673,-6.0673,-6.0546,-6.0453,-6.0491,-6.0412,-6.0384,-6.0384,-5.9682,-5.9262,-5.9376,-5.9224,-5.93,-5.9706,-5.9797,-6.0102,-6.0217,-6.0905,-6.2013,-7.6438,-7.6015,-7.5976,-7.5784,-7.5322,-7.4038,-7.2783,-7.1591,-7.1091,-7.0437,-6.9552,-6.7859,-6.7051,-6.7013,-6.6244,-6.5897,-6.5897,-6.5897,-6.5897,-6.5897,-6.5897,-6.5897,-6.5897,-6.5897,-6.5897,-6.5897,-6.5897,-6.5897,-6.5897,-6.5897,-6.5897,-6.5897,-6.5897,-6.5897,-6.5897,-6.5897,-6.5897,-6.5897,-6.5897,-6.5897,-6.5859,-6.382,-6.3166,-6.3935,-6.155,-6.0627,-6.1435,-5.9935,-5.9011,-5.8934,-5.7434,-5.6742,-5.7049,-5.6319,-5.6022,-5.6368,-5.6406,-5.6395,-5.6434,-5.6395,-5.6395,-5.6406,-5.5945,-5.6088,-5.6945,-5.6214,-5.5703,-5.5703,-5.5703,-5.5703,-5.5703,-5.5703,-5.5703,-5.5703,-5.5703,-5.5703,-5.5703,-5.5703,-5.5703,-5.5703,-5.5703,-5.5703,-5.5703,-5.5703,-5.5703,-5.5752,-5.6099,-5.6637,-5.7473,-5.8319,-5.9011,-5.9473,-6.0242,-6.0704,-6.0781,-6.0734,-6.0685,-6.0635,-6.0546,-6.048,-6.0439,-6.0398,-6.0384,-6.0346,-5.9682,-5.9376,-5.9644,-5.9376,-5.9376,-5.972,-5.9606,-5.9759,-6.037,-6.1478,-6.251,-7.6938,-7.6284,-7.6092,-7.5784,-7.5284,-7.363,-7.2514,-7.1822,-7.1014,-7.0398,-6.9706,-6.7667,-6.6898,-6.7026,-6.6436,-6.609,-6.5897,-6.5897,-6.5897,-6.5897,-6.5897,-6.5897,-6.5897,-6.5897,-6.5897,-6.5897,-6.5897,-6.5897,-6.5897,-6.5897,-6.5897,-6.5897,-6.5897,-6.5897,-6.5897,-6.5897,-6.5897,-6.5897,-6.5897,-6.5897,-6.582,-6.4205,-6.3743,-6.4359,-6.2127,-6.1281,-6.2243,-6.1166,-6.0281,-5.9781,-5.8858,-5.8269,-5.8242,-5.7473,-5.7022,-5.6983,-5.683,-5.6703,-5.6703,-5.6703,-5.6714,-5.6714,-5.6088,-5.5972,-5.656,-5.6099,-5.5703,-5.5703,-5.5703,-5.5703,-5.5703,-5.5703,-5.5703,-5.5703,-5.5703,-5.5703,-5.5703,-5.5703,-5.5703,-5.5703,-5.5703,-5.5703,-5.5703,-5.5703,-5.5703,-5.5703,-5.5703,-5.6022,-5.6637,-5.7434,-5.8242,-5.8973,-5.9973,-6.0742,-6.0781,-6.0746,-6.0697,-6.0623,-6.0559,-6.0493,-6.0387,-6.0283,-6.0102,-5.995,-5.9376,-5.9071,-5.9606,-5.9491,-5.9376,-5.9797,-5.972,-5.995,-6.1172,-6.1936,-6.2662,-7.7246,-7.7053,-7.6284,-7.5091,-7.3707,-7.1975,-7.1206,-7.1014,-7.0167,-7.0206,-7.0552,-6.9744,-6.8436,-6.7205,-6.7013,-6.6551,-6.5897,-6.5897,-6.5897,-6.5897,-6.5897,-6.5897,-6.5897,-6.5897,-6.5897,-6.5897,-6.5897,-6.5897,-6.5897,-6.5897,-6.5897,-6.5897,-6.5897,-6.5897,-6.5897,-6.5897,-6.5897,-6.5897,-6.5897,-6.5897,-6.5782,-6.4205,-6.3743,-6.4512,-6.2166,-6.155,-6.2974,-6.0896,-5.9973,-6.0473,-5.9165,-5.8308,-5.8242,-5.7484,-5.7022,-5.6983,-5.628,-5.5818,-5.5818,-5.5818,-5.5868,-5.5818,-5.5818,-5.578,-5.5868,-5.5742,-5.5703,-5.5703,-5.5703,-5.5703,-5.5703,-5.5703,-5.5703,-5.5703,-5.5703,-5.5703,-5.5703,-5.5703,-5.5703,-5.5703,-5.5703,-5.5703,-5.5703,-5.5703,-5.5703,-5.5703,-5.5703,-5.5829,-5.6126,-5.6753,-5.7396,-5.7791,-5.9215,-6.0512,-6.0627,-6.0781,-6.0618,-6.0608,-6.0661,-6.0584,-6.0428,-5.9901,-5.9262,-5.9644,-5.888,-5.8536,-5.8574,-5.8574,-5.9185,-5.9568,-5.9911,-6.0485,-6.1363,-6.1678,-6.2008,-7.74,-7.6515,-7.613,-7.563,-7.4784,-7.3168,-7.2437,-7.2322,-7.0975,-7.036,-7.0167,-6.986,-6.9013,-6.7821,-6.6859,-6.6205,-6.5897,-6.5897,-6.5897,-6.5897,-6.5897,-6.5897,-6.5897,-6.5897,-6.5897,-6.5897,-6.5897,-6.5897,-6.5897,-6.5897,-6.5897,-6.5897,-6.5897,-6.5897,-6.5897,-6.5897,-6.5897,-6.5897,-6.5897,-6.5897,-6.5743,-6.4705,-6.4243,-6.4397,-6.3089,-6.232,-6.2474,-6.155,-6.0973,-6.0742,-5.9665,-5.9011,-5.9011,-5.8242,-5.755,-5.7022,-5.6214,-5.5703,-5.5703,-5.6175,-5.6252,-5.5742,-5.6165,-5.628,-5.5742,-5.5703,-5.5703,-5.5703,-5.5703,-5.5703,-5.5703,-5.5703,-5.5703,-5.5703,-5.5703,-5.5703,-5.5703,-5.5703,-5.5703,-5.5703,-5.5703,-5.5703,-5.5703,-5.5703,-5.5703,-5.5703,-5.5703,-5.5868,-5.6368,-5.6791,-5.7407,-5.828,-5.9088,-5.9242,-5.9435,-5.9781,-5.9926,-6.0072,-6.0713,-6.1172,-6.0567,-6.0704,-6.0485,-5.995,-5.9453,-5.9224,-5.9529,-5.9529,-5.9873,-5.9835,-5.9936,-6.0495,-6.0654,-6.1028,-6.1438,-7.7669,-7.6361,-7.563,-7.5322,-7.5168,-7.3514,-7.2783,-7.2668,-7.1437,-7.0437,-6.9706,-6.9475,-6.8859,-6.7936,-6.6744,-6.6128,-6.5897,-6.5897,-6.5897,-6.5897,-6.5897,-6.5897,-6.5897,-6.5897,-6.5897,-6.5897,-6.5897,-6.5897,-6.5897,-6.5897,-6.5897,-6.5897,-6.5897,-6.5897,-6.5897,-6.5897,-6.5897,-6.5897,-6.5897,-6.5897,-6.582,-6.5282,-6.4936,-6.4859,-6.3666,-6.2781,-6.2447,-6.1973,-6.1447,-6.0819,-6.0165,-5.9858,-5.9819,-5.9088,-5.8127,-5.7099,-5.6406,-5.5945,-5.5703,-5.6291,-5.6483,-5.6137,-5.6483,-5.6483,-5.6126,-5.5829,-5.5703,-5.5703,-5.5703,-5.5703,-5.5703,-5.5703,-5.5703,-5.5703,-5.5703,-5.5703,-5.5703,-5.5703,-5.5703,-5.5703,-5.5703,-5.5703,-5.5703,-5.5703,-5.5703,-5.5703,-5.5703,-5.5868,-5.6445,-5.6637,-5.706,-5.8242,-5.7896,-5.8127,-5.8742,-5.9565,-5.9737,-6.0047,-6.1032,-6.177,-6.0895,-6.1225,-6.144,-6.0561,-6.037,-6.0155,-5.995,-6.0141,-5.9873,-5.9783,-5.9831,-6.0012,-6.0129,-6.0741,-6.1338,-7.803,-7.6899,-7.463,-7.3783,-7.3514,-7.1898,-7.1091,-7.1245,-7.0937,-7.0437,-6.9629,-6.8859,-6.7975,-6.7205,-6.6974,-6.659,-6.5974,-6.5897,-6.5897,-6.5897,-6.5897,-6.5897,-6.5897,-6.5897,-6.5897,-6.5897,-6.5897,-6.5897,-6.5897,-6.5897,-6.5897,-6.5897,-6.5897,-6.5897,-6.5897,-6.5897,-6.5897,-6.5897,-6.5897,-6.5897,-6.5897,-6.5859,-6.5782,-6.5551,-6.3474,-6.2627,-6.2935,-6.1704,-6.0858,-6.0781,-6.0704,-6.0704,-6.0627,-5.9896,-5.8665,-5.7291,-5.6983,-5.6599,-5.5895,-5.5895,-5.6252,-5.6714,-5.6329,-5.6165,-5.6945,-5.6214,-5.5742,-5.5703,-5.5742,-5.5703,-5.578,-5.5742,-5.5703,-5.5703,-5.5703,-5.5703,-5.5703,-5.5703,-5.5703,-5.5703,-5.5703,-5.5703,-5.5703,-5.5703,-5.5742,-5.578,-5.5742,-5.5895,-5.6088,-5.6011,-5.6203,-5.6357,-5.6549,-5.6973,-5.9858,-6.0054,-6.0174,-6.0559,-6.1107,-6.2418,-6.1712,-6.1134,-6.1172,-6.0943,-6.0179,-5.9873,-6.0064,-5.9797,-5.9081,-5.8873,-5.9033,-5.9193,-5.9701,-6.1059,-6.1769,-7.7669,-7.6399,-7.5515,-7.4784,-7.4168,-7.3053,-7.2245,-7.1706,-7.1129,-7.0437,-6.9629,-6.8783,-6.7936,-6.709,-6.6551,-6.6167,-6.5897,-6.5897,-6.5897,-6.5897,-6.5897,-6.5897,-6.5897,-6.5897,-6.5897,-6.5897,-6.5897,-6.5897,-6.5897,-6.5897,-6.5897,-6.5897,-6.5897,-6.5897,-6.5897,-6.5897,-6.5897,-6.5897,-6.5897,-6.5897,-6.5897,-6.5897,-6.5897,-6.582,-6.4474,-6.3551,-6.3308,-6.2204,-6.137,-6.0819,-6.0781,-6.0781,-6.0704,-5.9973,-5.9281,-5.8665,-5.8088,-5.7434,-5.6742,-5.7049,-5.7473,-5.7703,-5.7022,-5.7126,-5.7934,-5.6896,-5.5906,-5.6291,-5.5983,-5.5895,-5.628,-5.6049,-5.5703,-5.5703,-5.5703,-5.5742,-5.5703,-5.5703,-5.5703,-5.5703,-5.5703,-5.5703,-5.5818,-5.5703,-5.5895,-5.6406,-5.6522,-5.6742,-5.7203,-5.7357,-5.7396,-5.7857,-5.7742,-5.8127,-6.0281,-5.9657,-5.9278,-6.0048,-6.0788,-6.1294,-6.1086,-6.1287,-6.1402,-6.1096,-6.0255,-5.9797,-6.0064,-5.956,-5.8782,-5.7906,-5.8061,-5.8543,-5.9395,-6.0566,-6.1576,-7.7015,-7.6015,-7.5399,-7.4861,-7.4207,-7.3129,-7.2322,-7.1706,-7.1129,-7.0283,-6.9321,-6.8667,-6.7782,-6.6782,-6.6128,-6.5897,-6.5897,-6.5897,-6.5897,-6.5897,-6.5897,-6.5897,-6.5897,-6.5897,-6.5897,-6.5897,-6.5897,-6.5897,-6.5897,-6.5897,-6.5897,-6.5897,-6.5897,-6.5897,-6.5897,-6.5897,-6.5897,-6.5897,-6.5897,-6.5897,-6.5897,-6.5897,-6.5743,-6.5436,-6.4897,-6.4205,-6.3308,-6.2512,-6.1716,-6.0935,-6.0781,-6.0781,-6.0742,-6.0242,-5.9781,-5.9473,-5.8973,-5.8434,-5.7973,-5.8357,-5.8934,-5.9396,-5.8473,-5.8434,-5.955,-5.7588,-5.6637,-5.6714,-5.6522,-5.6406,-5.678,-5.6703,-5.6434,-5.6203,-5.6137,-5.6137,-5.6137,-5.6395,-5.6549,-5.6626,-5.6665,-5.6588,-5.6549,-5.6549,-5.6857,-5.7357,-5.7396,-5.7703,-5.8165,-5.8308,-5.8434,-5.8934,-5.8511,-5.8781,-5.9873,-5.9506,-5.9458,-6.015,-6.0977,-6.1152,-6.1048,-6.1339,-6.1478,-6.1134,-6.0714,-6.0217,-5.9717,-5.9273,-5.8333,-5.718,-5.71,-5.7493,-5.8633,-5.9943,-6.1052,-7.6053,-7.5784,-7.4245,-7.3707,-7.3399,-7.1937,-7.1014,-7.1014,-7.0937,-7.0052,-6.8821,-6.85,-6.7705,-6.6359,-6.6244,-6.6051,-6.6128,-6.6167,-6.6051,-6.5897,-6.5897,-6.5897,-6.5897,-6.5897,-6.5897,-6.5897,-6.5897,-6.5897,-6.5897,-6.5897,-6.5897,-6.5897,-6.5897,-6.5897,-6.5897,-6.5897,-6.5897,-6.5897,-6.5897,-6.5897,-6.5897,-6.5897,-6.5551,-6.4897,-6.4743,-6.4282,-6.3346,-6.2512,-6.1678,-6.0935,-6.0781,-6.0781,-6.0781,-6.0704,-6.0396,-5.9742,-5.955,-5.9511,-5.9473,-5.9511,-6.0242,-6.1243,-6.0396,-5.9858,-6.055,-5.8781,-5.733,-5.7445,-5.7253,-5.7137,-5.7291,-5.7703,-5.778,-5.7176,-5.7022,-5.7022,-5.7126,-5.7703,-5.8242,-5.8127,-5.8011,-5.8231,-5.8231,-5.8011,-5.8011,-5.8204,-5.828,-5.8396,-5.8704,-5.8858,-5.8588,-5.8588,-5.9127,-6.0012,-5.9773,-5.9521,-6.0009,-6.0559,-6.1409,-6.1898,-6.1263,-6.1249,-6.1593,-6.1363,-6.079,-6.0217,-5.8668,-5.8111,-5.696,-5.6064,-5.6262,-5.6701,-5.7978,-5.9333,-6.0646,-7.5955,-7.5861,-7.4784,-7.4014,-7.3399,-7.2245,-7.1475,-7.0937,-7.0898,-7.0283,-6.9436,-6.9321,-6.8667,-6.7821,-6.7628,-6.7628,-6.7628,-6.759,-6.7013,-6.609,-6.5936,-6.5936,-6.5936,-6.5897,-6.5897,-6.5897,-6.5897,-6.5897,-6.5897,-6.5897,-6.5897,-6.5897,-6.5897,-6.5897,-6.5897,-6.5897,-6.5897,-6.5897,-6.5897,-6.5897,-6.5897,-6.5897,-6.5743,-6.5551,-6.5474,-6.482,-6.3385,-6.2512,-6.1716,-6.0858,-6.0781,-6.0781,-6.0781,-6.0781,-6.0666,-6.0473,-6.0396,-6.0396,-6.0396,-6.0473,-6.1166,-6.2243,-6.1396,-6.155,-6.282,-6.1012,-5.9588,-5.9473,-5.9088,-5.8704,-5.8704,-5.8434,-5.828,-5.7934,-5.7896,-5.7896,-5.7973,-5.8204,-5.8269,-5.8269,-5.8269,-5.8269,-5.8319,-5.8357,-5.8627,-5.9088,-5.9127,-5.9281,-5.9858,-6.0319,-6.0589,-6.0204,-6.0858,-6.1166,-6.1053,-6.0992,-6.1224,-6.1082,-6.1486,-6.1745,-6.1249,-6.1019,-6.1363,-6.1363,-6.079,-5.9793,-5.8244,-5.6958,-5.5921,-5.5503,-5.5726,-5.6482,-5.7503,-5.8818,-6.028,-7.5733,-7.5394,-7.4577,-7.3783,-7.2937,-7.2091,-7.1437,-7.0937,-7.0898,-7.0475,-6.9821,-6.9706,-6.9206,-6.8513,-6.8398,-6.8398,-6.8398,-6.8398,-6.7821,-6.6936,-6.6821,-6.6821,-6.6821,-6.6821,-6.6628,-6.6397,-6.6359,-6.6359,-6.632,-6.6051,-6.5897,-6.5897,-6.5897,-6.5897,-6.5897,-6.5897,-6.5897,-6.5897,-6.5897,-6.5897,-6.5897,-6.5897,-6.5743,-6.5513,-6.5743,-6.482,-6.3051,-6.2589,-6.2012,-6.105,-6.0781,-6.0781,-6.0781,-6.0781,-6.0781,-6.0781,-6.0858,-6.105,-6.1589,-6.1781,-6.2474,-6.3628,-6.3012,-6.282,-6.382,-6.2281,-6.0858,-6.0704,-5.9973,-5.9511,-5.9473,-5.9781,-5.955,-5.9242,-5.8934,-5.8934,-5.9088,-5.9204,-5.9242,-5.9319,-5.9319,-5.9242,-5.9242,-5.9242,-5.9396,-5.9896,-5.9973,-6.005,-6.0819,-6.1473,-6.1473,-6.1627,-6.2127,-6.2358,-6.25,-6.2541,-6.2553,-6.1989,-6.1423,-6.1215,-6.0752,-6.0637,-6.079,-6.0714,-6.0293,-5.9345,-5.7873,-5.655,-5.5501,-5.5437,-5.5286,-5.6181,-5.7275,-5.8814,-6.0333,-7.538,-7.4527,-7.3817,-7.3038,-7.2206,-7.136,-7.0975,-7.0898,-7.0898,-7.0514,-6.9937,-6.9898,-6.9436,-6.8731,-6.8821,-6.8821,-6.859,-6.8744,-6.8783,-6.859,-6.8513,-6.8436,-6.8167,-6.809,-6.7744,-6.7282,-6.7051,-6.7051,-6.691,-6.6244,-6.5897,-6.5897,-6.5897,-6.5897,-6.5897,-6.5897,-6.5897,-6.5897,-6.5897,-6.5897,-6.5897,-6.5897,-6.559,-6.4897,-6.5474,-6.4782,-6.2858,-6.2627,-6.2243,-6.1012,-6.0781,-6.0781,-6.0781,-6.0781,-6.0781,-6.0781,-6.0781,-6.1666,-6.282,-6.3012,-6.382,-6.5282,-6.4897,-6.4666,-6.4474,-6.3012,-6.1666,-6.1435,-6.0704,-6.0089,-6.0319,-6.0896,-6.137,-6.0781,-5.9973,-5.9935,-6.0589,-6.0666,-6.0512,-6.0589,-6.0742,-6.0742,-6.055,-6.055,-6.0627,-6.0666,-6.0666,-6.0704,-6.0935,-6.1512,-6.2012,-6.2474,-6.2974,-6.3474,-6.3577,-6.3745,-6.3729,-6.3037,-6.224,-6.152,-6.0867,-6.0637,-6.0446,-6.0293,-5.9897,-5.8859,-5.7648,-5.6323,-5.5223,-5.4712,-5.508,-5.5956,-5.7215,-5.8809,-6.0258,-7.5248,-7.4512,-7.3682,-7.2919,-7.2129,-7.1283,-7.0898,-7.0898,-7.0898,-7.0744,-7.0552,-7.0591,-7.0398,-7.0244,-7.0206,-7.0244,-7.0129,-7.0167,-7.0244,-7.0244,-7.0244,-6.9475,-6.8629,-6.8436,-6.8308,-6.8013,-6.7475,-6.709,-6.7026,-6.632,-6.5897,-6.5897,-6.5897,-6.5897,-6.5897,-6.5897,-6.5897,-6.5897,-6.5897,-6.5897,-6.5897,-6.5897,-6.582,-6.5628,-6.5782,-6.4897,-6.3051,-6.1973,-6.132,-6.0896,-6.0781,-6.0781,-6.0781,-6.0781,-6.0781,-6.0781,-6.0858,-6.1512,-6.2897,-6.3308,-6.4128,-6.5628,-6.5628,-6.5551,-6.5551,-6.4974,-6.4243,-6.3782,-6.332,-6.2858,-6.2397,-6.2127,-6.1743,-6.0973,-6.0589,-6.0473,-6.0704,-6.0781,-6.0781,-6.0781,-6.0781,-6.0781,-6.0781,-6.0781,-6.0781,-6.0781,-6.0781,-6.0781,-6.1012,-6.1858,-6.2551,-6.2947,-6.3435,-6.4166,-6.4629,-6.487,-6.4726,-6.4123,-6.3326,-6.2424,-6.1669,-6.1019,-6.079,-6.0575,-5.9908,-5.8997,-5.7498,-5.6078,-5.5178,-5.44,-5.5081,-5.6025,-5.7344,-5.8809,-6.0147,-7.4686,-7.3929,-7.3115,-7.2328,-7.1629,-7.1091,-7.0898,-7.0898,-7.0898,-7.0898,-7.0898,-7.0898,-7.0898,-7.0898,-7.0898,-7.0898,-7.0898,-7.0898,-7.086,-7.086,-7.0821,-7.0129,-6.9283,-6.9206,-6.9283,-6.8859,-6.8052,-6.7705,-6.7436,-6.6474,-6.5936,-6.5897,-6.5897,-6.5897,-6.5897,-6.5897,-6.5897,-6.5897,-6.5897,-6.5897,-6.5897,-6.5897,-6.5897,-6.5897,-6.5859,-6.5089,-6.3397,-6.205,-6.1204,-6.0896,-6.0781,-6.0781,-6.0781,-6.0781,-6.0781,-6.0781,-6.0781,-6.1512,-6.2897,-6.3308,-6.4128,-6.5474,-6.5897,-6.5897,-6.5782,-6.5628,-6.5051,-6.4589,-6.432,-6.382,-6.332,-6.2589,-6.2089,-6.1858,-6.1243,-6.0819,-6.0781,-6.0781,-6.0781,-6.0781,-6.0781,-6.0781,-6.0781,-6.0781,-6.0781,-6.0781,-6.0781,-6.0781,-6.0935,-6.205,-6.2858,-6.3089,-6.3743,-6.4474,-6.4898,-6.5114,-6.5019,-6.4531,-6.358,-6.283,-6.2471,-6.1631,-6.1172,-6.0776,-6.0008,-5.903,-5.759,-5.6317,-5.5454,-5.5116,-5.5546,-5.6452,-5.7918,-5.9441,-6.0667,-7.391,-7.3162,-7.2394,-7.1636,-7.1,-7.0885,-7.0885,-7.0898,-7.0898,-7.0898,-7.0898,-7.0898,-7.0898,-7.0898,-7.0898,-7.0898,-7.0898,-7.0898,-7.0898,-7.0898,-7.086,-7.0437,-6.9975,-7.0321,-7.0283,-6.9744,-6.8936,-6.8475,-6.7975,-6.6744,-6.6128,-6.609,-6.6013,-6.5974,-6.6051,-6.5974,-6.5897,-6.5897,-6.5897,-6.5897,-6.5897,-6.5897,-6.5897,-6.5859,-6.5628,-6.5013,-6.3666,-6.2551,-6.1793,-6.1127,-6.0935,-6.0819,-6.0781,-6.0781,-6.0781,-6.0781,-6.0858,-6.1512,-6.282,-6.3089,-6.3782,-6.5089,-6.5436,-6.5628,-6.532,-6.482,-6.4397,-6.432,-6.382,-6.3666,-6.3512,-6.282,-6.2704,-6.2781,-6.182,-6.1089,-6.1012,-6.0896,-6.0781,-6.0781,-6.0781,-6.0781,-6.0781,-6.0781,-6.0781,-6.0781,-6.0781,-6.0781,-6.1127,-6.205,-6.2551,-6.2704,-6.3589,-6.4743,-6.5039,-6.5268,-6.5071,-6.4709,-6.3552,-6.2853,-6.3159,-6.251,-6.1784,-6.1082,-6.0094,-5.9086,-5.7977,-5.6835,-5.5948,-5.6089,-5.6682,-5.7698,-5.8958,-6.0518,-6.1893,-7.3861,-7.3146,-7.2233,-7.1481,-7.0948,-7.0843,-7.0843,-7.0898,-7.0898,-7.0898,-7.0898,-7.0898,-7.0898,-7.0898,-7.0898,-7.0898,-7.0898,-7.0898,-7.0898,-7.0898,-7.0898,-7.0821,-7.0629,-7.0821,-7.0783,-7.0398,-6.9783,-6.909,-6.8321,-6.7436,-6.6821,-6.6782,-6.6244,-6.6205,-6.6667,-6.6167,-6.5897,-6.5897,-6.5897,-6.5897,-6.5897,-6.5897,-6.5897,-6.582,-6.532,-6.482,-6.4166,-6.2858,-6.2358,-6.2358,-6.1627,-6.1012,-6.0896,-6.0819,-6.0781,-6.0781,-6.0819,-6.1281,-6.2139,-6.2474,-6.2781,-6.382,-6.4089,-6.3858,-6.3858,-6.382,-6.3628,-6.3705,-6.3974,-6.4205,-6.4282,-6.4166,-6.3782,-6.3281,-6.2512,-6.2012,-6.2358,-6.1589,-6.0973,-6.0858,-6.0858,-6.0781,-6.0819,-6.0781,-6.0781,-6.0781,-6.0781,-6.0781,-6.132,-6.2012,-6.232,-6.2512,-6.382,-6.4936,-6.509,-6.5281,-6.5273,-6.4819,-6.37,-6.3159,-6.3427,-6.2571,-6.154,-6.0771,-6.005,-5.9049,-5.8164,-5.7582,-5.6722,-5.7285,-5.7931,-5.9057,-6.0258,-6.1744,-6.2599,-7.3877,-7.3146,-7.2272,-7.1505,-7.0906,-7.0801,-7.0815,-7.0857,-7.0885,-7.0898,-7.0898,-7.0898,-7.0898,-7.0898,-7.0898,-7.0898,-7.0898,-7.0898,-7.0667,-7.0514,-7.0629,-7.0706,-7.0475,-7.0706,-7.0898,-7.0783,-7.0052,-6.9436,-6.8821,-6.7859,-6.7282,-6.7552,-6.6513,-6.6359,-6.6859,-6.6282,-6.5936,-6.5897,-6.5897,-6.5897,-6.5897,-6.5897,-6.5897,-6.5859,-6.5436,-6.5051,-6.4512,-6.382,-6.3358,-6.3089,-6.2435,-6.1781,-6.137,-6.1012,-6.0819,-6.0781,-6.0819,-6.1204,-6.187,-6.2139,-6.2474,-6.3205,-6.3269,-6.3308,-6.3308,-6.3308,-6.3308,-6.3462,-6.4051,-6.4705,-6.5128,-6.4705,-6.432,-6.3935,-6.3166,-6.2743,-6.2589,-6.1935,-6.1396,-6.1396,-6.1473,-6.1166,-6.1012,-6.0819,-6.0781,-6.0781,-6.0781,-6.0819,-6.1012,-6.1704,-6.2204,-6.2781,-6.4166,-6.5038,-6.5141,-6.5319,-6.5475,-6.4867,-6.3938,-6.3732,-6.3923,-6.2533,-6.0929,-6.0613,-6.0433,-5.9359,-5.8488,-5.7971,-5.7922,-5.8387,-5.9123,-6.0322,-6.141,-6.245,-6.3044,-7.3811,-7.3092,-7.2172,-7.139,-7.0863,-7.0811,-7.0787,-7.0829,-7.0871,-7.0898,-7.0898,-7.0898,-7.0898,-7.0898,-7.0898,-7.0898,-7.086,-7.0629,-7.0283,-6.9975,-7.036,-7.0244,-7.009,-7.0514,-7.0898,-7.0821,-7.0321,-6.9898,-6.9283,-6.8359,-6.7975,-6.8038,-6.6885,-6.6577,-6.6821,-6.6346,-6.5885,-6.5897,-6.5897,-6.5897,-6.5897,-6.5897,-6.5897,-6.5859,-6.582,-6.5513,-6.4974,-6.4551,-6.4282,-6.3743,-6.3474,-6.3012,-6.2474,-6.1704,-6.1166,-6.1243,-6.1396,-6.1627,-6.1985,-6.2139,-6.2358,-6.2974,-6.2858,-6.2858,-6.282,-6.2704,-6.2666,-6.3089,-6.3589,-6.4705,-6.5628,-6.5359,-6.4936,-6.4628,-6.4012,-6.3281,-6.282,-6.2601,-6.2447,-6.1755,-6.1716,-6.1562,-6.1089,-6.0781,-6.0781,-6.0781,-6.0781,-6.0858,-6.105,-6.1512,-6.2127,-6.2858,-6.4128,-6.5103,-6.5307,-6.5306,-6.5475,-6.48,-6.3962,-6.3847,-6.3847,-6.251,-6.1206,-6.1325,-6.0919,-5.9815,-5.9218,-5.9102,-5.9194,-5.9525,-6.0278,-6.1416,-6.2301,-6.3119,-6.3416,-7.3226,-7.2974,-7.1481,-7.0808,-7.0811,-7.0729,-7.0772,-7.0871,-7.0885,-7.0898,-7.0898,-7.0898,-7.0898,-7.0898,-7.0898,-7.0898,-7.0783,-7.036,-6.986,-6.9667,-6.9898,-6.9783,-6.9783,-7.0475,-7.086,-7.0898,-7.0667,-7.0321,-6.986,-6.9398,-6.8821,-6.8308,-6.7307,-6.6961,-6.6795,-6.6307,-6.5859,-6.5885,-6.5897,-6.5897,-6.5897,-6.5897,-6.5897,-6.5897,-6.5897,-6.5782,-6.5551,-6.5013,-6.4859,-6.5243,-6.4089,-6.382,-6.382,-6.332,-6.2897,-6.2666,-6.2627,-6.2512,-6.2281,-6.2139,-6.1793,-6.1435,-6.1396,-6.1358,-6.132,-6.1358,-6.1627,-6.2012,-6.2897,-6.4166,-6.5705,-6.5667,-6.5667,-6.5436,-6.4974,-6.4512,-6.4705,-6.4359,-6.3128,-6.1781,-6.1793,-6.1793,-6.1204,-6.0781,-6.0781,-6.0781,-6.0781,-6.0781,-6.0896,-6.155,-6.232,-6.3128,-6.4012,-6.4808,-6.5419,-6.543,-6.5398,-6.4609,-6.3847,-6.3312,-6.3083,-6.2242,-6.1673,-6.1453,-6.1066,-6.0144,-5.9885,-5.9984,-6.0556,-6.0974,-6.1704,-6.245,-6.2933,-6.3416,-6.3453,-7.2892,-7.2346,-7.1628,-7.1076,-7.0791,-7.0699,-7.0743,-7.0843,-7.0885,-7.0898,-7.0898,-7.0898,-7.0898,-7.0898,-7.0898,-7.0898,-7.0667,-7.009,-6.9475,-6.9206,-6.9436,-6.9398,-6.9321,-7.0283,-7.0783,-7.0898,-7.086,-7.0744,-7.0283,-6.986,-6.9475,-6.8885,-6.7781,-6.7089,-6.6897,-6.6282,-6.5923,-6.5859,-6.5872,-6.5897,-6.5897,-6.5897,-6.5897,-6.5897,-6.5897,-6.5897,-6.582,-6.559,-6.5474,-6.5628,-6.5089,-6.4974,-6.4974,-6.482,-6.4205,-6.3551,-6.3346,-6.3205,-6.2666,-6.2397,-6.1908,-6.1562,-6.1127,-6.0819,-6.0781,-6.0896,-6.1127,-6.205,-6.2551,-6.4012,-6.5705,-6.5859,-6.5897,-6.582,-6.5474,-6.5282,-6.5243,-6.5243,-6.3782,-6.2012,-6.232,-6.2127,-6.105,-6.0781,-6.0781,-6.0781,-6.0781,-6.0819,-6.0858,-6.155,-6.2397,-6.3423,-6.4257,-6.4987,-6.5507,-6.5503,-6.5078,-6.4288,-6.3441,-6.293,-6.2151,-6.1273,-6.1164,-6.1191,-6.0665,-6.0248,-6.0416,-6.0561,-6.1446,-6.2252,-6.2665,-6.3044,-6.3342,-6.3602,-6.3602,-7.2502,-7.1794,-7.1751,-7.1321,-7.0784,-7.0723,-7.0729,-7.0787,-7.0871,-7.0885,-7.0871,-7.0885,-7.0898,-7.0898,-7.086,-7.0821,-7.0577,-6.9769,-6.8923,-6.841,-6.8962,-6.9013,-6.9052,-6.9898,-7.0898,-7.0898,-7.0898,-7.0898,-7.0706,-7.0321,-6.986,-6.9038,-6.7846,-6.7051,-6.6665,-6.6089,-6.5858,-6.5833,-6.5846,-6.5885,-6.5897,-6.5897,-6.5897,-6.5897,-6.5897,-6.5897,-6.5859,-6.582,-6.5782,-6.5859,-6.5782,-6.582,-6.5859,-6.5897,-6.5243,-6.4128,-6.3858,-6.3743,-6.3435,-6.3128,-6.2743,-6.2358,-6.155,-6.1166,-6.1012,-6.1127,-6.1435,-6.2858,-6.3346,-6.4012,-6.5513,-6.5897,-6.5897,-6.5897,-6.582,-6.5705,-6.5397,-6.5128,-6.4551,-6.3551,-6.3358,-6.2397,-6.1204,-6.0781,-6.0781,-6.0781,-6.0781,-6.1166,-6.1243,-6.1639,-6.2474,-6.3641,-6.4578,-6.5268,-6.5622,-6.5513,-6.4843,-6.38,-6.2815,-6.2051,-6.1158,-6.0213,-6.0479,-6.0882,-6.0694,-6.0408,-6.0698,-6.1175,-6.1852,-6.2529,-6.3163,-6.349,-6.3565,-6.3579,-6.3579,-7.1918,-7.1675,-7.1107,-7.0799,-7.0723,-7.0723,-7.0729,-7.0801,-7.0871,-7.0857,-7.0815,-7.0871,-7.0898,-7.086,-7.0821,-7.0396,-6.9676,-6.8871,-6.8141,-6.7562,-6.8256,-6.8615,-6.8654,-7.0129,-7.0692,-7.0808,-7.086,-7.0898,-7.0769,-7.0615,-6.9898,-6.8808,-6.8268,-6.7459,-6.6112,-6.5843,-6.5701,-6.578,-6.5807,-6.5846,-6.5885,-6.5897,-6.5897,-6.5897,-6.5897,-6.5897,-6.5897,-6.5897,-6.5897,-6.5897,-6.5897,-6.5897,-6.5897,-6.5897,-6.5859,-6.5667,-6.5513,-6.5243,-6.4589,-6.4128,-6.3782,-6.3166,-6.2358,-6.2024,-6.1601,-6.1281,-6.1627,-6.3089,-6.3308,-6.4089,-6.5436,-6.582,-6.5859,-6.582,-6.5743,-6.5743,-6.559,-6.5128,-6.4551,-6.3743,-6.3128,-6.2243,-6.1204,-6.0973,-6.0781,-6.0781,-6.0896,-6.1243,-6.1793,-6.2255,-6.2755,-6.3923,-6.4782,-6.5471,-6.5441,-6.5384,-6.4623,-6.3465,-6.2319,-6.1363,-6.0876,-6.0361,-6.0326,-6.0589,-6.0533,-6.1093,-6.1854,-6.2305,-6.2407,-6.2768,-6.3364,-6.3565,-6.3602,-6.3579,-6.3557,-7.0646,-7.097,-7.0762,-7.0723,-7.0723,-7.0767,-7.0796,-7.0801,-7.0871,-7.0857,-7.0815,-7.0871,-7.0898,-7.0821,-7.0475,-6.9973,-6.9355,-6.8243,-6.7474,-6.728,-6.7858,-6.8359,-6.8821,-6.9975,-7.0731,-7.0434,-7.0563,-7.0473,-7.0473,-7.0486,-7.0038,-6.8575,-6.8268,-6.7393,-6.5879,-6.5726,-6.5688,-6.5715,-6.5807,-6.5872,-6.5897,-6.5897,-6.5897,-6.5897,-6.5897,-6.5897,-6.5897,-6.5897,-6.5897,-6.5897,-6.5897,-6.5897,-6.5897,-6.5897,-6.5897,-6.5859,-6.5859,-6.5667,-6.532,-6.4897,-6.4474,-6.3858,-6.2897,-6.187,-6.155,-6.1562,-6.1897,-6.3154,-6.3269,-6.4128,-6.5243,-6.5397,-6.559,-6.559,-6.5436,-6.5243,-6.5166,-6.5128,-6.4589,-6.3705,-6.2935,-6.2243,-6.1627,-6.132,-6.1089,-6.0973,-6.1089,-6.1435,-6.2243,-6.3166,-6.3666,-6.432,-6.5,-6.5583,-6.5336,-6.5087,-6.4288,-6.3197,-6.1784,-6.1058,-6.1053,-6.0836,-6.0909,-6.1241,-6.1633,-6.2295,-6.3056,-6.2891,-6.2566,-6.3022,-6.3602,-6.3602,-6.3602,-6.3579,-6.3557,-6.9604,-7.0123,-7.0302,-7.0493,-7.0684,-7.0782,-7.0758,-7.0772,-7.0843,-7.0829,-7.0801,-7.0857,-7.0783,-7.0514,-6.9975,-6.9434,-6.8803,-6.7641,-6.6999,-6.7101,-6.7589,-6.8115,-6.8744,-6.9808,-7.0371,-6.9893,-7.0602,-7.0602,-7.0319,-7.014,-6.9717,-6.8369,-6.8025,-6.7099,-6.603,-6.566,-6.5688,-6.5622,-6.5768,-6.5872,-6.5897,-6.5897,-6.5897,-6.5897,-6.5897,-6.5897,-6.5897,-6.5897,-6.5897,-6.5897,-6.5897,-6.5897,-6.5897,-6.5897,-6.5897,-6.5897,-6.5897,-6.5859,-6.5667,-6.5359,-6.4974,-6.4397,-6.3397,-6.2089,-6.1089,-6.1512,-6.232,-6.3166,-6.2974,-6.3897,-6.4936,-6.4936,-6.482,-6.4897,-6.482,-6.4589,-6.4436,-6.4628,-6.4512,-6.3782,-6.3128,-6.2781,-6.2204,-6.1781,-6.1473,-6.1216,-6.1331,-6.1678,-6.2704,-6.3935,-6.4512,-6.5013,-6.5179,-6.566,-6.5412,-6.4896,-6.4058,-6.3159,-6.1784,-6.1478,-6.1946,-6.1858,-6.1771,-6.2173,-6.2805,-6.2966,-6.3456,-6.3035,-6.2709,-6.3201,-6.3602,-6.3602,-6.3579,-6.3579,-6.3511,-6.9244,-6.9398,-6.9436,-6.9902,-7.0631,-7.0723,-7.0684,-7.0584,-7.0734,-7.0695,-7.0628,-7.0752,-7.0398,-6.9898,-6.9475,-6.8627,-6.7266,-6.7141,-6.6615,-6.6448,-6.6782,-6.7615,-6.8385,-6.9192,-7.0038,-7.0409,-7.0602,-7.0654,-7.05,-6.9731,-6.9231,-6.8462,-6.7705,-6.6652,-6.5904,-6.5646,-6.5674,-6.566,-6.5742,-6.5846,-6.5885,-6.5897,-6.5897,-6.5897,-6.5897,-6.5897,-6.5897,-6.5897,-6.5897,-6.5897,-6.5897,-6.5897,-6.5897,-6.5897,-6.5897,-6.5897,-6.5897,-6.5897,-6.5782,-6.5743,-6.5743,-6.5282,-6.4243,-6.2512,-6.1012,-6.0858,-6.1704,-6.2897,-6.2666,-6.3205,-6.4166,-6.4589,-6.4282,-6.4589,-6.4666,-6.4436,-6.4359,-6.4474,-6.432,-6.3743,-6.3358,-6.3089,-6.2974,-6.2589,-6.2012,-6.1704,-6.2358,-6.2743,-6.3666,-6.4743,-6.5282,-6.5641,-6.5536,-6.5608,-6.558,-6.5011,-6.4297,-6.3732,-6.2701,-6.3006,-6.3656,-6.3366,-6.2842,-6.3632,-6.4236,-6.4046,-6.3712,-6.3311,-6.3133,-6.3401,-6.3602,-6.3602,-6.3579,-6.3557,-6.3465,-6.8747,-6.9245,-6.8793,-6.8808,-6.9191,-7.0292,-7.0445,-6.9956,-6.999,-7.0032,-7.0123,-7.0102,-7.0014,-6.9513,-6.8436,-6.7781,-6.6973,-6.6487,-6.6154,-6.623,-6.6705,-6.7218,-6.7858,-6.8331,-6.8971,-6.9418,-6.9778,-6.9715,-6.9177,-6.914,-6.8436,-6.7705,-6.7205,-6.6537,-6.5918,-6.5608,-6.566,-6.5701,-6.578,-6.5833,-6.5885,-6.5897,-6.5897,-6.5897,-6.5897,-6.5897,-6.5897,-6.5897,-6.5897,-6.5897,-6.5897,-6.5897,-6.5897,-6.5897,-6.5897,-6.5897,-6.5897,-6.5897,-6.5897,-6.5782,-6.5474,-6.4474,-6.3974,-6.3166,-6.1204,-6.1243,-6.1743,-6.2281,-6.237,-6.2858,-6.4205,-6.4205,-6.3935,-6.4512,-6.4666,-6.4359,-6.4282,-6.4397,-6.4474,-6.4051,-6.3782,-6.3551,-6.3474,-6.3435,-6.2781,-6.2281,-6.3089,-6.3858,-6.4666,-6.5282,-6.5667,-6.5833,-6.5728,-6.5622,-6.5594,-6.515,-6.4626,-6.4114,-6.3618,-6.4214,-6.4719,-6.4524,-6.4305,-6.5068,-6.5362,-6.4844,-6.4308,-6.3676,-6.3498,-6.3565,-6.3602,-6.3602,-6.3579,-6.3631,-6.3479,-6.8342,-6.8824,-6.8059,-6.7867,-6.828,-6.9711,-6.9855,-6.915,-6.9078,-6.9393,-6.9706,-6.9706,-6.9513,-6.8936,-6.7859,-6.6923,-6.6576,-6.6179,-6.5936,-6.6051,-6.6372,-6.6666,-6.7024,-6.7664,-6.8471,-6.8517,-6.9365,-6.9676,-6.8998,-6.8564,-6.7975,-6.7359,-6.6821,-6.6204,-6.5868,-6.5622,-6.5674,-6.578,-6.5767,-6.582,-6.5885,-6.5872,-6.5885,-6.5897,-6.5897,-6.5897,-6.5897,-6.5897,-6.5897,-6.5897,-6.5897,-6.5897,-6.5897,-6.5897,-6.5897,-6.5897,-6.5897,-6.5897,-6.5897,-6.5743,-6.5205,-6.432,-6.432,-6.3243,-6.205,-6.1743,-6.2101,-6.2101,-6.2178,-6.2704,-6.4166,-6.3974,-6.382,-6.432,-6.4628,-6.4474,-6.4243,-6.4243,-6.4436,-6.4474,-6.4359,-6.4436,-6.4051,-6.4051,-6.382,-6.3474,-6.4166,-6.4743,-6.5089,-6.5551,-6.5743,-6.5808,-6.5728,-6.5635,-6.5594,-6.525,-6.4955,-6.4879,-6.4596,-6.5085,-6.541,-6.5314,-6.5671,-6.6481,-6.6408,-6.5603,-6.4771,-6.3989,-6.3721,-6.3602,-6.375,-6.401,-6.4099,-6.4151,-6.3725,-6.7959,-6.8035,-6.7217,-6.7331,-6.7982,-6.8939,-6.8923,-6.8306,-6.8321,-6.8775,-6.9385,-6.9423,-6.9038,-6.8308,-6.7308,-6.6628,-6.6154,-6.5974,-6.5897,-6.5974,-6.6038,-6.5974,-6.6461,-6.7217,-6.8024,-6.8663,-6.9369,-6.9781,-6.9385,-6.8692,-6.7936,-6.7205,-6.6628,-6.6103,-6.5832,-6.5674,-6.5688,-6.578,-6.5688,-6.5755,-6.5859,-6.5846,-6.5859,-6.5885,-6.5897,-6.5897,-6.5897,-6.5897,-6.5897,-6.5897,-6.5897,-6.5897,-6.5897,-6.5897,-6.5897,-6.5897,-6.5897,-6.5897,-6.5897,-6.5897,-6.5359,-6.4589,-6.4512,-6.3743,-6.2512,-6.2178,-6.2255,-6.2397,-6.2332,-6.2627,-6.3358,-6.4012,-6.4051,-6.4359,-6.4705,-6.482,-6.4628,-6.4551,-6.4859,-6.5013,-6.5359,-6.5551,-6.4974,-6.4628,-6.4628,-6.4782,-6.5397,-6.5667,-6.5667,-6.5743,-6.5859,-6.5821,-6.5742,-6.5635,-6.558,-6.5465,-6.5314,-6.5299,-6.5436,-6.5718,-6.626,-6.6532,-6.7052,-6.7816,-6.7075,-6.5904,-6.5046,-6.4227,-6.4145,-6.4159,-6.4382,-6.4605,-6.4716,-6.473,-6.4452,-6.7148,-6.7141,-6.6873,-6.6567,-6.6567,-6.789,-6.808,-6.7539,-6.7969,-6.8177,-6.796,-6.7948,-6.7871,-6.7281,-6.6756,-6.6167,-6.5974,-6.5897,-6.5897,-6.5897,-6.5897,-6.5859,-6.614,-6.6512,-6.7357,-6.8188,-6.9023,-6.9256,-6.8783,-6.8475,-6.7936,-6.7167,-6.6744,-6.6385,-6.6,-6.5807,-6.5793,-6.5846,-6.5807,-6.5807,-6.5885,-6.5872,-6.5872,-6.5897,-6.5897,-6.5897,-6.5897,-6.5897,-6.5897,-6.5897,-6.5897,-6.5897,-6.5897,-6.5897,-6.5897,-6.5897,-6.5897,-6.5897,-6.5897,-6.582,-6.5513,-6.4974,-6.4589,-6.4166,-6.3089,-6.2897,-6.2897,-6.2897,-6.2858,-6.332,-6.4089,-6.4359,-6.4589,-6.5205,-6.5513,-6.5513,-6.5397,-6.5436,-6.5551,-6.559,-6.582,-6.582,-6.5474,-6.5205,-6.5166,-6.5243,-6.5667,-6.5782,-6.5782,-6.582,-6.5897,-6.5859,-6.5755,-6.5688,-6.5566,-6.545,-6.5429,-6.5375,-6.5612,-6.5985,-6.6569,-6.7085,-6.7788,-6.8207,-6.7155,-6.6135,-6.5225,-6.4524,-6.4702,-6.4828,-6.5125,-6.5385,-6.5608,-6.5622,-6.5538,-6.6713,-6.6674,-6.6369,-6.5964,-6.5688,-6.7049,-6.7199,-6.6776,-6.7499,-6.7589,-6.7126,-6.7076,-6.7049,-6.6792,-6.6256,-6.5859,-6.5872,-6.5897,-6.5897,-6.5897,-6.5897,-6.5628,-6.5551,-6.6012,-6.6986,-6.7779,-6.8216,-6.8396,-6.8513,-6.8436,-6.8129,-6.7628,-6.7013,-6.6551,-6.6231,-6.6128,-6.5846,-6.5872,-6.5833,-6.582,-6.5872,-6.5885,-6.5872,-6.5897,-6.5897,-6.5897,-6.5897,-6.5897,-6.5885,-6.5885,-6.5885,-6.5885,-6.5885,-6.5885,-6.5897,-6.5897,-6.5897,-6.5897,-6.5897,-6.5897,-6.559,-6.5205,-6.5051,-6.4628,-6.3974,-6.3782,-6.3512,-6.3435,-6.3589,-6.4012,-6.4512,-6.4705,-6.5205,-6.5859,-6.5859,-6.582,-6.5782,-6.5782,-6.5782,-6.5859,-6.5897,-6.5897,-6.5897,-6.582,-6.5705,-6.5782,-6.5897,-6.5897,-6.5897,-6.5897,-6.5897,-6.5859,-6.5755,-6.5674,-6.5552,-6.5503,-6.5444,-6.5413,-6.5635,-6.5932,-6.6235,-6.6633,-6.7597,-6.8199,-6.6768,-6.5642,-6.5165,-6.4799,-6.4939,-6.5385,-6.5905,-6.6202,-6.6462,-6.6452,-6.6405,-6.6674,-6.6522,-6.5757,-6.5459,-6.5647,-6.6427,-6.6437,-6.5909,-6.6679,-6.7012,-6.6946,-6.6844,-6.6778,-6.6671,-6.6074,-6.5845,-6.582,-6.5872,-6.5897,-6.5897,-6.5897,-6.5398,-6.55,-6.6128,-6.6653,-6.7178,-6.7639,-6.7935,-6.8231,-6.8398,-6.8359,-6.8052,-6.7128,-6.6821,-6.6705,-6.6282,-6.5962,-6.5885,-6.5859,-6.5859,-6.5885,-6.5859,-6.5859,-6.5885,-6.5897,-6.5897,-6.5885,-6.5885,-6.5846,-6.5833,-6.5846,-6.5846,-6.5846,-6.5859,-6.5885,-6.5897,-6.5897,-6.5897,-6.5897,-6.5897,-6.5859,-6.5628,-6.5743,-6.532,-6.4936,-6.4628,-6.4397,-6.4243,-6.4359,-6.4512,-6.4782,-6.5243,-6.5705,-6.5897,-6.5897,-6.5859,-6.5859,-6.5859,-6.5859,-6.5897,-6.5897,-6.5897,-6.5897,-6.5897,-6.5897,-6.5897,-6.5897,-6.5897,-6.5897,-6.5897,-6.5897,-6.5885,-6.5768,-6.566,-6.5537,-6.5503,-6.5444,-6.5413,-6.539,-6.5601,-6.5901,-6.6182,-6.6776,-6.6882,-6.5911,-6.5098,-6.4524,-6.4702,-6.5162,-6.5682,-6.6351,-6.6898,-6.7134,-6.7197,-6.7012,-6.5757,-6.5757,-6.549,-6.5459,-6.5547,-6.5915,-6.5945,-6.5884,-6.6141,-6.6205,-6.6139,-6.6192,-6.6216,-6.5967,-6.5884,-6.582,-6.5833,-6.5859,-6.5897,-6.5859,-6.582,-6.5692,-6.5769,-6.6,-6.6205,-6.6486,-6.6896,-6.7255,-6.7038,-6.7551,-6.8308,-6.8205,-6.7552,-6.7359,-6.6859,-6.632,-6.6051,-6.5897,-6.5872,-6.5885,-6.5885,-6.5872,-6.5872,-6.5885,-6.5885,-6.5859,-6.5833,-6.582,-6.578,-6.5701,-6.5793,-6.5807,-6.5807,-6.5859,-6.5897,-6.5897,-6.5897,-6.5897,-6.5897,-6.5897,-6.5897,-6.5897,-6.5897,-6.5859,-6.559,-6.5397,-6.5282,-6.5128,-6.5051,-6.5205,-6.5282,-6.5628,-6.5897,-6.5897,-6.5897,-6.5897,-6.5897,-6.5897,-6.5897,-6.5897,-6.5897,-6.5897,-6.5897,-6.5897,-6.5897,-6.5897,-6.5897,-6.5897,-6.5897,-6.5897,-6.5885,-6.5872,-6.5755,-6.5608,-6.5552,-6.5465,-6.542,-6.5398,-6.5321,-6.5329,-6.5626,-6.5879,-6.6028,-6.5827,-6.527,-6.4562,-6.3884,-6.4359,-6.5362,-6.5993,-6.6624,-6.7282,-6.779,-6.7716,-6.7395,-6.5413,-6.5413,-6.5413,-6.5435,-6.559,-6.574,-6.5807,-6.5833,-6.5885,-6.5859,-6.5807,-6.5871,-6.5755,-6.5674,-6.5755,-6.5628,-6.5229,-6.5705,-6.5731,-6.5321,-6.5731,-6.582,-6.5859,-6.5936,-6.6167,-6.6281,-6.637,-6.6562,-6.6485,-6.6819,-6.7512,-6.8859,-6.8205,-6.7436,-6.6898,-6.6359,-6.5936,-6.5897,-6.5897,-6.5897,-6.5897,-6.5872,-6.5859,-6.5859,-6.5808,-6.5755,-6.5715,-6.5715,-6.5674,-6.558,-6.5674,-6.5701,-6.5728,-6.5795,-6.5897,-6.5897,-6.5897,-6.5897,-6.5897,-6.5897,-6.5897,-6.5897,-6.5897,-6.5859,-6.5859,-6.5743,-6.5743,-6.5705,-6.5782,-6.5859,-6.5859,-6.5897,-6.5897,-6.5897,-6.5897,-6.5897,-6.5897,-6.5897,-6.5897,-6.5897,-6.5897,-6.5897,-6.5897,-6.5897,-6.5897,-6.5897,-6.5897,-6.5897,-6.5897,-6.5897,-6.5872,-6.5833,-6.5715,-6.5594,-6.5537,-6.5479,-6.542,-6.5345,-6.5236,-6.5285,-6.5424,-6.5272,-6.5174,-6.5067,-6.4933,-6.4456,-6.4211,-6.4879,-6.5696,-6.629,-6.6847,-6.7369,-6.7753,-6.7827,-6.7405,-6.5413,-6.5413,-6.5413,-6.5465,-6.5594,-6.5715,-6.582,-6.5885,-6.5885,-6.5859,-6.5807,-6.5807,-6.5728,-6.5688,-6.5755,-6.5434,-6.5268,-6.5564,-6.559,-6.4654,-6.5526,-6.5885,-6.5859,-6.5923,-6.5897,-6.6254,-6.6419,-6.6301,-6.6762,-6.7264,-6.8177,-6.9462,-6.7615,-6.6808,-6.6949,-6.6256,-6.5795,-6.5526,-6.5564,-6.5641,-6.5821,-6.5833,-6.5793,-6.578,-6.5688,-6.5608,-6.5594,-6.558,-6.5566,-6.5537,-6.5552,-6.5594,-6.5715,-6.5781,-6.5885,-6.5897,-6.5897,-6.5897,-6.5897,-6.5897,-6.5897,-6.5897,-6.5897,-6.5897,-6.5897,-6.5897,-6.5897,-6.5897,-6.5897,-6.5897,-6.5897,-6.5897,-6.5897,-6.5897,-6.5897,-6.5897,-6.5897,-6.5897,-6.5897,-6.5897,-6.5897,-6.5897,-6.5897,-6.5897,-6.5897,-6.5897,-6.5897,-6.5897,-6.5897,-6.5897,-6.5859,-6.582,-6.5701,-6.558,-6.5509,-6.545,-6.5405,-6.5329,-6.5188,-6.4989,-6.4991,-6.4629,-6.4192,-6.4554,-6.4999,-6.5051,-6.5088,-6.5719,-6.6239,-6.6574,-6.7046,-6.7432,-6.7629,-6.7492,-6.6849,-6.5413,-6.5429,-6.5435,-6.5494,-6.5523,-6.5594,-6.5715,-6.582,-6.582,-6.5846,-6.5872,-6.5872,-6.5833,-6.578,-6.5833,-6.5538,-6.5433,-6.5525,-6.5615,-6.5371,-6.5718,-6.5781,-6.569,-6.5678,-6.56,-6.5211,-6.5437,-6.6423,-6.7463,-6.8171,-6.8636,-6.9355,-6.7947,-6.7332,-6.6857,-6.6127,-6.5641,-6.5257,-6.5026,-6.5372,-6.5768,-6.5807,-6.578,-6.5688,-6.5594,-6.5552,-6.5537,-6.5523,-6.5479,-6.5474,-6.5494,-6.558,-6.5728,-6.5859,-6.5897,-6.5897,-6.5897,-6.5897,-6.5897,-6.5897,-6.5897,-6.5897,-6.5897,-6.5897,-6.5897,-6.5897,-6.5897,-6.5897,-6.5897,-6.5897,-6.5897,-6.5897,-6.5897,-6.5897,-6.5897,-6.5897,-6.5897,-6.5897,-6.5897,-6.5897,-6.5897,-6.5897,-6.5897,-6.5897,-6.5897,-6.5897,-6.5897,-6.5897,-6.5897,-6.5897,-6.5859,-6.5807,-6.5688,-6.558,-6.5509,-6.542,-6.5375,-6.522,-6.5057,-6.4813,-6.4596,-6.4507,-6.4457,-6.4815,-6.5162,-6.5348,-6.5756,-6.65,-6.6908,-6.6982,-6.6935,-6.7197,-6.663,-6.6322,-6.5655,-6.5413,-6.539,-6.5465,-6.5494,-6.5509,-6.5537,-6.5594,-6.5688,-6.5701,-6.5742,-6.5859,-6.5885,-6.5872,-6.5833,-6.5859,-6.5551,-6.5356,-6.5575,-6.5293,-6.5241,-6.5548,-6.5663,-6.5572,-6.5367,-6.5287,-6.4987,-6.5733,-6.6834,-6.8071,-6.8474,-6.8733,-6.8901,-6.8185,-6.7355,-6.6521,-6.592,-6.5563,-6.514,-6.4718,-6.4974,-6.5509,-6.5405,-6.5416,-6.536,-6.5523,-6.5518,-6.5465,-6.545,-6.545,-6.5488,-6.5523,-6.5537,-6.5674,-6.5755,-6.5846,-6.5859,-6.5872,-6.5897,-6.5897,-6.5897,-6.5897,-6.5897,-6.5897,-6.5897,-6.5897,-6.5897,-6.5897,-6.5897,-6.5897,-6.5897,-6.5897,-6.5897,-6.5897,-6.5897,-6.5897,-6.5897,-6.5897,-6.5897,-6.5897,-6.5897,-6.5897,-6.5897,-6.5897,-6.5897,-6.5897,-6.5897,-6.5897,-6.5897,-6.5897,-6.5897,-6.5859,-6.5807,-6.5701,-6.558,-6.5509,-6.542,-6.5314,-6.5155,-6.4976,-6.4823,-6.4717,-6.4753,-6.4865,-6.5013,-6.5348,-6.5831,-6.6351,-6.6797,-6.7094,-6.7094,-6.6972,-6.6887,-6.6112,-6.5374,-6.493,-6.5413,-6.5429,-6.545,-6.5479,-6.5479,-6.5479,-6.5523,-6.558,-6.558,-6.5674,-6.5742,-6.5808,-6.5872,-6.5859,-6.5795,-6.5256,-6.5076,-6.5457,-6.5148,-6.5043,-6.5364,-6.5503,-6.5273,-6.489,-6.4834,-6.5326,-6.6109,-6.7018,-6.8127,-6.8631,-6.8891,-6.8292,-6.7515,-6.6699,-6.6057,-6.5688,-6.5561,-6.5177,-6.487,-6.4843,-6.4865,-6.4757,-6.4973,-6.5197,-6.5535,-6.549,-6.5452,-6.5558,-6.5588,-6.5494,-6.5552,-6.5552,-6.5618,-6.5701,-6.578,-6.582,-6.5872,-6.5897,-6.5897,-6.5897,-6.5897,-6.5897,-6.5897,-6.5897,-6.5897,-6.5897,-6.5897,-6.5897,-6.5897,-6.5897,-6.5897,-6.5897,-6.5897,-6.5897,-6.5897,-6.5897,-6.5897,-6.5897,-6.5897,-6.5897,-6.5897,-6.5897,-6.5897,-6.5897,-6.5897,-6.5897,-6.5897,-6.5897,-6.5897,-6.5897,-6.5872,-6.5833,-6.5742,-6.566,-6.5523,-6.5605,-6.5595,-6.5192,-6.5006,-6.491,-6.4871,-6.5039,-6.5088,-6.4939,-6.5311,-6.5979,-6.6277,-6.6574,-6.6834,-6.6959,-6.6773,-6.6428,-6.5606,-6.4943,-6.4598,-6.5413,-6.5413,-6.539,-6.5405,-6.5444,-6.5444,-6.545,-6.5509,-6.5523,-6.5552,-6.5622,-6.5674,-6.5715,-6.5807,-6.5807,-6.5446,-6.5095,-6.5427,-6.547,-6.5359,-6.5422,-6.547,-6.525,-6.469,-6.447,-6.4962,-6.5902,-6.7156,-6.8197,-6.9299,-6.9682,-6.9008,-6.8242,-6.7414,-6.6571,-6.6088,-6.5388,-6.5033,-6.4698,-6.4555,-6.4541,-6.4614,-6.48,-6.5344,-6.6117,-6.5872,-6.5811,-6.62,-6.6015,-6.5738,-6.5552,-6.5552,-6.559,-6.5646,-6.5753,-6.5793,-6.5846,-6.5885,-6.5897,-6.5885,-6.5885,-6.5897,-6.5897,-6.5885,-6.5897,-6.5897,-6.5897,-6.5897,-6.5897,-6.5897,-6.5897,-6.5897,-6.5897,-6.5897,-6.5897,-6.5897,-6.5897,-6.5897,-6.5897,-6.5897,-6.5897,-6.5897,-6.5897,-6.5897,-6.5974,-6.5974,-6.5936,-6.5936,-6.609,-6.6013,-6.5923,-6.5961,-6.596,-6.566,-6.5561,-6.5985,-6.5977,-6.549,-6.5143,-6.5195,-6.53,-6.544,-6.5459,-6.5311,-6.5608,-6.6202,-6.6425,-6.655,-6.6267,-6.6341,-6.629,-6.5909,-6.5138,-6.466,-6.4463]},{"header":{"parameterUnit":"m.s-1","parameterCategory":1,"la1":31.0,"la2":29.5877,"lo1":-88.7671,"lo2":-86.6584,"dy":0.0162,"dx":0.0185,"nx":115,"ny":88,"refTime":"2023-03-14T06:00:00:Z","depth":0,"parameterNumber":3,"parameterNumberName":"V-component_of_WINDS"},"data":[0.0,0.0,0.0,0.0,0.0,0.0,0.0,0.0,0.0,0.0,0.0,0.0,0.0,0.0,0.0,0.0,0.0,0.0,0.0,0.0,0.0,0.0,0.0,0.0,0.0,0.0,0.0,0.0,0.0,0.0,0.0,0.0,0.0,0.0,0.0,0.0,0.0,0.0,0.0,0.0,0.0,0.0,0.0,0.0,0.0,0.0,0.0,0.0,0.0,0.0,0.0,0.0,0.0,0.0,0.0,0.0,0.0,0.0,0.0,0.0,0.0,0.0,0.0,0.0,0.0,0.0,0.0,0.0,0.0,0.0,0.0,0.0,0.0,0.0,0.0,0.0,0.0,0.0,0.0,0.0,0.0,0.0,0.0,0.0,0.0,0.0,0.0,0.0,0.0,0.0,0.0,0.0,0.0,0.0,0.0,0.0,0.0,0.0,0.0,0.0,0.0,0.0,0.0,0.0,0.0,0.0,0.0,0.0,0.0,0.0,0.0,0.0,0.0,0.0,0.0,0.0,0.0,0.0,0.0,0.0,0.0,0.0,0.0,0.0,0.0,0.0,0.0,0.0,0.0,0.0,0.0,0.0,0.0,0.0,0.0,0.0,0.0,0.0,0.0,0.0,0.0,0.0,0.0,0.0,0.0,0.0,0.0,0.0,0.0,0.0,0.0,0.0,0.0,0.0,0.0,0.0,0.0,0.0,0.0,0.0,0.0,0.0,0.0,0.0,0.0,0.0,0.0,0.0,0.0,0.0,0.0,0.0,0.0,0.0,0.0,0.0,0.0,0.0,0.0,0.0,0.0,0.0,0.0,0.0,0.0,0.0,0.0,0.0,0.0,0.0,0.0,0.0,0.0,0.0,0.0,0.0,0.0,0.0,0.0,0.0,0.0,0.0,0.0,0.0,0.0,0.0,0.0,0.0,0.0,0.0,0.0,0.0,0.0,0.0,0.0,0.0,0.0,0.0,0.0,0.0,0.0,0.0,0.0,0.0,0.0,0.0,0.0,0.0,0.0,0.0,0.0,0.0,0.0,0.0,0.0,0.0,0.0,0.0,0.0,0.0,0.0,0.0,0.0,0.0,0.0,0.0,0.0,0.0,0.0,0.0,0.0,0.0,0.0,0.0,0.0,0.0,0.0,0.0,0.0,0.0,0.0,0.0,0.0,0.0,0.0,0.0,0.0,0.0,0.0,0.0,0.0,0.0,0.0,0.0,0.0,0.0,0.0,0.0,0.0,0.0,0.0,0.0,0.0,0.0,0.0,0.0,0.0,0.0,0.0,0.0,0.0,0.0,0.0,0.0,0.0,0.0,0.0,0.0,0.0,0.0,0.0,0.0,0.0,0.0,0.0,0.0,0.0,0.0,0.0,0.0,0.0,0.0,0.0,0.0,0.0,0.0,0.0,0.0,0.0,0.0,0.0,0.0,0.0,0.0,0.0,0.0,0.0,0.0,0.0,0.0,0.0,0.0,0.0,0.0,0.0,0.0,0.0,0.0,0.0,0.0,0.0,0.0,0.0,0.0,0.0,0.0,0.0,0.0,0.0,0.0,0.0,0.0,0.0,0.0,0.0,0.0,0.0,0.0,0.0,0.0,0.0,0.0,0.0,0.0,0.0,0.0,0.0,0.0,0.0,0.0,0.0,0.0,0.0,0.0,0.0,0.0,0.0,0.0,0.0,0.0,0.0,0.0,0.0,0.0,0.0,0.0,0.0,0.0,0.0,0.0,0.0,0.0,0.0,0.0,0.0,0.0,0.0,0.0,0.0,0.0,0.0,0.0,0.0,0.0,0.0,0.0,0.0,0.0,0.0,0.0,0.0,0.0,0.0,0.0,0.0,0.0,0.0,0.0,0.0,0.0,0.0,0.0,0.0,0.0,0.0,0.0,0.0,0.0,0.0,0.0,0.0,0.0,0.0,0.0,0.0,0.0,0.0,0.0,0.0,0.0,0.0,0.0,0.0,0.0,0.0,0.0,0.0,0.0,0.0,0.0,0.0,0.0,0.0,0.0,0.0,0.0,0.0,0.0,0.0,0.0,0.0,0.0,0.0,0.0,0.0,0.0,0.0,0.0,0.0,0.0,0.0,0.0,0.0,0.0,0.0,0.0,0.0,0.0,0.0,0.0,0.0,0.0,0.0,0.0,0.0,0.0,0.0,0.0,0.0,0.0,0.0,0.0,0.0,0.0,0.0,0.0,0.0,0.0,0.0,0.0,0.0,0.0,0.0,0.0,0.0,0.0,0.0,0.0,0.0,0.0,0.0,0.0,0.0,0.0,0.0,0.0,0.0,0.0,0.0,0.0,0.0,0.0,0.0,0.0,0.0,0.0,0.0,0.0,0.0,0.0,0.0,0.0,0.0,0.0,0.0,0.0,0.0,0.0,0.0,0.0,0.0,0.0,0.0,0.0,0.0,0.0,0.0,0.0,0.0,0.0,0.0,0.0,0.0,0.0,0.0,0.0,0.0,0.0,0.0,0.0,0.0,0.0,0.0,0.0,0.0,0.0,0.0,0.0,0.0,0.0,0.0,0.0,0.0,0.0,0.0,0.0,0.0,0.0,0.0,0.0,0.0,0.0,0.0,0.0,0.0,0.0,0.0,0.0,0.0,0.0,0.0,0.0,0.0,0.0,0.0,0.0,0.0,0.0,0.0,0.0,0.0,0.0,0.0,0.0,0.0,0.0,0.0,0.0,0.0,0.0,0.0,0.0,0.0,0.0,0.0,0.0,0.0,0.0,0.0,0.0,0.0,0.0,0.0,0.0,0.0,0.0,0.0,0.0,0.0,0.0,0.0,0.0,0.0,0.0,0.0,0.0,0.0,0.0,0.0,0.0,0.0,0.0,0.0,0.0,0.0,0.0,0.0,0.0,0.0,0.0,0.0,0.0,0.0,0.0,0.0,0.0,0.0,0.0,0.0,0.0,0.0,0.0,0.0,0.0,0.0,0.0,0.0,0.0,0.0,0.0,0.0,0.0,0.0,0.0,0.0,0.0,0.0,0.0,0.0,0.0,0.0,0.0,0.0,0.0,0.0,0.0,0.0,0.0,0.0,0.0,0.0,0.0,0.0,0.0,0.0,0.0,0.0,0.0,0.0,0.0,0.0,0.0,0.0,0.0,0.0,0.0,0.0,0.0,0.0,0.0,0.0,0.0,0.0,0.0,0.0,0.0,0.0,0.0,0.0,0.0,0.0,0.0,0.0,0.0,0.0,0.0,0.0,0.0,0.0,0.0,0.0,0.0,0.0,0.0,0.0,0.0,0.0,0.0,0.0,0.0,0.0,0.0,0.0,0.0,0.0,0.0,0.0,0.0,0.0,0.0,0.0,0.0,0.0,0.0,0.0,0.0,0.0,0.0,0.0,0.0,0.0,0.0,0.0,0.0,0.0,0.0,0.0,0.0,0.0,0.0,0.0,0.0,0.0,0.0,0.0,0.0,0.0,0.0,0.0,0.0,0.0,0.0,0.0,0.0,0.0,0.0,0.0,0.0,0.0,0.0,0.0,0.0,0.0,0.0,0.0,0.0,0.0,0.0,0.0,0.0,0.0,0.0,0.0,0.0,0.0,0.0,0.0,0.0,0.0,0.0,0.0,0.0,0.0,0.0,0.0,0.0,0.0,0.0,0.0,0.0,0.0,0.0,0.0,0.0,0.0,0.0,0.0,0.0,0.0,0.0,0.0,0.0,0.0,0.0,0.0,0.0,0.0,0.0,0.0,0.0,0.0,0.0,0.0,0.0,0.0,0.0,0.0,0.0,0.0,0.0,0.0,0.0,0.0,0.0,0.0,0.0,0.0,0.0,0.0,0.0,0.0,0.0,0.0,0.0,0.0,0.0,0.0,0.0,0.0,0.0,0.0,0.0,0.0,0.0,0.0,0.0,0.0,0.0,0.0,0.0,0.0,0.0,0.0,0.0,0.0,0.0,0.0,0.0,0.0,0.0,0.0,0.0,0.0,0.0,0.0,0.0,0.0,0.0,0.0,0.0,0.0,0.0,0.0,0.0,0.0,0.0,0.0,0.0,0.0,0.0,0.0,0.0,0.0,0.0,0.0,0.0,0.0,0.0,0.0,0.0,0.0,0.0,0.0,0.0,0.0,0.0,0.0,0.0,0.0,0.0,0.0,0.0,0.0,0.0,0.0,0.0,0.0,0.0,0.0,0.0,0.0,0.0,0.0,0.0,0.0,0.0,0.0,0.0,0.0,0.0,0.0,0.0,0.0,0.0,0.0,0.0,0.0,0.0,0.0,0.0,0.0,0.0,0.0,0.0,0.0,0.0,0.1798,0.0,0.0,0.0,0.0,0.0,0.0,0.0,0.0,0.0,0.0,0.0,0.0,0.0,0.0,0.0,0.0,0.0,0.0,0.0,0.0,0.0,0.0,0.0,0.0,0.0,0.0,0.0,0.0,0.0,0.0,0.0,0.0,0.0,0.0,0.0,0.0,0.0,0.0,0.0,0.0,0.0,0.0,0.0,0.0,0.0,0.0,0.0,0.0,0.0,0.0,0.0,0.0,0.0,0.0,0.0,0.0,0.0,0.0,0.0,0.0,0.0,0.0,0.0,0.0,0.0,0.0,0.0,0.0,0.0,0.0,0.0,0.0,0.0,0.0,0.0,0.0,0.0,0.0,0.0,0.0,0.0,0.0,0.0,0.0,0.0,0.0,0.0,0.0,0.0,0.0,0.0,0.0,0.0,0.0,0.0,0.0,0.0,0.0,0.0,0.0,0.0,0.0,0.0,0.0,0.0,0.0,0.0,0.0,0.0,0.0,0.193,0.1887,0.1869,0.184,0.1797,0.0,0.0,0.0,0.0,0.0,0.0,0.0,0.0,0.0,0.0,0.0,0.0,0.0,0.0,0.0,0.0,0.0,0.0,0.0,0.0,0.0,0.0,0.0,0.0,0.0,0.0,0.0,0.0,0.0,0.0,0.0,0.0,0.0,0.0,0.0,0.0,0.0,0.0,0.0,0.0,0.0,0.0,0.0,0.0,0.0,0.0,0.0,0.0,0.0,0.0,0.0,0.0,0.0,0.0,0.0,0.0,0.0,0.0,0.0,0.0,0.0,0.0,0.0,0.0,0.0,0.0,0.0,0.0,0.0,0.0,0.0,0.0,0.0,0.0,0.0,0.0,0.0,0.0,0.0,0.0,0.0,0.0,0.0,0.0,0.0,0.0,0.0,0.0,0.0,0.0,0.0,0.0,0.0,0.0,0.0,0.0,0.0,0.0,0.0,0.0,0.0,0.0,0.0,0.0,0.0,0.0,0.0,0.0,0.0,0.0,0.0,0.0,0.1857,0.1825,0.1797,0.0,0.0,0.0,0.0,0.0,0.0,0.0,0.0,0.0,0.0,0.0,0.0,0.0,0.0,0.0,0.0,0.0,0.0,0.0,0.0,0.0,0.0,0.0,0.0,0.0,0.0,0.0,0.0,0.0,0.0,0.0,0.0,0.0,0.0,0.0,0.0,0.0,0.0,0.0,0.0,0.0,0.0,0.0,0.0,0.0,0.0,0.0,0.0,0.0,0.0,0.0,0.0,0.0,0.0,0.0,0.0,0.0,0.0,0.0,0.0,0.0,0.0,0.0,0.0,0.0,0.0,0.0,0.0,0.0,0.0,0.0,0.0,0.0,0.0,0.0,0.0,0.0,0.0,0.0,0.0,0.0,0.0,0.0,0.0,0.0,0.0,0.0,0.0,0.0,0.0,0.0,0.0,0.0,0.0,0.0,0.0,0.0,0.0,0.0,0.0,0.0,0.0,0.0,0.0,0.0,0.0,0.0,0.0,0.0,0.0,0.2213,0.1887,0.1855,0.0,0.1797,0.0,0.0,0.0,0.0,0.0,0.0,0.0,0.0,0.0,0.0,0.0,0.0,0.0,0.0,0.0,0.0,0.0,0.0,0.0,0.0,0.0,0.0,0.0,0.0,0.0,0.0,0.0,0.0,0.0,0.0,0.0,0.0,0.0,0.0,0.0,0.0,0.0,0.0,0.0,0.0,0.0,0.0,0.0,0.0,0.0,0.0,0.0,0.0,0.0,0.0,0.0,0.0,0.0,0.0,0.0,0.0,0.0,0.0,0.0,0.0,0.0,0.0,0.0,0.0,0.0,0.0,0.0,0.0,0.0,0.0,0.0,0.0,0.0,0.0,0.0,0.0,0.0,0.0,0.0,0.0,0.0,0.0,0.0,0.0,0.0,0.0,0.0,0.0,0.0,0.0,0.0,0.0,0.0,0.0,0.0,0.0,0.0,0.0,0.0,0.0,0.0,0.0,0.0,0.0,0.0,0.0,0.0,0.0,0.0,0.0,0.2489,0.218,0.1954,0.1808,0.0,0.0,0.0,0.0,0.0,0.0,0.0,0.0,0.0,0.0,0.0,0.0,0.0,0.0,0.0,0.0,0.0,0.0,0.0,0.0,0.0,0.0,0.0,0.0,0.0,0.0,0.0,0.0,0.0,0.0,0.0,0.0,0.0,0.0,0.0,0.0,0.0,0.0,0.0,0.0,0.0,0.0,0.0,0.0,0.0,0.0,0.0,0.0,0.0,0.0,0.0,0.0,0.0,0.0,0.0,0.0,0.0,0.0,0.0,0.0,0.0,0.0,0.0,0.0,0.0,0.0,0.0,0.0,0.0,0.0,0.0,0.0,0.0,0.0,0.0,0.0,0.0,0.0,0.0,0.0,0.0,0.0,0.0,0.0,0.0,0.0,0.0,0.0,0.0,0.0,0.0,0.0,0.0,0.0,0.0,0.0,0.0,0.0,0.0,0.0,0.0,0.0,0.0,0.0,0.0,0.0,0.0,0.0,0.0,0.0,0.3351,0.2874,0.2326,0.1989,0.1794,0.1794,0.0,0.0,0.0,0.0,0.0,0.0,0.0,0.0,0.0,0.0,0.0,0.0,0.0,0.0,0.0,0.0,0.0,0.0,0.0,0.0,0.0,0.0,0.0,0.0,0.0,0.0,0.0,0.0,0.0,0.0,0.0,0.0,0.0,0.0,0.0,0.0,0.0,0.0,0.0,0.0,0.0,0.0,0.0,0.0,0.0,0.0,0.0,0.0,0.0,0.0,0.0,0.0,0.0,0.0,0.0,0.0,0.0,0.0,0.0,0.0,0.0,0.0,0.0,0.0,0.0,0.0,0.0,0.0,0.0,0.0,0.0,0.0,0.0,0.0,0.0,0.0,0.0,0.0,0.0,0.0,0.0,0.0,0.0,0.0,0.0,0.0,0.0,0.0,0.0,0.0,0.0,0.0,0.0,0.0,0.0,0.0,0.0,0.0,0.0,0.0,0.0,0.0,0.0,0.0,0.0,0.0,0.0,0.0,0.394,0.3828,0.325,0.2254,0.1965,0.1794,0.0,0.0,0.0,0.0,0.0,0.0,0.0,0.0,0.0,0.0,0.0,0.0,0.0,0.0,0.0,0.0,0.0,0.0,0.0,0.0,0.0,0.0,0.0,0.0,0.0,0.0,0.0,0.0,0.0,0.0,0.0,0.0,0.0,0.0,0.0,0.0,0.0,0.0,0.0,0.0,0.0,0.0,0.0,0.0,0.0,0.0,0.0,0.0,0.0,0.0,0.0,0.0,0.0,0.0,0.0,0.0,0.0,0.0,0.0,0.0,0.0,0.0,0.0,0.0,0.0,0.0,0.0,0.0,0.0,0.0,0.0,0.0,0.0,0.0,0.0,0.0,0.0,0.0,0.0,0.0,0.0,0.0,0.0,0.0,0.0,0.0,0.0,0.0,0.0,0.0,0.0,0.0,0.0,0.0,0.0,0.0,0.0,0.0,0.0,0.0,0.0,0.0,0.0,0.0,0.0,0.0,0.0,0.0,0.0,0.4558,0.3828,0.3204,0.2621,0.2256,0.1964,0.0,0.0,0.0,0.0,0.0,0.0,0.0,0.0,0.0,0.0,0.0,0.0,0.0,0.0,0.0,0.0,0.0,0.0,0.0,0.0,0.0,0.0,0.0,0.0,0.0,0.0,0.0,0.0,0.0,0.0,0.0,0.0,0.0,0.0,0.0,0.0,0.0,0.0,0.0,0.0,0.0,0.0,0.0,0.0,0.0,0.0,0.0,0.0,0.0,0.0,0.0,0.0,0.0,0.0,0.0,0.0,0.0,0.0,0.0,0.0,0.0,0.0,0.0,0.0,0.0,0.0,0.0,0.0,0.0,0.0,0.0,0.0,0.0,0.0,0.0,0.0,0.0,0.0,0.0,0.0,0.0,0.0,0.0,0.0,0.0,0.0,0.0,0.0,0.0,0.0,0.0,0.0,0.0,0.0,0.0,0.0,0.0,0.0,0.0,0.0,0.0,0.0,0.0,0.0,0.0,0.0,0.0,0.0,0.0,0.4835,0.0,0.3345,0.2932,0.2502,0.2145,0.0,0.0,0.0,0.0,0.0,0.0,0.0,0.0,0.0,0.0,0.0,0.0,0.0,0.0,0.0,0.0,0.0,0.0,0.0,0.0,0.0,0.0,0.0,0.0,0.0,0.0,0.0,0.0,0.0,0.0,0.0,0.0,0.0,0.0,0.0,0.0,0.0,0.0,0.0,0.0,0.0,0.0,0.0,0.0,0.0,0.0,0.0,0.0,0.0,0.0,0.0,0.0,0.0,0.0,0.0,0.0,0.0,0.0,0.0,0.0,0.0,0.0,0.0,0.0,0.0,0.0,0.0,0.0,0.0,0.0,0.0,0.0,0.0,0.0,0.0,0.0,0.0,0.0,0.0,0.0,0.0,0.0,0.0,0.0,0.0,0.0,0.0,0.0,0.0,0.0,0.0,0.0,0.0,0.0,0.0,0.0,0.0,0.0,0.0,0.0,0.0,0.0,0.0,0.0,0.0,0.0,0.0,0.0,0.551,0.4828,0.4216,0.3677,0.3224,0.2643,0.2281,0.0,0.0,0.0,0.0,0.0,0.0,0.0,0.0,0.0,0.0,0.0,0.0,0.0,0.0,0.0,0.0,0.0,0.0,0.0,0.0,0.0,0.0,0.0,0.0,0.0,0.0,0.0,0.0,0.0,0.0,0.0,0.0,0.0,0.0,0.0,0.0,0.0,0.0,0.0,0.0,0.0,0.0,0.0,0.0,0.0,0.0,0.0,0.0,0.0,0.0,0.0,0.0,0.0,0.0,0.0,0.0,0.0,0.0,0.0,0.0,0.0,0.0,0.0,0.0,0.0,0.0,0.0,0.0,0.0,0.0,0.0,0.0,0.0,0.0,0.0,0.0,0.0,0.0,0.0,0.0,0.0,0.0,0.0,0.0,0.0,0.0,0.0,0.0,0.0,0.0,0.0,0.0,0.0,0.0,0.0,0.0,0.0,0.0,0.0,0.0,0.0,0.0,0.0,0.0,0.0,0.0,0.0,0.0,0.0,0.5201,0.4543,0.3996,0.3627,0.3178,0.268,0.0,0.0,0.0,0.0,0.0,0.0,0.0,0.0,0.0,0.0,0.0,0.0,0.0,0.0,0.0,0.0,0.0,0.0,0.0,0.0,0.0,0.0,0.0,0.0,0.0,0.0,0.0,0.0,0.0,0.0,0.0,0.0,0.0,0.0,0.0,0.0,0.0,0.0,0.0,0.0,0.0,0.0,0.0,0.0,0.0,0.0,0.0,0.0,0.0,0.0,0.0,0.0,0.0,0.0,0.0,0.0,0.0,0.0,0.0,0.0,0.0,0.0,0.0,0.0,0.0,0.0,0.0,0.0,0.0,0.0,0.0,0.0,0.0,0.0,0.0,0.0,0.0,0.0,0.0,0.0,0.0,0.0,0.0,0.0,0.0,0.0,0.0,0.0,0.0,0.0,0.0,0.0,0.0,0.0,0.0,0.0,0.0,0.0,0.0,0.0,0.0,0.0,0.0,0.0,0.0,0.0,0.0,0.0,0.0,0.593,0.4919,0.4174,0.3691,0.3274,0.2913,0.2436,0.0,0.0,0.0,0.0,0.0,0.0,0.0,0.0,0.0,0.0,0.0,0.0,0.0,0.0,0.0,0.0,0.0,0.0,0.0,0.0,0.0,0.0,0.0,0.0,0.0,0.0,0.0,0.0,0.0,0.0,0.0,0.0,0.0,0.0,0.0,0.0,0.0,0.0,0.0,0.0,0.0,0.0,0.0,0.0,0.0,0.0,0.0,0.0,0.0,0.0,0.0,0.0,0.0,0.0,0.0,0.0,0.0,0.0,0.0,0.0,0.0,0.0,0.0,0.0,0.0,0.0,0.0,0.0,0.0,0.0,0.0,0.0,0.0,0.0,0.0,0.0,0.0,0.0,0.0,0.0,0.0,0.0,0.0,0.0,0.0,0.0,0.0,0.0,0.0,0.0,0.0,0.0,0.0,0.0,0.0,0.0,0.0,0.0,0.0,0.0,0.0,0.0,0.0,0.0,0.0,0.0,0.0,0.0,0.6784,0.5281,0.4251,0.3675,0.318,0.2903,0.0,0.0,0.0,0.0,0.0,0.0,0.0,0.0,0.0,0.0,0.0,0.0,0.0,0.0,0.0,0.0,0.0,0.0,0.0,0.0,0.0,0.0,0.0,0.0,0.0,0.0,0.0,0.0,0.0,0.0,0.0,0.0,0.0,0.0,0.0,0.0,0.0,0.0,0.0,0.0,0.0,0.0,0.0,0.0,0.0,0.0,0.0,0.0,0.0,0.0,0.0,0.0,0.0,0.0,0.0,0.0,0.0,0.0,0.0,0.0,0.0,0.0,0.0,0.0,0.0,0.0,0.0,0.0,0.0,0.0,0.0,0.0,0.0,0.0,0.0,0.0,0.0,0.0,0.0,0.0,0.0,0.0,0.0,0.0,0.0,0.0,0.0,0.0,0.0,0.0,0.0,0.0,0.0,0.0,0.0,0.0,0.0,0.0,0.0,0.0,0.0,0.0,0.0,0.0,0.0,0.0,0.0,0.0,0.0,0.5356,0.5034,0.4928,0.4964,0.3938,0.3182,0.0,0.0,0.0,0.0,0.0,0.0,0.0,0.0,0.0,0.0,0.0,0.0,0.0,0.0,0.0,0.0,0.0,0.0,0.0,0.0,0.0,0.0,0.0,0.0,0.0,0.0,0.0,0.0,0.0,0.0,0.0,0.0,0.0,0.0,0.0,0.0,0.0,0.0,0.0,0.0,0.0,0.0,0.0,0.0,0.0,0.0,0.0,0.0,0.0,0.0,0.0,0.0,0.0,0.0,0.0,0.0,0.0,0.0,0.0,0.0,0.0,0.0,0.0,0.0,0.0,0.0,0.0,0.0,0.0,0.0,0.0,0.0,0.0,0.0,0.0,0.0,0.0,0.0,0.0,0.0,0.0,0.0,0.0,0.0,0.0,0.0,0.0,0.0,0.0,0.0,0.0,0.0,0.0,0.0,0.0,0.0,0.0,0.0,0.0,0.0,0.0,0.0,0.0,0.0,0.0,0.0,0.0,0.0,0.7402,0.6345,0.6293,0.6108,0.5803,0.4179,0.3215,0.0,0.0,0.0,0.0,0.0,0.0,0.0,0.0,0.0,0.0,0.0,0.0,0.0,0.0,0.0,0.0,0.0,0.0,0.0,0.0,0.0,0.0,0.0,0.0,0.0,0.0,0.0,0.0,0.0,0.0,0.0,0.0,0.0,0.0,0.0,0.0,0.0,0.0,0.0,0.0,0.0,0.0,0.0,0.0,0.0,0.0,0.0,0.0,0.0,0.0,0.0,0.0,0.0,0.0,0.0,0.0,0.0,0.0,0.0,0.0,0.0,0.0,0.0,0.0,0.0,0.0,0.0,0.0,0.0,0.0,0.0,0.0,0.0,0.0,0.0,0.0,0.0,0.0,0.0,0.0,0.0,0.0,0.0,0.0,0.0,0.0,0.0,0.0,0.0,0.0,0.0,0.0,0.0,0.0,0.0,0.0,0.0,0.0,0.0,0.0,0.0,0.0,0.0,0.0,0.0,0.0,0.0,0.0,0.866,0.8399,0.8146,0.7401,0.619,0.4361,0.3243,0.0,0.0,0.0,0.0,0.0,0.0,0.0,0.0,0.0,0.0,0.0,0.0,0.0,0.0,0.0,0.0,0.0,0.0,0.0,0.0,0.0,0.0,0.0,0.0,0.0,0.0,0.0,0.0,0.0,0.0,0.0,0.0,0.0,0.0,0.0,0.0,0.0,0.0,0.0,0.0,0.0,0.0,0.0,0.0,0.0,0.0,0.0,0.0,0.0,0.0,0.0,0.0,0.0,0.0,0.0,0.0,0.0,0.0,0.0,0.0,0.0,0.0,0.0,0.0,0.0,0.0,0.0,0.0,0.0,0.0,0.0,0.0,0.0,0.0,0.0,0.0,0.0,0.0,0.0,0.0,0.0,0.0,0.0,0.0,0.0,0.0,0.0,0.0,0.0,0.0,0.0,0.0,0.0,0.0,0.0,0.0,0.0,0.0,0.0,0.0,0.0,0.0,0.0,0.0,0.0,0.0,0.0,0.0,0.8261,0.744,0.761,0.7124,0.5968,0.5366,0.4538,0.0,0.0,0.0,0.0,0.0,0.0,0.0,0.0,0.0,0.0,0.0,0.0,0.0,0.0,0.0,0.0,0.0,0.0,0.0,0.0,0.0,0.0,0.0,0.0,0.0,0.0,0.0,0.0,0.0,0.0,0.0,0.0,0.0,0.0,0.0,0.0,0.0,0.0,0.0,0.0,0.0,0.0,0.0,0.0,0.0,0.0,0.0,0.0,0.7938,0.0,0.0,0.0,0.0,0.0,0.0,0.0,0.0,0.0,0.0,0.0,0.0,0.0,0.0,0.0,0.0,0.0,0.0,0.0,0.0,0.0,0.0,0.0,0.0,0.0,0.0,0.0,0.0,0.0,0.0,0.0,0.0,0.0,0.0,0.0,0.0,0.0,0.0,0.0,0.0,0.0,0.0,0.0,0.0,0.0,0.0,0.0,0.0,0.0,0.0,0.0,0.0,0.0,0.0,0.0,0.0,0.0,0.0,0.0,0.8702,0.826,0.8484,0.8006,0.6806,0.688,0.6088,0.0,0.0,0.0,0.0,0.0,0.0,0.0,0.0,0.0,0.0,0.0,0.0,0.0,0.0,0.0,0.0,0.0,0.0,0.0,0.0,0.0,0.0,0.0,0.0,0.0,0.0,0.0,0.0,0.0,0.0,0.0,0.0,0.0,0.0,0.0,0.0,0.0,0.0,0.0,0.0,0.0,0.0,0.0,0.0,0.0,0.0,0.0,0.0,0.0,0.0,0.0,0.0,0.0,0.0,0.0,0.0,0.0,0.0,0.0,0.0,0.0,0.0,0.0,0.0,0.0,0.0,0.0,0.0,0.0,0.0,0.0,0.0,0.0,0.0,0.0,0.0,0.0,0.0,0.0,0.0,0.0,0.0,0.0,0.0,0.0,0.0,0.0,0.0,0.0,0.0,0.0,0.0,0.0,0.0,0.0,0.0,0.0,0.0,0.0,0.0,0.0,0.0,0.0,0.0,0.0,0.0,0.0,0.9355,0.9312,0.9416,0.9552,0.9117,0.7984,0.8257,0.7533,0.5668,0.0,0.0,0.0,0.0,0.0,0.0,0.0,0.0,0.0,0.0,0.0,0.0,0.0,0.0,0.0,0.0,0.0,0.0,0.0,0.0,0.0,0.0,0.0,0.0,0.0,0.0,0.0,0.0,0.0,0.0,0.0,0.0,0.0,0.0,0.0,0.0,0.0,0.0,0.856,0.8655,0.0,0.0,0.0,0.0,0.0,0.0,0.0,0.0,0.8052,0.0,0.0,0.0,0.0,0.0,0.0,0.0,0.0,0.0,0.0,0.0,0.0,0.0,0.0,0.0,0.0,0.0,0.0,0.0,0.0,0.0,0.0,0.0,0.0,0.0,0.0,0.0,0.0,0.0,0.0,0.0,0.0,0.0,0.0,0.0,0.0,0.0,0.0,0.0,0.0,0.0,0.0,0.0,0.0,0.0,0.0,0.0,0.0,0.0,0.0,0.0,0.0,0.0,0.0,0.0,0.0,0.9412,0.9226,0.9149,0.9182,0.9307,0.9283,0.9034,0.8568,0.794,0.7173,0.0,0.0,0.0,0.0,0.0,0.0,0.0,0.0,0.0,0.0,0.0,0.0,0.0,0.0,0.0,0.0,0.0,0.0,0.0,0.0,0.0,0.0,0.0,0.0,0.0,0.0,0.0,0.0,0.0,0.0,0.0,0.0,0.0,0.0,0.0,0.0,0.0,0.0,0.0,0.8852,0.8879,0.0,0.0,0.0,0.0,0.0,0.0,0.0,0.0,0.8821,0.0,0.0,0.0,0.0,0.0,0.0,0.0,0.0,0.0,0.0,0.0,0.0,0.0,0.0,0.0,0.0,0.0,0.0,0.0,0.0,0.0,0.0,0.0,0.0,0.0,0.0,0.0,0.0,0.0,0.0,0.0,0.0,0.0,0.0,0.0,0.0,0.0,0.0,0.0,0.0,0.0,0.0,0.0,0.0,0.0,0.0,0.0,0.0,0.0,0.0,0.0,0.0,0.0,0.0,0.0,0.9461,0.9424,0.944,0.9296,0.9307,0.9302,0.9296,0.882,0.8319,0.0,0.0,0.0,0.0,0.0,0.0,0.0,0.0,0.0,0.0,0.0,0.0,0.0,0.0,0.0,0.0,0.0,0.0,0.0,0.0,0.0,0.0,0.0,0.0,0.0,0.0,0.0,0.0,0.0,0.0,0.0,0.0,0.0,0.0,0.0,0.0,0.0,0.0,0.0,0.0,0.9028,0.913,0.9659,0.0,0.0,0.0,0.0,0.0,0.0,0.9286,0.9123,0.0,0.0,0.0,0.0,0.0,0.0,0.0,0.0,0.0,0.0,0.0,0.0,0.0,0.0,0.0,0.0,0.0,0.0,0.0,0.0,0.0,0.0,0.0,0.0,0.0,0.0,0.0,0.0,0.0,0.0,0.0,0.0,0.0,0.0,0.0,0.0,0.0,0.0,0.0,0.0,0.0,0.0,0.0,0.0,0.0,0.0,0.0,0.0,0.0,0.0,0.0,0.0,0.0,0.0,0.0,0.9594,0.9704,0.9753,0.9568,0.9429,0.9302,0.9296,0.8841,0.8405,0.0,0.0,0.0,0.0,0.0,0.0,0.0,0.0,0.0,0.0,0.0,0.0,0.0,0.0,0.0,0.0,0.0,0.0,0.0,0.0,0.0,0.0,0.0,0.0,0.0,0.0,0.0,0.0,0.0,0.0,0.0,0.0,0.0,0.0,0.0,0.0,0.0,0.0,0.0,0.0,0.0,0.9449,0.995,0.9869,0.0,0.0,0.0,0.0,0.9523,0.9517,0.0,0.0,0.0,0.0,0.0,0.0,0.0,0.0,0.0,0.0,0.0,0.0,0.0,0.0,0.0,0.0,0.0,0.0,0.0,0.0,0.0,0.0,0.0,0.0,0.0,0.0,0.0,0.0,0.0,0.0,0.0,0.0,0.0,0.0,0.0,0.0,0.0,0.0,0.0,0.0,0.0,0.0,0.0,0.0,0.0,0.0,0.0,0.0,0.0,0.0,0.0,0.0,0.0,0.0,0.0,0.0,0.985,0.9856,0.985,0.9807,0.9524,0.9302,0.9296,0.8549,0.8044,0.0,0.0,0.0,0.0,0.0,0.0,0.0,0.0,0.0,0.0,0.0,0.0,0.0,0.0,0.0,0.0,0.0,0.0,0.0,0.0,0.0,0.0,0.0,0.0,0.0,0.0,0.0,0.0,0.0,0.0,0.0,0.0,0.0,0.0,0.0,0.0,0.0,0.0,0.0,0.0,0.0,0.9727,1.0188,1.0107,0.9951,0.0,0.0,1.0127,0.993,1.0341,0.0,0.0,0.0,0.0,0.0,0.0,0.0,0.0,0.0,0.0,0.0,0.0,0.0,0.0,0.0,0.0,0.0,0.0,0.0,0.0,0.0,0.0,0.0,0.0,0.0,0.0,0.0,0.0,0.0,0.0,0.0,0.0,0.0,0.0,0.0,0.0,0.0,0.0,0.0,0.0,0.0,0.0,0.0,0.0,0.0,0.0,0.0,0.0,0.0,0.0,0.0,0.0,0.0,0.0,0.0,0.9444,0.9672,0.9576,0.9601,0.9763,0.9485,0.9275,0.9209,0.8617,0.822,0.0,0.0,0.0,0.0,0.0,0.0,0.0,0.0,0.0,0.0,0.0,0.0,0.0,0.0,0.0,0.0,0.0,0.0,0.0,0.0,0.0,0.0,0.0,0.0,0.0,0.0,0.0,0.0,0.0,0.0,0.0,0.0,0.0,0.0,0.0,0.0,0.0,0.0,0.0,0.0,0.0,0.0,1.0127,1.0236,0.0,0.0,0.0,1.0263,0.9802,0.0,0.0,0.0,0.0,0.0,0.0,0.0,0.0,0.0,0.0,0.0,0.0,0.0,0.0,0.0,0.0,0.0,0.0,0.0,0.0,0.0,0.0,0.0,0.0,0.0,0.0,0.0,0.0,0.0,0.0,0.0,0.0,0.0,0.0,0.0,0.0,0.0,0.0,0.0,0.0,0.0,0.0,0.0,0.0,0.0,0.0,0.0,0.0,0.0,0.0,0.0,0.0,0.0,0.0,0.0,0.0,0.0,0.9669,0.9534,0.9659,1.0019,0.9761,0.9463,0.9275,0.8916,0.0,0.0,0.0,0.0,0.0,0.0,0.0,0.0,0.0,0.0,0.0,0.0,0.0,0.0,0.0,0.0,0.0,0.0,0.0,0.0,0.0,0.0,0.0,0.0,0.0,0.0,0.0,0.7115,0.0,0.0,0.0,0.0,0.0,0.0,0.0,0.0,0.0,0.0,0.0,0.0,0.0,0.0,1.0148,1.0114,1.0365,1.0493,0.0,0.0,1.0412,1.0005,1.0568,1.0765,0.0,0.0,0.0,0.0,0.0,0.0,0.0,0.0,0.0,0.0,0.0,0.0,0.0,0.0,0.0,0.0,0.0,0.0,0.0,0.0,0.0,0.0,0.0,0.0,0.0,0.0,0.0,0.0,0.0,0.0,0.0,0.0,0.0,0.0,0.0,0.0,0.0,0.0,0.0,0.0,0.0,0.0,0.0,0.0,0.0,0.0,0.0,0.0,0.0,0.0,0.0,0.0,0.0,0.0,0.9451,1.0199,0.9975,1.0184,1.0862,1.0599,1.0179,0.9694,0.9325,0.8813,0.0,0.0,0.0,0.0,0.0,0.0,0.0,0.0,0.0,0.0,0.0,0.0,0.0,0.0,0.0,0.0,0.0,0.0,0.0,0.0,0.0,0.0,0.0,0.0,0.0,0.0,0.0,0.0,0.0,0.0,0.0,0.0,0.0,0.0,0.0,0.0,0.0,0.0,0.0,0.0,0.0,1.0412,1.0283,1.0521,1.0792,0.0,1.0867,1.0738,1.0772,1.147,1.1572,1.0419,0.0,0.0,0.0,0.0,0.0,0.0,0.0,0.0,0.0,0.0,0.0,0.0,0.0,0.0,0.0,0.0,0.0,0.0,0.0,0.0,0.0,0.0,0.0,0.0,0.0,0.0,0.0,0.0,0.0,0.0,0.0,0.0,0.0,0.0,0.0,0.0,0.0,0.0,0.0,0.0,0.0,0.0,0.0,0.0,0.0,0.0,0.0,0.0,0.0,0.0,0.0,0.0,0.0,0.9147,1.0071,0.9723,0.993,1.0818,1.0634,1.0323,1.0054,0.9665,0.9312,0.0,0.0,0.0,0.0,0.0,0.0,0.0,0.0,0.0,0.0,0.0,0.0,0.0,0.0,0.0,0.0,0.0,0.0,0.0,0.0,0.0,0.0,0.0,0.0,0.0,0.0,0.0,0.0,0.7752,0.7801,0.7617,0.0,0.0,0.0,0.0,0.0,0.0,0.0,0.0,0.0,0.0,1.0439,1.0656,1.0867,0.0,0.0,1.109,1.0995,1.0595,1.1084,1.1165,1.0161,1.0086,0.0,0.0,0.0,0.0,0.0,0.0,0.0,0.0,0.0,0.0,0.0,0.0,0.0,0.0,0.0,0.0,0.0,0.0,0.0,0.0,0.0,0.0,0.0,0.0,0.0,0.0,0.0,0.0,0.0,0.0,0.0,0.0,0.0,0.0,0.0,0.0,0.0,0.0,0.0,0.0,0.0,0.0,0.0,0.0,0.0,0.0,0.0,0.0,0.0,0.0,0.0,0.0,0.9086,1.0118,0.9789,1.0042,1.1025,1.0914,1.0752,1.0472,1.0116,0.9707,0.0,0.0,0.0,0.0,0.0,0.0,0.0,0.0,0.0,0.0,0.0,0.0,0.0,0.0,0.0,0.0,0.0,0.0,0.0,0.0,0.0,0.0,0.0,0.0,0.0,0.0,0.0,0.0,0.7806,0.7793,0.7678,0.0,0.0,0.0,0.0,0.0,0.0,0.0,0.0,0.0,0.0,1.0453,1.0772,1.09,1.0962,1.088,1.105,1.0982,1.0602,1.086,1.0873,1.0202,0.0,0.0,0.0,0.0,0.0,0.0,0.0,0.0,0.0,0.0,0.0,0.0,0.0,0.0,0.0,0.0,0.0,0.0,0.0,0.0,0.0,0.0,0.0,0.0,0.0,0.0,0.0,1.0243,0.0,0.0,0.9766,0.0,0.0,0.0,0.0,0.0,0.0,0.0,0.0,0.0,0.0,0.0,0.0,0.0,0.0,0.0,0.0,0.0,0.0,0.0,0.0,0.0,0.0,0.9577,1.0473,1.0438,1.0806,1.1521,1.1548,1.1337,1.0902,1.0616,0.9994,0.8875,0.0,0.0,0.0,0.0,0.0,0.0,0.0,0.0,0.0,0.0,0.0,0.0,0.0,0.0,0.0,0.0,0.0,0.0,0.0,0.0,0.0,0.0,0.0,0.0,0.0,0.0,0.7179,0.7434,0.7672,0.0,0.0,0.0,0.0,0.0,0.0,0.0,0.0,0.0,0.9557,1.0114,1.0487,1.0507,1.0514,1.0636,1.0847,1.0711,1.0663,1.1056,1.1029,1.0826,0.0,0.0,0.0,0.0,0.0,0.0,0.0,0.0,0.0,0.0,0.0,0.0,0.0,0.0,0.0,0.0,0.0,0.0,0.0,0.0,0.0,0.0,0.0,0.0,0.0,0.0,0.0,0.9901,0.9965,0.0,0.0,0.0,0.0,0.0,0.0,0.0,0.0,0.0,0.0,0.0,0.9686,0.9883,0.0,0.0,0.0,0.0,0.0,0.0,0.0,0.0,0.0,0.0,0.0,0.0,0.9682,1.048,1.0518,1.0882,1.1599,1.1619,1.1473,1.1255,1.0967,1.0241,0.9193,0.0,0.0,0.0,0.0,0.0,0.0,0.0,0.0,0.0,0.0,0.0,0.0,0.0,0.0,0.0,0.0,0.0,0.0,0.0,0.0,0.0,0.0,0.0,0.0,0.0,0.7597,0.0,0.0,0.0,0.0,0.0,0.0,0.0,0.0,0.0,0.0,0.8811,0.9121,0.9754,0.9985,1.0188,1.0588,1.0731,1.0867,0.0,0.0,0.0,0.0,0.0,0.0,0.0,0.0,0.0,0.0,0.0,0.0,0.0,0.0,1.0351,0.9659,0.9686,0.9822,0.9829,0.0,0.0,0.0,0.0,0.0,0.0,0.0,0.0,0.0,0.0,0.0,0.0,0.0,0.0,0.9951,0.9897,0.9856,0.0,0.0,0.0,0.0,0.0,0.0,0.0,0.0,0.9998,1.0134,1.0141,1.0337,1.0351,1.0272,1.0154,0.9802,0.0,0.0,0.0,0.0,0.0,0.0,0.0,0.0,0.987,1.0561,1.0658,1.1004,1.1599,1.1619,1.1572,1.1463,1.0987,1.0426,0.9651,0.94,0.9058,0.0,0.0,0.0,0.0,0.0,0.0,0.0,0.0,0.0,0.0,0.0,0.0,0.0,0.0,0.0,0.0,0.0,0.0,0.0,0.0,0.0,0.0,0.0,0.7753,0.0,0.0,0.0,0.0,0.0,0.0,0.0,0.0,0.0,0.8771,0.8959,0.9408,1.0046,1.0086,1.0181,1.0521,0.0,0.0,0.0,0.0,0.0,0.0,0.0,1.057,1.0334,1.0446,1.0595,1.0833,1.1036,1.1234,1.1234,0.0,0.0,1.0297,1.0199,1.0378,1.0432,1.0358,1.0331,1.048,1.0514,1.0514,0.0,0.0,0.0,0.0,1.0514,0.0,0.0,0.0,1.0324,1.0229,0.0,1.0229,0.0,0.0,0.0,0.0,0.9856,1.0141,0.0,0.0,1.0582,1.0731,1.0731,1.0744,1.067,1.0514,1.0392,1.0299,1.0115,0.9788,0.0,0.0,0.0,0.0,0.0,0.0,1.0213,1.0717,1.1016,1.1307,1.1606,1.1619,1.1613,1.1586,1.0895,1.0396,1.0174,0.9844,0.9426,0.9123,0.8957,0.0,0.0,0.0,0.0,0.0,0.0,0.0,0.0,0.0,0.0,0.0,0.0,0.0,0.0,0.0,0.0,0.0,0.0,0.0,0.0,0.7746,0.0,0.0,0.0,0.0,0.0,0.0,0.0,0.0,0.0,0.8784,0.8898,0.9327,0.9761,1.0195,0.0,0.0,0.0,0.0,1.0616,1.0351,1.0548,1.0744,1.0751,1.0744,1.0785,1.086,0.0,0.0,1.1151,1.1185,1.1206,1.1268,1.145,1.1538,1.1233,1.1056,1.1016,1.1138,1.0955,1.0826,1.0941,1.0921,1.0914,1.1823,0.0,0.0,0.0,0.0,1.0975,1.1036,1.1219,1.1002,1.0826,1.0624,1.0622,0.0,0.0,0.0,0.0,0.0,0.0,1.0432,1.0453,1.0846,1.1036,1.1043,1.126,1.128,1.1131,1.109,1.0887,1.0541,1.0555,1.0215,0.9557,0.0,0.0,0.0,0.0,1.0432,1.0799,1.107,1.1314,1.1613,1.1619,1.1511,1.1301,1.1002,1.0558,1.0045,0.9916,0.9626,0.9142,0.8968,0.0,0.0,0.0,0.0,0.0,0.0,0.0,0.0,0.0,0.0,0.0,0.0,0.0,0.0,0.0,0.0,0.0,0.0,0.0,0.7753,0.7879,0.794,0.0,0.0,0.0,0.0,0.0,0.0,0.0,0.0,0.0,0.9323,0.9429,0.9537,0.0,0.0,0.9883,0.9944,1.0297,1.0568,1.0588,1.0846,0.0,1.1179,1.1104,1.105,1.1097,1.128,1.1443,1.1484,1.166,1.1876,1.1803,1.1877,1.1904,1.1823,1.1681,1.1592,1.1619,1.1565,1.1453,1.1565,1.1507,1.1538,1.24,1.1816,1.164,1.1531,1.147,1.1382,1.145,1.1606,1.1423,1.1226,1.1036,1.1002,1.0704,1.0229,1.0324,0.0,0.0,0.0,1.0704,1.0838,1.1097,1.1287,1.1355,1.1531,1.1538,1.1389,1.1328,1.1131,1.0745,1.0778,1.05,0.9978,0.0,0.9998,1.0086,1.027,1.0555,1.0867,1.1036,1.1199,1.143,1.1436,1.1348,1.1172,1.1023,1.0725,1.0353,1.0287,1.0064,0.9663,0.94,0.9109,0.0,0.0,0.0,0.0,0.0,0.0,0.0,0.0,0.0,0.0,0.0,0.7563,0.7475,0.0,0.0,0.0,0.7957,0.7968,0.7872,0.8065,0.0,0.0,0.0,0.0,0.0,0.0,0.0,0.8743,0.8876,0.9094,0.9512,0.9459,0.954,0.9924,0.9958,0.9971,0.9998,0.0,1.0683,1.0717,1.0975,1.1172,1.1212,1.1185,1.1234,1.1372,1.1628,1.1756,1.177,1.201,1.2054,1.206,1.206,1.206,1.206,1.1979,1.1925,1.1918,1.1823,1.1769,1.1816,1.183,1.1803,1.2929,1.2515,1.2101,1.1823,1.1674,1.1667,1.1681,1.1687,1.1681,1.1504,1.1302,1.1355,1.109,1.0548,1.0534,0.0,1.0555,1.0846,1.105,1.1185,1.1341,1.1484,1.1619,1.1619,1.1545,1.1409,1.1267,1.1118,1.0894,1.0704,1.0548,1.0514,1.0521,1.0521,1.0493,1.0493,1.0649,1.0887,1.09,1.1036,1.1248,1.1179,1.1172,1.1145,1.1029,1.0887,1.086,1.0799,1.0643,1.0473,1.0066,0.97,0.9381,0.0,0.0,0.0,0.0,0.0,0.0,0.0,0.0,0.0,0.0,0.0,0.0,0.0,0.0,0.0,0.8221,0.0,0.8104,0.8375,0.0,0.0,0.0,0.8737,0.8885,0.8856,0.8972,0.9171,0.0,0.0,0.9625,0.9465,0.9634,1.0388,1.0487,1.0426,1.0297,1.0636,1.0813,1.0738,1.0975,1.1111,1.1029,1.1097,1.1296,1.1648,1.1889,1.2052,1.2073,1.2133,1.2107,1.21,1.2127,1.212,1.2127,1.2086,1.2134,1.21,1.1869,1.1674,1.1828,1.1935,1.2001,1.3112,1.2996,1.2779,1.2474,1.2128,1.2128,1.2196,1.2277,1.2176,1.1959,1.1667,1.1592,1.1355,1.0995,1.0887,1.09,1.1016,1.1199,1.1301,1.1348,1.1491,1.1586,1.1619,1.1619,1.1599,1.1565,1.1531,1.1375,1.1124,1.1158,1.1002,1.069,1.0778,1.0724,1.05,1.0493,1.0697,1.1111,1.1111,1.1185,1.1328,1.1335,1.1226,1.1002,1.107,1.1002,1.0785,1.0744,1.0602,1.0344,1.0114,0.9748,0.9401,0.8893,0.0,0.0,0.0,0.0,0.0,0.0,0.0,0.0,0.0,0.7889,0.7773,0.0,0.8174,0.0,0.856,0.8784,0.8925,0.8994,0.0,0.0,0.8886,0.894,0.9146,0.8742,0.8749,0.9424,0.9085,0.9114,1.0011,0.9984,1.0035,1.0595,1.0201,0.9985,1.029,1.0561,1.0765,1.0758,1.0975,1.1151,1.1186,1.1138,1.1358,1.1641,1.1781,1.1894,1.2109,1.216,1.2149,1.2149,1.2149,1.2149,1.2163,1.2149,1.2156,1.217,1.2223,1.2221,1.2258,1.2366,1.2452,1.3234,1.3166,1.3085,1.2874,1.2583,1.2515,1.2488,1.2494,1.242,1.2216,1.1911,1.164,1.1423,1.1267,1.1179,1.1185,1.1274,1.1423,1.1497,1.1497,1.1579,1.1619,1.1619,1.1619,1.1586,1.1518,1.1518,1.1362,1.109,1.1219,1.1131,1.0759,1.0968,1.0962,1.0799,1.0792,1.0982,1.1355,1.1233,1.124,1.1382,1.1321,1.1179,1.0894,1.0962,1.0853,1.0629,1.0561,1.0419,1.0188,1.0032,0.9774,0.9401,0.9022,0.871,0.0,0.0,0.0,0.0,0.0,0.0,0.0,0.0,0.0,0.0,0.0,0.8499,0.8567,0.8852,0.9042,0.9055,0.9173,0.915,0.9137,0.9198,0.9293,0.9435,0.9222,0.9189,0.9633,0.94,0.939,1.0065,0.9972,1.0066,1.0516,1.0202,1.0078,1.0429,1.0677,1.0819,1.0766,1.1016,1.1207,1.1282,1.1417,1.1578,1.1917,1.2044,1.2157,1.2301,1.2285,1.22,1.22,1.22,1.22,1.22,1.22,1.2268,1.2429,1.2417,1.2437,1.2355,1.2407,1.2462,1.3322,1.32,1.32,1.3119,1.2976,1.282,1.2671,1.2528,1.2508,1.2338,1.2108,1.1626,1.1436,1.1423,1.1416,1.1423,1.143,1.1558,1.1619,1.1619,1.1619,1.1619,1.1619,1.1619,1.1552,1.1423,1.1416,1.1274,1.0948,1.1131,1.1118,1.0989,1.1104,1.1179,1.1219,1.1219,1.1341,1.1586,1.1328,1.126,1.1389,1.1226,1.1077,1.088,1.0732,1.0649,1.0493,1.0358,1.0209,0.999,0.9903,0.9707,0.9449,0.9137,0.8858,0.0,0.852,0.0,0.0,0.0,0.0,0.0,0.0,0.0,0.0,0.8662,0.8811,0.8981,0.911,0.9144,0.8999,0.9164,0.9293,0.9422,0.9557,0.9686,0.9802,0.9761,0.9768,0.9849,0.9768,0.9822,1.0004,0.986,0.9908,1.0381,1.032,1.0313,1.0624,1.0799,1.0826,1.0853,1.1023,1.1173,1.134,1.1547,1.1799,1.2137,1.2304,1.2471,1.2538,1.2368,1.2262,1.2262,1.2316,1.2323,1.227,1.2262,1.2399,1.2725,1.2647,1.2489,1.2407,1.2406,1.246,1.3383,1.3356,1.3356,1.3268,1.3119,1.2983,1.2827,1.2678,1.2556,1.2338,1.2054,1.1837,1.1687,1.1579,1.1579,1.1572,1.1579,1.1606,1.1619,1.1619,1.1619,1.1619,1.1619,1.1619,1.1606,1.1579,1.1579,1.1484,1.1307,1.1335,1.1267,1.1124,1.1151,1.1287,1.1518,0.0,0.0,0.0,1.1375,1.1362,1.1375,1.1124,1.0907,1.088,1.0799,0.0,1.05,1.0351,1.0209,0.999,0.9903,0.0,0.0,0.0,0.0,0.0,0.0,0.0,0.0,0.0,0.0,0.0,0.8818,0.8737,0.8845,0.8824,0.9008,0.9266,0.932,0.9422,0.9632,0.968,0.9707,0.9734,0.9761,0.9795,0.9815,0.9579,0.9564,0.993,0.9652,0.9617,1.0105,1.0092,1.0029,1.0304,1.0381,1.0462,1.0534,1.067,1.0765,1.0772,1.0806,1.0806,1.0838,1.1136,1.1512,1.1791,1.213,1.2425,1.2706,1.2722,1.2672,1.268,1.2672,1.2672,1.268,1.2672,1.2688,1.2813,1.2781,1.2805,1.2906,1.3066,1.3122,1.3397,1.3397,1.3397,1.3356,0.0,1.3057,1.2915,1.2834,1.2596,1.2332,1.2121,1.1823,1.1687,1.1619,1.1619,1.1619,1.1619,1.1619,1.1619,1.1619,1.1619,1.1619,1.1619,1.1619,1.1619,1.1619,1.1619,1.1538,1.1402,1.147,1.1423,1.1274,1.1348,1.1463,1.1613,1.1687,1.1721,1.1721,1.1579,1.1538,1.1592,1.1321,1.1165,1.1158,1.0873,0.0,0.0,0.0,0.0,0.0,0.0,0.0,0.0,0.9503,0.0,0.9483,0.9279,0.9191,0.9259,0.9198,0.9218,0.9361,0.9316,0.9313,0.9171,0.9286,0.9435,0.9578,0.9598,0.9659,0.9802,0.9822,0.9822,0.9822,0.9822,0.9822,0.9761,0.964,0.9612,0.9849,0.9686,0.9706,0.997,1.0066,1.0017,1.0161,1.029,1.0385,1.0405,1.0582,1.0717,1.0717,1.0717,1.079,1.0916,1.1247,1.1578,1.1975,1.2305,1.2568,1.2774,1.2766,1.2766,1.2766,1.2767,1.2726,1.275,1.2767,1.2751,1.2897,1.2824,1.2848,1.3133,1.3238,1.3181,1.3397,1.3397,1.3397,1.3383,1.3342,1.3071,1.3009,1.294,1.261,0.0,0.0,1.1816,1.1681,1.1653,1.1633,1.1619,1.1619,1.1619,1.1619,1.1619,1.1619,1.1619,1.1619,1.1619,1.1619,1.1619,1.1619,1.1558,1.1436,1.1558,1.1558,1.145,1.1558,1.1619,1.1626,1.1735,1.1857,1.1965,1.1742,1.1674,1.1782,1.1477,1.1321,1.1348,1.0914,1.069,1.0717,1.0412,1.0134,0.9917,0.9829,0.9741,0.9652,0.9625,0.9618,0.9639,0.953,0.9517,0.9632,0.953,0.9564,0.9808,0.9822,0.9727,0.951,0.97,0.9822,0.9822,0.9822,0.9822,0.9822,0.9822,0.9822,0.9822,0.9822,0.9822,0.9822,0.9822,0.9761,0.9822,0.9822,0.9822,0.9836,0.9869,0.995,0.9963,1.0141,1.0256,1.0304,1.0507,1.0663,1.0663,1.069,1.0784,1.1049,1.138,1.1784,1.1982,1.2371,1.27,1.27,1.2766,1.2766,1.2766,1.2686,1.2645,1.2743,1.267,1.2735,1.2946,1.2808,1.2726,1.3092,1.3157,1.3084,1.3403,1.3397,1.3397,1.3322,1.3193,1.303,1.2813,1.2569,1.2522,1.2406,1.225,1.2074,1.1925,1.1796,1.1674,1.1619,1.1619,1.1619,1.1619,1.1619,1.1619,1.1619,1.1619,1.1619,1.1619,1.1619,1.1619,1.1606,1.1592,1.1606,1.1606,1.1592,1.1613,1.1619,1.1619,1.164,1.166,1.1681,1.164,1.1626,1.164,1.1163,1.107,1.1241,1.0765,1.0588,1.0704,1.0247,1.0127,1.0202,0.9849,0.968,0.9781,0.968,0.9666,0.9774,0.9768,0.9768,0.9788,0.9768,0.9774,0.9815,0.9822,0.9856,0.9883,0.9869,0.9822,0.9822,0.9822,0.9822,0.9822,0.9822,0.9822,0.9822,0.9822,0.9822,0.9822,0.9822,0.9822,0.9822,0.9822,0.9822,0.9822,0.9788,0.9869,0.9876,0.993,1.0065,1.0256,1.0419,1.0514,1.0541,1.0636,1.0711,1.085,1.1049,1.1314,1.1314,1.1975,1.2437,1.2444,1.2634,1.2766,1.2766,1.2686,1.2596,1.2621,1.2588,1.2605,1.2759,1.271,1.2775,1.28,1.2946,1.3181,1.3478,1.3403,1.3397,1.3363,1.3281,1.3138,1.2834,1.2623,1.2535,1.242,1.2264,1.1965,1.1823,1.1816,1.1681,1.1619,1.1619,1.1619,1.1619,1.1619,1.1619,1.1619,1.1619,1.1619,1.1619,1.1619,1.1619,1.1619,1.1619,1.1619,1.1619,1.1619,1.1619,1.1619,1.1619,1.1619,1.1619,1.1619,1.1619,1.1619,1.1613,1.1253,1.1138,1.1274,1.0853,1.069,1.0833,1.0568,1.0405,1.0392,1.0127,1.0005,1.0059,0.993,0.9815,0.9876,0.9883,0.9944,0.9951,0.9944,0.9944,0.9883,0.9802,0.989,0.9977,0.9849,0.9822,0.9822,0.9822,0.9822,0.9822,0.9822,0.9822,0.9822,0.9822,0.9822,0.9822,0.9822,0.9822,0.9822,0.9822,0.9822,0.9822,0.9822,0.9822,0.9768,0.9829,0.9923,1.0134,1.0283,1.0405,1.0487,1.0622,1.0704,1.0717,1.0982,1.1247,1.1512,1.1975,1.2305,1.2503,1.27,1.2766,1.2758,1.2686,1.2621,1.2678,1.2621,1.2621,1.2694,1.267,1.2702,1.2832,1.3068,1.3287,1.3566,1.3451,1.3417,1.3363,1.3275,1.2983,1.2786,1.2664,1.2522,1.2413,1.2291,1.1932,1.1796,1.1743,1.1714,1.1653,1.1619,1.1619,1.1619,1.1619,1.1619,1.1619,1.1619,1.1619,1.1619,1.1619,1.1619,1.1619,1.1619,1.1619,1.1619,1.1619,1.1619,1.1619,1.1619,1.1619,1.1619,1.1619,1.1619,1.1619,1.1606,1.1321,1.124,1.1348,1.0955,1.0806,1.0975,1.0785,1.0629,1.0541,1.0378,1.034,1.027,1.0134,0.999,0.9984,0.9957,0.9998,0.9998,0.9998,0.9936,0.9936,0.989,0.9869,0.9909,0.9829,0.9822,0.9822,0.9822,0.9822,0.9822,0.9822,0.9822,0.9822,0.9822,0.9822,0.9822,0.9822,0.9822,0.9822,0.9822,0.9822,0.9822,0.9822,0.9822,0.9822,0.9822,0.9815,0.9923,1.0127,1.027,1.0399,1.0575,1.0711,1.0717,1.0916,1.1181,1.1578,1.1909,1.2239,1.2561,1.2676,1.2775,1.2743,1.2621,1.2556,1.267,1.2645,1.2621,1.271,1.2694,1.2743,1.3003,1.3165,1.3319,1.362,1.3587,1.3451,1.3241,1.2996,1.2691,1.2556,1.2522,1.2372,1.2379,1.244,1.2298,1.2067,1.185,1.1816,1.1735,1.1619,1.1619,1.1619,1.1619,1.1619,1.1619,1.1619,1.1619,1.1619,1.1619,1.1619,1.1619,1.1619,1.1619,1.1619,1.1619,1.1619,1.1619,1.1619,1.1619,1.1619,1.1619,1.1619,1.1619,1.1599,1.1321,1.124,1.1375,1.0962,1.0853,1.1104,1.0738,1.0575,1.0663,1.0432,1.0347,1.027,1.0071,0.999,0.9984,0.9924,0.9842,0.9842,0.9842,0.9788,0.9842,0.9842,0.9836,0.9788,0.9829,0.9822,0.9822,0.9822,0.9822,0.9822,0.9822,0.9822,0.9822,0.9822,0.9822,0.9822,0.9822,0.9822,0.9822,0.9822,0.9822,0.9822,0.9822,0.9822,0.9822,0.9822,0.9781,0.9897,0.9943,1.012,1.0125,1.0375,1.067,1.069,1.0717,1.0962,1.1233,1.1585,1.1982,1.2363,1.2596,1.2596,1.2678,1.2515,1.2442,1.245,1.245,1.258,1.2661,1.2735,1.2856,1.3043,1.3251,1.3392,1.3648,1.3492,1.3424,1.3336,1.3186,1.2901,1.2773,1.2752,1.2515,1.2406,1.2372,1.2318,1.2169,1.1959,1.1789,1.1674,1.1619,1.1619,1.1619,1.1619,1.1619,1.1619,1.1619,1.1619,1.1619,1.1619,1.1619,1.1619,1.1619,1.1619,1.1619,1.1619,1.1619,1.1619,1.1619,1.1619,1.1619,1.1619,1.1619,1.1619,1.1592,1.1409,1.1328,1.1355,1.1124,1.0989,1.1016,1.0853,1.0751,1.0711,1.0521,1.0405,1.0405,1.027,1.0148,0.999,0.9849,0.9822,0.9822,0.9842,0.9856,0.9829,0.9903,0.9924,0.9829,0.9822,0.9822,0.9822,0.9822,0.9822,0.9822,0.9822,0.9822,0.9822,0.9822,0.9822,0.9822,0.9822,0.9822,0.9822,0.9822,0.9822,0.9822,0.9822,0.9822,0.9822,0.9822,0.9788,0.9876,0.995,1.0058,1.0276,1.0419,1.0446,1.048,1.0541,1.0836,1.1337,1.1733,1.2029,1.246,1.2765,1.2856,1.2743,1.2637,1.2588,1.2653,1.2653,1.2726,1.2718,1.2808,1.2997,1.3725,1.4019,1.4325,1.3695,1.3464,1.3336,1.3281,1.3254,1.2963,1.2834,1.2813,1.2596,1.242,1.2291,1.225,1.2142,1.1979,1.1769,1.166,1.1619,1.1619,1.1619,1.1619,1.1619,1.1619,1.1619,1.1619,1.1619,1.1619,1.1619,1.1619,1.1619,1.1619,1.1619,1.1619,1.1619,1.1619,1.1619,1.1619,1.1619,1.1619,1.1619,1.1619,1.1606,1.1511,1.145,1.1436,1.1226,1.107,1.0941,1.0928,1.0766,1.0724,1.0609,1.0555,1.0548,1.0419,1.0249,1.0004,0.9883,0.9802,0.9822,0.9862,0.9896,0.9835,0.9896,0.9896,0.9897,0.9781,0.9822,0.9822,0.9822,0.9822,0.9822,0.9822,0.9822,0.9822,0.9822,0.9822,0.9822,0.9822,0.9822,0.9822,0.9822,0.9822,0.9822,0.9822,0.9822,0.9822,0.9822,0.9788,0.9889,0.9923,0.9997,1.027,1.0209,1.0249,1.0358,1.0637,1.1004,1.1468,1.1932,1.2427,1.2805,1.2944,1.3059,1.2873,1.2832,1.2718,1.2743,1.2783,1.2726,1.2775,1.2922,1.3373,1.4089,1.4723,1.572,1.3671,1.3559,1.3159,1.301,1.2963,1.2678,1.2535,1.2562,1.2508,1.242,1.2277,1.2142,1.1986,1.185,1.1809,1.1742,1.1633,1.1619,1.1619,1.1619,1.1619,1.1619,1.1619,1.1619,1.1619,1.1619,1.1619,1.1619,1.1619,1.1619,1.1619,1.1619,1.1619,1.1619,1.1619,1.1619,1.1619,1.1619,1.1619,1.1619,1.1619,1.1613,1.1599,1.1558,1.1192,1.1043,1.1097,1.088,1.0731,1.0717,1.0704,1.0704,1.069,1.0561,1.0344,1.0038,0.9984,0.9916,0.9856,0.9856,0.9856,0.9936,0.9869,0.9903,0.9977,0.9849,0.9829,0.9822,0.9829,0.9822,0.9836,0.9829,0.9822,0.9822,0.9822,0.9822,0.9822,0.9822,0.9822,0.9822,0.9822,0.9822,0.9822,0.9822,0.9829,0.9836,0.9829,0.9856,0.989,0.9876,0.991,0.9937,0.9971,1.0046,1.0555,1.0792,1.122,1.1703,1.2155,1.277,1.2906,1.2994,1.3003,1.2954,1.2791,1.2726,1.2767,1.271,1.2693,1.2917,1.3629,1.4143,1.5024,1.5862,1.684,1.3695,1.3471,1.3315,1.3186,1.3078,1.2881,1.2739,1.2644,1.2542,1.242,1.2277,1.2128,1.1979,1.183,1.1735,1.1667,1.1619,1.1619,1.1619,1.1619,1.1619,1.1619,1.1619,1.1619,1.1619,1.1619,1.1619,1.1619,1.1619,1.1619,1.1619,1.1619,1.1619,1.1619,1.1619,1.1619,1.1619,1.1619,1.1619,1.1619,1.1619,1.1619,1.1619,1.1606,1.1369,1.1206,1.1234,1.0968,1.0752,1.0724,1.0717,1.0717,1.0704,1.0575,1.0453,1.0344,1.0243,1.0127,1.0005,1.0059,1.0134,1.0175,0.999,1.0073,1.0215,1.0032,0.9795,0.9862,0.9808,0.9856,0.9924,0.9883,0.9822,0.9822,0.9822,0.9829,0.9822,0.9822,0.9822,0.9822,0.9822,0.9822,0.9842,0.9822,0.9856,0.9883,0.9903,1.0005,1.0086,1.0114,1.012,1.0202,1.0181,1.0249,1.0629,1.0788,1.112,1.1672,1.216,1.261,1.2845,1.3027,1.3051,1.2986,1.2808,1.271,1.2767,1.3068,1.2965,1.3302,1.4006,1.514,1.6193,1.6939,1.8094,1.358,1.3403,1.3295,1.32,1.3085,1.2895,1.2752,1.2644,1.2542,1.2393,1.2223,1.2108,1.1952,1.1775,1.166,1.1619,1.1619,1.1619,1.1619,1.1619,1.1619,1.1619,1.1619,1.1619,1.1619,1.1619,1.1619,1.1619,1.1619,1.1619,1.1619,1.1619,1.1619,1.1619,1.1619,1.1619,1.1619,1.1619,1.1619,1.1619,1.1619,1.1619,1.1592,1.1538,1.1443,1.1321,1.1234,1.1023,1.0813,1.0744,1.0717,1.0717,1.0711,1.0622,1.0541,1.0487,1.0399,1.0304,1.0222,1.029,1.0392,1.0473,1.031,1.0304,1.05,1.0154,0.9923,0.9936,0.9903,0.9883,1.0012,0.9998,0.9951,0.991,0.9835,0.9835,0.9835,0.9944,0.9971,0.9985,0.9992,0.9978,0.9971,0.9971,1.0025,1.0114,1.012,1.0175,1.0256,1.0347,1.0304,1.0392,1.0317,1.0365,1.0692,1.0962,1.1221,1.176,1.2406,1.272,1.2837,1.2968,1.3068,1.2994,1.2905,1.28,1.2898,1.3276,1.3534,1.3662,1.4634,1.5742,1.6882,1.7969,1.8884,1.341,1.3363,1.3091,1.2996,1.2942,1.2684,1.2522,1.2522,1.2508,1.2352,1.2135,1.2155,1.1938,1.1701,1.1681,1.1647,1.166,1.1667,1.1647,1.1619,1.1619,1.1619,1.1619,1.1619,1.1619,1.1619,1.1619,1.1619,1.1619,1.1619,1.1619,1.1619,1.1619,1.1619,1.1619,1.1619,1.1619,1.1619,1.1619,1.1619,1.1619,1.1619,1.1558,1.1443,1.1416,1.1335,1.1241,1.1023,1.0806,1.0744,1.0717,1.0717,1.0717,1.0704,1.0649,1.0534,1.05,1.0493,1.0487,1.0493,1.0622,1.0799,1.0649,1.0555,1.0677,1.0365,1.0044,1.0065,1.0031,1.0011,1.0038,1.0175,1.0188,1.0017,0.999,0.999,1.0073,1.0175,1.027,1.0249,1.0229,1.0333,1.0333,1.0229,1.0229,1.0263,1.0276,1.0297,1.0351,1.0378,1.0331,1.0331,1.0426,1.0582,1.0809,1.1099,1.1461,1.1909,1.2633,1.3157,1.2952,1.3019,1.3092,1.3043,1.2921,1.28,1.2939,1.3282,1.3741,1.4108,1.5207,1.6393,1.7449,1.8494,1.9267,1.3735,1.3376,1.3186,1.3051,1.2942,1.2739,1.2603,1.2508,1.2501,1.2393,1.2244,1.2223,1.2108,1.1959,1.1925,1.1925,1.1925,1.1918,1.1816,1.1653,1.1626,1.1626,1.1626,1.1619,1.1619,1.1619,1.1619,1.1619,1.1619,1.1619,1.1619,1.1619,1.1619,1.1619,1.1619,1.1619,1.1619,1.1619,1.1619,1.1619,1.1619,1.1619,1.1592,1.1558,1.1545,1.143,1.1248,1.1023,1.0813,1.0731,1.0717,1.0717,1.0717,1.0717,1.0697,1.0663,1.0649,1.0649,1.0649,1.0663,1.0785,1.0975,1.0826,1.0853,1.1077,1.0758,1.0507,1.0487,1.0419,1.0351,1.0351,1.0304,1.0276,1.0215,1.0209,1.0209,1.0222,1.0263,1.034,1.034,1.034,1.034,1.0283,1.029,1.0337,1.0419,1.0426,1.0453,1.0555,1.0636,1.0683,1.0616,1.0731,1.0785,1.0971,1.1304,1.1762,1.2081,1.2649,1.3124,1.3019,1.297,1.3043,1.3043,1.2921,1.2914,1.3046,1.3412,1.3878,1.4872,1.6111,1.7134,1.8062,1.8828,1.9513,1.3865,1.3548,1.3234,1.301,1.2861,1.2712,1.2596,1.2508,1.2501,1.2427,1.2311,1.2291,1.2203,1.2081,1.206,1.206,1.206,1.206,1.1959,1.1803,1.1782,1.1782,1.1782,1.1782,1.1748,1.1708,1.1701,1.1701,1.1694,1.1647,1.1619,1.1619,1.1619,1.1619,1.1619,1.1619,1.1619,1.1619,1.1619,1.1619,1.1619,1.1619,1.1592,1.1552,1.1592,1.143,1.1118,1.1036,1.0934,1.0765,1.0717,1.0717,1.0717,1.0717,1.0717,1.0717,1.0731,1.0765,1.086,1.0894,1.1016,1.1219,1.1111,1.1077,1.1253,1.0982,1.0731,1.0704,1.0575,1.0493,1.0487,1.0541,1.05,1.0446,1.0392,1.0392,1.0419,1.0439,1.0446,1.046,1.046,1.0446,1.0446,1.0446,1.0473,1.0561,1.0575,1.0588,1.0724,1.0839,1.0839,1.0867,1.0955,1.0995,1.1091,1.1521,1.2088,1.233,1.2566,1.2802,1.2913,1.2889,1.2921,1.2905,1.2816,1.2953,1.3095,1.3772,1.4418,1.57,1.6771,1.7579,1.8265,1.8968,1.9603,1.4056,1.3729,1.3265,1.2961,1.2732,1.2583,1.2515,1.2501,1.2501,1.2433,1.2332,1.2325,1.2244,1.2196,1.2135,1.2135,1.2094,1.2121,1.2128,1.2094,1.2081,1.2067,1.202,1.2006,1.1945,1.1864,1.1823,1.1823,1.1723,1.1681,1.1619,1.1619,1.1619,1.1619,1.1619,1.1619,1.1619,1.1619,1.1619,1.1619,1.1619,1.1619,1.1565,1.1443,1.1545,1.1423,1.1084,1.1043,1.0975,1.0758,1.0717,1.0717,1.0717,1.0717,1.0717,1.0717,1.0717,1.0873,1.1077,1.1111,1.1253,1.1511,1.1443,1.1402,1.1369,1.1111,1.0873,1.0833,1.0704,1.0595,1.0636,1.0738,1.0752,1.0717,1.0575,1.0568,1.0683,1.0697,1.067,1.0683,1.0711,1.0711,1.0677,1.0677,1.069,1.0697,1.0697,1.0704,1.0744,1.0846,1.0934,1.1016,1.1104,1.1192,1.1282,1.1886,1.2388,1.2467,1.2663,1.2866,1.2938,1.2889,1.2848,1.2816,1.28,1.2981,1.3375,1.4043,1.4861,1.5818,1.6774,1.7643,1.8452,1.9108,1.9579,1.4542,1.381,1.3573,1.3186,1.2718,1.2569,1.2501,1.2501,1.2501,1.2474,1.244,1.2447,1.2413,1.2386,1.2379,1.2386,1.2366,1.2372,1.2386,1.2386,1.2386,1.225,1.2101,1.2067,1.2121,1.1993,1.1898,1.183,1.1743,1.1694,1.1619,1.1619,1.1619,1.1619,1.1619,1.1619,1.1619,1.1619,1.1619,1.1619,1.1619,1.1619,1.1606,1.1572,1.1599,1.1443,1.1118,1.0928,1.0812,1.0738,1.0717,1.0717,1.0717,1.0717,1.0717,1.0717,1.0731,1.0846,1.109,1.1234,1.1307,1.1572,1.1572,1.1558,1.1558,1.1457,1.1328,1.1246,1.1165,1.1084,1.1002,1.0955,1.0887,1.0751,1.0683,1.0663,1.0704,1.0717,1.0717,1.0717,1.0717,1.0717,1.0717,1.0717,1.0717,1.0717,1.0717,1.0717,1.0758,1.0907,1.1029,1.1029,1.1185,1.1314,1.1614,1.2243,1.2581,1.261,1.2812,1.3126,1.3108,1.297,1.2921,1.2807,1.2939,1.3079,1.3672,1.4372,1.5173,1.605,1.7037,1.8069,1.8563,1.9108,1.9543,1.4771,1.3952,1.3633,1.3161,1.263,1.2535,1.2501,1.2501,1.2501,1.2501,1.2501,1.2501,1.2501,1.2501,1.2501,1.2501,1.2501,1.2501,1.2494,1.2494,1.2488,1.2366,1.2216,1.2203,1.2216,1.2142,1.1999,1.1938,1.1891,1.1721,1.1626,1.1619,1.1619,1.1619,1.1619,1.1619,1.1619,1.1619,1.1619,1.1619,1.1619,1.1619,1.1619,1.1619,1.1613,1.1477,1.1179,1.0941,1.0792,1.0738,1.0717,1.0717,1.0717,1.0717,1.0717,1.0717,1.0717,1.0846,1.109,1.1234,1.1307,1.1545,1.1619,1.1619,1.1599,1.1572,1.147,1.1389,1.1341,1.1253,1.1165,1.1036,1.0948,1.0907,1.0799,1.0724,1.0717,1.0717,1.0717,1.0717,1.0717,1.0717,1.0717,1.0717,1.0717,1.0717,1.0717,1.0717,1.0744,1.0941,1.1084,1.1124,1.124,1.1369,1.1662,1.2215,1.2712,1.2763,1.2936,1.3283,1.3279,1.31,1.3003,1.2988,1.3029,1.329,1.3959,1.4696,1.564,1.6522,1.7514,1.8274,1.8819,1.9314,1.9712,1.4869,1.4221,1.3663,1.3035,1.2599,1.2579,1.2579,1.2501,1.2501,1.2501,1.2501,1.2501,1.2501,1.2501,1.2501,1.2501,1.2501,1.2501,1.2501,1.2501,1.2494,1.242,1.2338,1.24,1.2393,1.2298,1.2155,1.2074,1.1986,1.1769,1.166,1.1653,1.164,1.1633,1.1647,1.1633,1.1619,1.1619,1.1619,1.1619,1.1619,1.1619,1.1619,1.1613,1.1572,1.1463,1.1226,1.1029,1.0826,1.0778,1.0744,1.0724,1.0717,1.0717,1.0717,1.0717,1.0731,1.0846,1.1077,1.1124,1.1246,1.1477,1.1538,1.1572,1.1518,1.143,1.1355,1.1341,1.1253,1.1226,1.1199,1.1077,1.1056,1.107,1.09,1.0772,1.0758,1.0738,1.0717,1.0717,1.0717,1.0717,1.0717,1.0717,1.0717,1.0717,1.0717,1.0717,1.0778,1.0941,1.1029,1.1056,1.1212,1.1416,1.1761,1.2244,1.2649,1.2871,1.3074,1.336,1.3425,1.3287,1.3133,1.3053,1.3185,1.3573,1.4187,1.503,1.6043,1.6948,1.794,1.8608,1.9157,1.9664,2.011,1.5111,1.4301,1.4286,1.3652,1.267,1.2811,1.2811,1.2501,1.2501,1.2501,1.2501,1.2501,1.2501,1.2501,1.2501,1.2501,1.2501,1.2501,1.2501,1.2501,1.2501,1.2488,1.2454,1.2488,1.2481,1.2413,1.2305,1.2182,1.2047,1.1891,1.1782,1.1775,1.1681,1.1674,1.1755,1.1667,1.1619,1.1619,1.1619,1.1619,1.1619,1.1619,1.1619,1.1606,1.1518,1.143,1.1314,1.1084,1.0995,1.0995,1.0867,1.0758,1.0738,1.0724,1.0717,1.0717,1.0724,1.0806,1.0887,1.1016,1.107,1.1253,1.1301,1.126,1.126,1.1253,1.1219,1.1233,1.128,1.1321,1.1335,1.1314,1.1246,1.1158,1.1023,1.0934,1.0995,1.086,1.0751,1.0731,1.0731,1.0717,1.0724,1.0717,1.0717,1.0717,1.0717,1.0717,1.0812,1.0934,1.0989,1.1023,1.1253,1.145,1.1697,1.2173,1.2836,1.3114,1.3322,1.3425,1.3482,1.3371,1.3151,1.3195,1.3382,1.3904,1.4569,1.5564,1.66,1.7446,1.8265,1.8976,1.9579,2.0062,2.034,1.503,1.4301,1.4294,1.3737,1.2902,1.3042,1.2965,1.2733,1.2579,1.2501,1.2501,1.2501,1.2501,1.2501,1.2501,1.2501,1.2501,1.2501,1.2461,1.2433,1.2454,1.2467,1.2427,1.2467,1.2501,1.2481,1.2352,1.2244,1.2135,1.1965,1.1864,1.1911,1.1728,1.1701,1.1789,1.1687,1.1626,1.1619,1.1619,1.1619,1.1619,1.1619,1.1619,1.1613,1.1538,1.147,1.1375,1.1253,1.1172,1.1124,1.1009,1.0894,1.0752,1.0758,1.0724,1.0717,1.0724,1.0792,1.084,1.0887,1.1016,1.1145,1.1227,1.1234,1.1234,1.1234,1.1234,1.1261,1.1294,1.1409,1.1484,1.1409,1.1341,1.1274,1.1138,1.1063,1.1036,1.0921,1.0826,1.0826,1.0839,1.0785,1.0758,1.0724,1.0717,1.0717,1.0717,1.0724,1.0758,1.088,1.0968,1.107,1.1314,1.1541,1.1633,1.218,1.3024,1.3271,1.3518,1.3547,1.3587,1.3363,1.302,1.3368,1.3813,1.4456,1.5194,1.6213,1.7089,1.7851,1.8641,1.9382,1.9953,2.0291,2.0484,1.4766,1.4373,1.4192,1.3715,1.3134,1.3204,1.312,1.2888,1.2656,1.2501,1.2501,1.2501,1.2501,1.2501,1.2501,1.2501,1.2494,1.2454,1.2393,1.2338,1.2406,1.2386,1.2359,1.2433,1.2501,1.2488,1.24,1.2325,1.2216,1.2054,1.1986,1.2074,1.1869,1.1814,1.1782,1.1773,1.1691,1.1619,1.1619,1.1619,1.1619,1.1619,1.1619,1.1613,1.1606,1.1552,1.1457,1.1382,1.1335,1.124,1.1192,1.1111,1.1016,1.088,1.0785,1.0799,1.0826,1.0867,1.086,1.0887,1.0995,1.1104,1.1084,1.1084,1.1077,1.1056,1.105,1.1124,1.1212,1.1409,1.1572,1.1525,1.145,1.1396,1.1287,1.1158,1.1077,1.0968,1.0941,1.082,1.0813,1.0786,1.0772,1.0717,1.0717,1.0717,1.0717,1.0731,1.0765,1.0846,1.0955,1.1084,1.1307,1.1846,1.203,1.2251,1.3024,1.3405,1.3595,1.3571,1.3571,1.3287,1.3219,1.3947,1.4485,1.5052,1.5798,1.6947,1.7745,1.827,1.9006,1.9807,2.0243,2.0509,2.0605,1.4898,1.4764,1.4462,1.3844,1.3204,1.3428,1.3197,1.2656,1.2579,1.2501,1.2501,1.2501,1.2501,1.2501,1.2501,1.2501,1.2481,1.2406,1.2318,1.2284,1.2325,1.2305,1.2305,1.2427,1.2494,1.2501,1.2461,1.24,1.2318,1.2237,1.2135,1.2121,1.2171,1.2108,1.1928,1.199,1.1835,1.1691,1.1619,1.1619,1.1619,1.1619,1.1619,1.1619,1.1619,1.1599,1.1558,1.1463,1.1436,1.1504,1.1301,1.1253,1.1253,1.1165,1.109,1.105,1.1043,1.1023,1.0982,1.0887,1.0826,1.0833,1.0826,1.0819,1.0812,1.0819,1.0867,1.0934,1.109,1.1314,1.1586,1.1579,1.1579,1.1538,1.1457,1.1375,1.1409,1.1348,1.1131,1.0894,1.0826,1.0826,1.0792,1.0717,1.0717,1.0717,1.0717,1.0717,1.0738,1.0853,1.0989,1.1131,1.1287,1.1938,1.2494,1.2644,1.3009,1.3365,1.3571,1.3457,1.3409,1.323,1.3461,1.4258,1.4872,1.5344,1.6326,1.7555,1.837,1.9006,1.9677,2.0291,2.0448,2.0605,2.0617,1.4582,1.4719,1.4329,1.3896,1.352,1.3583,1.3351,1.2811,1.2579,1.2501,1.2501,1.2501,1.2501,1.2501,1.2501,1.2501,1.2461,1.2359,1.225,1.2203,1.2244,1.2237,1.2223,1.2393,1.2481,1.2501,1.2494,1.2474,1.2393,1.2318,1.225,1.2224,1.2181,1.2056,1.2022,1.1911,1.1921,1.1835,1.1763,1.1619,1.1619,1.1619,1.1619,1.1619,1.1619,1.1619,1.1606,1.1565,1.1545,1.1572,1.1477,1.1457,1.1457,1.143,1.1321,1.1206,1.1241,1.1145,1.105,1.1002,1.0847,1.0786,1.0778,1.0724,1.0717,1.0738,1.0778,1.0941,1.1029,1.1287,1.1586,1.1613,1.1619,1.1606,1.1545,1.1511,1.1504,1.1504,1.1246,1.0934,1.0989,1.0955,1.0765,1.0717,1.0717,1.0717,1.0717,1.0724,1.0731,1.0853,1.1002,1.1255,1.1475,1.2045,1.2659,1.2881,1.3019,1.3372,1.3413,1.3376,1.3282,1.3094,1.377,1.4691,1.5196,1.5722,1.6897,1.8083,1.8933,1.9628,2.0135,2.0484,2.0581,2.0665,2.0665,1.4339,1.4688,1.4109,1.3863,1.3759,1.3667,1.3428,1.312,1.2656,1.2579,1.2656,1.2579,1.2501,1.2501,1.2494,1.2488,1.2524,1.2381,1.2231,1.2216,1.2237,1.2169,1.2176,1.2325,1.2501,1.2501,1.2501,1.2501,1.2467,1.24,1.2318,1.2251,1.2039,1.2049,1.2205,1.21,1.2058,1.1979,1.1907,1.1691,1.1619,1.1619,1.1619,1.1619,1.1619,1.1619,1.1613,1.1606,1.1599,1.1613,1.1599,1.1606,1.1613,1.1619,1.1504,1.1307,1.126,1.124,1.1185,1.1131,1.1063,1.0995,1.0853,1.0785,1.0758,1.0778,1.0833,1.1084,1.1241,1.1287,1.1552,1.1619,1.1619,1.1619,1.1606,1.1586,1.1531,1.1484,1.1382,1.1206,1.1172,1.1002,1.0792,1.0717,1.0717,1.0717,1.0717,1.0785,1.0799,1.0799,1.1016,1.1365,1.1678,1.2244,1.2681,1.3031,1.3193,1.3416,1.3352,1.3189,1.3069,1.3005,1.3963,1.4968,1.5555,1.6186,1.7477,1.8484,1.9206,1.979,2.0371,2.0629,2.0653,2.0735,2.0735,1.4469,1.5072,1.4144,1.3682,1.3667,1.3667,1.3428,1.3042,1.2656,1.2733,1.2965,1.2656,1.2501,1.2494,1.2488,1.265,1.2678,1.2299,1.2168,1.2293,1.2189,1.2176,1.2183,1.2366,1.2544,1.2565,1.2494,1.2501,1.2558,1.2531,1.2325,1.221,1.2345,1.2427,1.2402,1.2352,1.2474,1.2266,1.2122,1.1907,1.1691,1.1619,1.1619,1.1619,1.1619,1.1619,1.1619,1.1619,1.1619,1.1619,1.1619,1.1619,1.1619,1.1619,1.1613,1.1579,1.1552,1.1504,1.1389,1.1307,1.1246,1.1138,1.0995,1.0867,1.0793,1.0806,1.0867,1.1124,1.1234,1.1301,1.1538,1.1606,1.1613,1.1606,1.1592,1.1592,1.1565,1.1484,1.1382,1.124,1.1131,1.0975,1.0792,1.0751,1.0717,1.0717,1.0738,1.0799,1.0826,1.0907,1.0995,1.1343,1.1861,1.243,1.2794,1.308,1.3295,1.349,1.3246,1.3043,1.3079,1.3244,1.4274,1.5177,1.5866,1.6942,1.8395,1.9197,1.9527,1.9941,2.0512,2.0653,2.0665,2.0735,2.0804,1.4453,1.5004,1.4075,1.3667,1.3667,1.3436,1.3281,1.3042,1.2656,1.2733,1.2965,1.2656,1.2501,1.2488,1.2427,1.2574,1.2698,1.2263,1.2125,1.2318,1.2194,1.2054,1.2135,1.2338,1.2551,1.2657,1.2601,1.2664,1.2664,1.2587,1.2428,1.24,1.2345,1.2567,1.2582,1.2553,1.2545,1.2402,1.2122,1.1763,1.1619,1.1619,1.1619,1.1619,1.1619,1.1619,1.1619,1.1619,1.1619,1.1619,1.1619,1.1619,1.1619,1.1619,1.1619,1.1613,1.1613,1.1579,1.1518,1.1443,1.1369,1.126,1.109,1.084,1.0853,1.0786,1.0914,1.1207,1.1227,1.1307,1.1504,1.1531,1.1565,1.1565,1.1538,1.1504,1.1491,1.1484,1.1389,1.1233,1.1097,1.0975,1.0867,1.0812,1.0772,1.0751,1.0772,1.0833,1.0975,1.1138,1.1226,1.1341,1.1974,1.2674,1.2922,1.3168,1.3372,1.3433,1.3133,1.2978,1.3186,1.3626,1.4693,1.5624,1.6443,1.7716,1.9278,1.9679,1.9802,2.0173,2.0665,2.0665,2.0665,2.0735,2.0804,1.4478,1.4665,1.3984,1.3623,1.366,1.3358,1.3274,1.3197,1.2811,1.2888,1.3042,1.2733,1.2481,1.2433,1.2338,1.2478,1.2674,1.2079,1.2115,1.2209,1.2146,1.2087,1.2121,1.2388,1.2567,1.2796,1.2608,1.2608,1.2637,1.2525,1.245,1.244,1.2148,1.2436,1.2835,1.2689,1.2545,1.2681,1.2115,1.1763,1.1619,1.1619,1.1619,1.1619,1.1619,1.1619,1.1619,1.1619,1.1619,1.1619,1.1619,1.1619,1.1619,1.1619,1.1619,1.1619,1.1619,1.1613,1.1579,1.1525,1.1457,1.1355,1.1179,1.0948,1.0772,1.0846,1.0989,1.1138,1.1104,1.1267,1.145,1.145,1.143,1.1443,1.143,1.1389,1.1362,1.1396,1.1375,1.1246,1.1131,1.107,1.0968,1.0894,1.0839,1.0725,1.0745,1.0806,1.1056,1.1274,1.1375,1.1463,1.208,1.2689,1.2937,1.313,1.3324,1.3425,1.3133,1.3068,1.3308,1.4068,1.5115,1.6079,1.7049,1.8353,1.9704,1.9875,1.9998,2.0383,2.0665,2.0665,2.0735,2.0735,2.0943,1.4482,1.4119,1.3733,1.3588,1.3729,1.3667,1.366,1.356,1.319,1.3182,1.3329,1.2874,1.2413,1.2325,1.225,1.2333,1.2391,1.199,1.2046,1.2091,1.2001,1.1998,1.2135,1.2278,1.2428,1.2574,1.2608,1.2538,1.251,1.2374,1.2285,1.2149,1.1938,1.2278,1.2661,1.276,1.2617,1.2689,1.2259,1.1907,1.1691,1.1619,1.1619,1.1619,1.1619,1.1619,1.1619,1.1619,1.1619,1.1619,1.1619,1.1619,1.1619,1.1619,1.1619,1.1619,1.1619,1.1619,1.1599,1.1592,1.1592,1.1511,1.1328,1.1023,1.0758,1.0731,1.088,1.109,1.105,1.1145,1.1314,1.1389,1.1335,1.1389,1.1402,1.1362,1.1348,1.1369,1.1341,1.124,1.1172,1.1124,1.1104,1.1036,1.0934,1.088,1.0995,1.1063,1.1226,1.1416,1.1511,1.1722,1.2294,1.2753,1.2896,1.3153,1.352,1.3547,1.3327,1.3392,1.353,1.4484,1.5668,1.6679,1.7739,1.8971,1.9935,2.0038,2.0209,2.0524,2.0665,2.0665,2.0735,2.0804,2.1081,1.4378,1.4088,1.3762,1.3687,1.3763,1.3425,1.3454,1.3519,1.313,1.2901,1.2838,1.2519,1.2345,1.2257,1.2067,1.2181,1.2262,1.1873,1.1963,1.1976,1.1987,1.2004,1.2194,1.2433,1.2627,1.2788,1.2775,1.2685,1.2587,1.2347,1.2067,1.1938,1.185,1.2257,1.2589,1.2753,1.2689,1.2474,1.2266,1.1979,1.1691,1.1619,1.1619,1.1619,1.1619,1.1619,1.1619,1.1619,1.1619,1.1619,1.1619,1.1619,1.1619,1.1619,1.1619,1.1619,1.1619,1.1619,1.1619,1.1599,1.1545,1.1369,1.128,1.1138,1.0792,1.0799,1.0887,1.0982,1.0927,1.1084,1.1321,1.1321,1.1274,1.1375,1.1402,1.1348,1.1335,1.1355,1.1369,1.1294,1.1246,1.1206,1.1192,1.1185,1.107,1.0982,1.1124,1.126,1.1402,1.1511,1.1579,1.1756,1.233,1.2681,1.2824,1.3255,1.3663,1.3628,1.3522,1.3722,1.3978,1.5193,1.6257,1.7359,1.8357,1.9439,2.0122,2.0306,2.0479,2.0653,2.0665,2.0665,2.0735,2.0828,2.1163,1.4215,1.4002,1.3847,1.3808,1.3737,1.355,1.342,1.3363,1.3115,1.2705,1.2291,1.2291,1.2257,1.2155,1.1965,1.1876,1.2039,1.1818,1.1849,1.187,1.1852,1.198,1.2195,1.2388,1.2536,1.2931,1.2856,1.2678,1.2477,1.2244,1.1986,1.1877,1.1782,1.2121,1.2431,1.2681,1.2617,1.2266,1.2338,1.2051,1.1691,1.1763,1.1691,1.1619,1.1619,1.1619,1.1619,1.1619,1.1619,1.1619,1.1619,1.1619,1.1619,1.1619,1.1619,1.1619,1.1619,1.1619,1.1619,1.1592,1.1497,1.1341,1.1341,1.1151,1.0941,1.0887,1.088,1.088,1.0894,1.1056,1.1314,1.128,1.1253,1.1341,1.1396,1.1369,1.1328,1.1328,1.1362,1.1369,1.1348,1.1362,1.1294,1.1294,1.1253,1.1192,1.1314,1.1416,1.1477,1.1558,1.1592,1.19,1.233,1.261,1.2824,1.3349,1.3807,1.379,1.3804,1.4131,1.4651,1.5756,1.6907,1.7969,1.8964,1.99,2.0344,2.0483,2.0551,2.0665,2.0714,2.0798,2.0904,2.0999,2.1167,1.4136,1.3765,1.3675,1.3699,1.3831,1.4026,1.371,1.32,1.3126,1.2824,1.2312,1.2319,1.2251,1.2121,1.1944,1.1748,1.1739,1.1633,1.1619,1.1633,1.1719,1.1856,1.2018,1.223,1.2377,1.2571,1.2622,1.254,1.2312,1.219,1.1979,1.185,1.1748,1.1804,1.2201,1.2617,1.2545,1.2266,1.2545,1.2187,1.1835,1.1907,1.1835,1.1691,1.1619,1.1619,1.1619,1.1619,1.1619,1.1619,1.1619,1.1619,1.1619,1.1619,1.1619,1.1619,1.1619,1.1619,1.1619,1.1619,1.1525,1.1389,1.1375,1.124,1.1023,1.0894,1.0907,1.1002,1.0921,1.1043,1.1172,1.1287,1.1294,1.1348,1.1409,1.143,1.1396,1.1382,1.1436,1.1463,1.1525,1.1558,1.1457,1.1396,1.1396,1.1423,1.1531,1.1579,1.1579,1.1592,1.1613,1.1828,1.2259,1.261,1.2896,1.3468,1.3808,1.388,1.3984,1.4344,1.5145,1.6203,1.7341,1.8568,1.9471,2.0385,2.0509,2.0636,2.0764,2.0847,2.0919,2.0991,2.1028,2.111,2.1331,1.4196,1.4042,1.3986,1.3922,1.3922,1.389,1.3542,1.3052,1.2674,1.2405,1.2289,1.2134,1.212,1.2091,1.1921,1.1667,1.1633,1.1619,1.1619,1.1619,1.1619,1.1835,1.2035,1.2177,1.2332,1.2561,1.2559,1.2368,1.2128,1.2074,1.1979,1.1843,1.1769,1.178,1.1935,1.2122,1.2194,1.1907,1.2122,1.2122,1.1691,1.1763,1.1763,1.1619,1.1619,1.1619,1.1619,1.1619,1.1619,1.1619,1.1619,1.1619,1.1619,1.1619,1.1619,1.1619,1.1619,1.1619,1.1619,1.1606,1.1552,1.1457,1.1389,1.1314,1.1124,1.109,1.109,1.109,1.1084,1.1165,1.1301,1.1348,1.1389,1.1497,1.1552,1.1552,1.1531,1.1538,1.1558,1.1565,1.1606,1.1606,1.1545,1.1497,1.1491,1.1504,1.1579,1.1599,1.1599,1.1606,1.1619,1.1835,1.2187,1.2545,1.2968,1.3539,1.3833,1.3896,1.4096,1.4402,1.5369,1.6571,1.7768,1.8915,1.9892,2.0694,2.0722,2.0732,2.0945,2.1064,2.116,2.1245,2.1317,2.1401,2.1532,1.418,1.4172,1.4107,1.3946,1.3738,1.3717,1.3367,1.2678,1.2206,1.2146,1.229,1.2129,1.2276,1.2379,1.2056,1.1835,1.1763,1.1619,1.1619,1.1619,1.1619,1.1794,1.2001,1.2086,1.2189,1.2409,1.2412,1.2291,1.2081,1.2067,1.2013,1.1925,1.1816,1.1735,1.1753,1.1883,1.1907,1.1763,1.1979,1.2051,1.1763,1.1691,1.1763,1.1619,1.1619,1.1619,1.1619,1.1619,1.1691,1.1691,1.1691,1.1691,1.1691,1.1691,1.1619,1.1619,1.1619,1.1619,1.1619,1.1619,1.1565,1.1497,1.147,1.1396,1.128,1.1246,1.1199,1.1185,1.1212,1.1287,1.1375,1.1409,1.1497,1.1613,1.1613,1.1606,1.1599,1.1599,1.1599,1.1613,1.1619,1.1619,1.1619,1.1606,1.1586,1.1599,1.1619,1.1619,1.1619,1.1619,1.1619,1.1835,1.2187,1.2617,1.3039,1.3476,1.3761,1.3904,1.4176,1.4466,1.5596,1.6768,1.8033,1.9234,2.0095,2.0697,2.0781,2.0898,2.11,2.1245,2.1414,2.151,2.1595,2.1752,2.1897,1.4172,1.414,1.3977,1.369,1.3356,1.3439,1.2989,1.2215,1.1907,1.2042,1.2408,1.2313,1.2452,1.2809,1.2395,1.2129,1.2051,1.1763,1.1619,1.1619,1.1619,1.1752,1.1844,1.1883,1.2053,1.2223,1.2307,1.2208,1.2108,1.206,1.2054,1.1999,1.1837,1.1782,1.1762,1.1687,1.1705,1.1691,1.1835,1.1835,1.1691,1.1835,1.1835,1.1691,1.1619,1.1619,1.1691,1.1691,1.1907,1.1979,1.1907,1.1907,1.1907,1.1835,1.1691,1.1619,1.1619,1.1619,1.1619,1.1619,1.1613,1.1572,1.1592,1.1518,1.145,1.1396,1.1355,1.1328,1.1348,1.1375,1.1423,1.1504,1.1586,1.1619,1.1619,1.1613,1.1613,1.1613,1.1613,1.1619,1.1619,1.1619,1.1619,1.1619,1.1619,1.1619,1.1619,1.1619,1.1619,1.1619,1.1619,1.1691,1.2115,1.2689,1.3111,1.3476,1.3761,1.3904,1.4198,1.4694,1.5821,1.7116,1.8519,1.9574,2.023,2.0604,2.0732,2.0945,2.1172,2.1341,2.1559,2.1898,2.2056,2.2239,2.2422,1.3977,1.3977,1.392,1.369,1.3261,1.2812,1.2446,1.2136,1.1811,1.1897,1.2258,1.1969,1.2272,1.2748,1.2136,1.2051,1.1979,1.1835,1.1619,1.1613,1.1606,1.1657,1.1671,1.1712,1.1897,1.2098,1.2247,1.2237,1.2122,1.2139,1.2121,1.2026,1.1911,1.1877,1.1789,1.1694,1.1647,1.1619,1.1763,1.1691,1.1691,1.1763,1.1763,1.1691,1.1691,1.1835,1.1979,1.2051,1.2266,1.2474,1.2194,1.2122,1.2122,1.1835,1.1619,1.1619,1.1619,1.1619,1.1619,1.1619,1.1619,1.1619,1.1619,1.1613,1.1565,1.1531,1.1511,1.1484,1.147,1.1497,1.1511,1.1572,1.1619,1.1619,1.1619,1.1619,1.1619,1.1619,1.1619,1.1619,1.1619,1.1619,1.1619,1.1619,1.1619,1.1619,1.1619,1.1619,1.1619,1.1619,1.1691,1.1763,1.2187,1.2753,1.3039,1.3468,1.3682,1.3975,1.4332,1.5007,1.6286,1.7652,1.9011,1.9968,2.058,2.0744,2.068,2.0989,2.1316,2.1522,2.1728,2.2105,2.2436,2.2657,2.2877,1.3904,1.3904,1.3904,1.3611,1.3047,1.2481,1.2122,1.1979,1.1691,1.1835,1.2122,1.1986,1.2187,1.2617,1.2187,1.2015,1.2237,1.1807,1.1664,1.1738,1.1664,1.1606,1.1613,1.1626,1.189,1.2135,1.2301,1.2336,1.2322,1.2233,1.2132,1.2142,1.2026,1.1891,1.1796,1.1701,1.1626,1.1619,1.1619,1.1619,1.1619,1.1763,1.1835,1.1835,1.19,1.2187,1.2402,1.2402,1.2617,1.2896,1.2617,1.2474,1.233,1.1972,1.1619,1.1619,1.1619,1.1619,1.1619,1.1619,1.1619,1.1619,1.1619,1.1613,1.1613,1.1592,1.1592,1.1586,1.1599,1.1613,1.1613,1.1619,1.1619,1.1619,1.1619,1.1619,1.1619,1.1619,1.1619,1.1619,1.1619,1.1619,1.1619,1.1619,1.1619,1.1619,1.1619,1.1619,1.1619,1.1619,1.1763,1.1979,1.2402,1.2824,1.3111,1.3396,1.3682,1.4039,1.4537,1.5373,1.6768,1.7948,1.9151,2.0048,2.0863,2.0943,2.0941,2.1159,2.1425,2.1619,2.1801,2.2215,2.267,2.2942,2.3209,1.3904,1.3904,1.3904,1.3468,1.2824,1.2402,1.2051,1.1691,1.1691,1.1835,1.2122,1.2122,1.233,1.2545,1.2187,1.2201,1.2244,1.193,1.1787,1.191,1.1701,1.1691,1.1835,1.1698,1.2065,1.228,1.246,1.2663,1.2751,1.2618,1.2405,1.2326,1.1998,1.1855,1.1955,1.1832,1.1749,1.1701,1.1708,1.1722,1.1828,1.1979,1.2194,1.2266,1.2545,1.2753,1.2824,1.2896,1.2968,1.3111,1.3039,1.2824,1.2402,1.2043,1.1691,1.1619,1.1619,1.1619,1.1619,1.1619,1.1619,1.1619,1.1619,1.1619,1.1619,1.1619,1.1619,1.1619,1.1619,1.1619,1.1619,1.1619,1.1619,1.1619,1.1619,1.1619,1.1619,1.1619,1.1619,1.1619,1.1619,1.1619,1.1619,1.1619,1.1619,1.1619,1.1619,1.1619,1.1619,1.1619,1.1835,1.2051,1.2474,1.2896,1.3253,1.3539,1.3753,1.411,1.475,1.5603,1.6883,1.8075,1.9167,2.0122,2.1041,2.1136,2.1148,2.1354,2.1523,2.1631,2.1946,2.2399,2.2793,2.3075,2.3263,1.3904,1.3833,1.3611,1.3325,1.3182,1.2824,1.2402,1.2051,1.2051,1.1907,1.1763,1.1763,1.1979,1.2266,1.1979,1.2073,1.2423,1.2144,1.2087,1.2116,1.1958,1.2043,1.2323,1.2173,1.238,1.2749,1.3016,1.3062,1.3037,1.2866,1.2721,1.2698,1.2363,1.2251,1.224,1.2107,1.1944,1.1874,1.1832,1.1895,1.2115,1.2122,1.2266,1.2545,1.2824,1.3039,1.3111,1.3182,1.3396,1.3619,1.3325,1.2896,1.233,1.1835,1.1619,1.1619,1.1619,1.1619,1.1619,1.1619,1.1619,1.1619,1.1619,1.1619,1.1619,1.1619,1.1619,1.1619,1.1619,1.1619,1.1619,1.1619,1.1619,1.1619,1.1619,1.1619,1.1619,1.1619,1.1619,1.1619,1.1619,1.1619,1.1619,1.1619,1.1619,1.1619,1.1619,1.1619,1.1619,1.1619,1.1835,1.2122,1.2545,1.2896,1.3253,1.3682,1.3896,1.4608,1.5319,1.616,1.7157,1.8649,2.0169,2.0592,2.1172,2.1233,2.1366,2.1607,2.174,2.1764,2.191,2.2239,2.2456,2.2756,2.3008,1.3904,1.3825,1.3468,1.3325,1.3253,1.3111,1.2824,1.2545,1.2474,1.2259,1.1835,1.1691,1.1763,1.1979,1.1835,1.2001,1.2408,1.2302,1.2322,1.2386,1.2445,1.2466,1.2523,1.2558,1.2764,1.3074,1.3523,1.3597,1.3386,1.3155,1.3049,1.3003,1.2791,1.2559,1.2554,1.2366,1.2151,1.2073,1.1995,1.2115,1.2437,1.2565,1.2716,1.3001,1.3182,1.3404,1.3468,1.3539,1.3539,1.3547,1.3182,1.3111,1.2617,1.2187,1.1907,1.1835,1.1763,1.1619,1.1619,1.1619,1.1619,1.1619,1.1619,1.1619,1.1619,1.1619,1.1619,1.1619,1.1619,1.1619,1.1619,1.1619,1.1619,1.1619,1.1619,1.1619,1.1619,1.1619,1.1619,1.1619,1.1619,1.1619,1.1619,1.1619,1.1619,1.1619,1.1619,1.1619,1.1619,1.1619,1.1835,1.2122,1.2474,1.2896,1.3253,1.3682,1.4181,1.4893,1.5824,1.7218,1.8481,1.9874,2.1076,2.1124,2.1233,2.139,2.1559,2.1704,2.18,2.18,2.1922,2.2056,2.2281,2.251,2.2834,1.3904,1.3833,1.3539,1.3396,1.3396,1.3396,1.3182,1.2896,1.2896,1.2617,1.2259,1.19,1.1763,1.1835,1.1972,1.2094,1.2208,1.2501,1.2663,1.279,1.2779,1.2881,1.2836,1.276,1.3043,1.3365,1.3826,1.3864,1.3706,1.3574,1.3469,1.3275,1.2971,1.2663,1.2691,1.2545,1.2373,1.2301,1.2243,1.2384,1.2682,1.3028,1.3145,1.3413,1.3706,1.392,1.3912,1.3785,1.3642,1.3325,1.3039,1.3039,1.2904,1.2474,1.2266,1.2051,1.1763,1.1619,1.1619,1.1619,1.1619,1.1619,1.1619,1.1619,1.1619,1.1619,1.1619,1.1619,1.1619,1.1619,1.1619,1.1619,1.1619,1.1619,1.1619,1.1619,1.1619,1.1619,1.1619,1.1619,1.1619,1.1619,1.1619,1.1619,1.1619,1.1619,1.1619,1.1619,1.1619,1.1619,1.1763,1.1979,1.2259,1.2689,1.3182,1.3945,1.4542,1.5426,1.651,1.823,1.9756,2.0663,2.1148,2.11,2.1221,2.1438,2.1535,2.1631,2.1716,2.1837,2.1776,2.1824,2.2191,2.2441,2.2717,1.3904,1.3904,1.3825,1.3753,1.3761,1.3761,1.3539,1.3253,1.3182,1.3039,1.2681,1.2617,1.2402,1.2122,1.2122,1.2351,1.2727,1.2866,1.3246,1.3595,1.3088,1.3246,1.3349,1.3161,1.3263,1.3586,1.3858,1.3969,1.3952,1.402,1.4098,1.3883,1.3729,1.3486,1.3317,1.3146,1.2858,1.2641,1.2723,1.2841,1.2911,1.3146,1.3405,1.3666,1.3978,1.4002,1.3913,1.377,1.3506,1.33,1.3039,1.3039,1.3047,1.276,1.2409,1.2194,1.1907,1.1691,1.1619,1.1691,1.1691,1.1619,1.1619,1.1691,1.1619,1.1619,1.1619,1.1619,1.1619,1.1619,1.1619,1.1619,1.1619,1.1619,1.1619,1.1619,1.1619,1.1619,1.1619,1.1619,1.1619,1.1619,1.1619,1.1619,1.1633,1.1633,1.1626,1.1626,1.1653,1.164,1.1698,1.1928,1.2151,1.2689,1.319,1.4402,1.5156,1.6025,1.7227,1.908,2.0354,2.0947,2.1269,2.1221,2.1317,2.151,2.1583,2.1704,2.1691,2.1716,2.1619,2.1654,2.2111,2.2422,2.2748]}]]